     2.11           OBSERVATION DATA    G (GPS)             RINEX VERSION / TYPE
teqc 2010Oct21 OPUS Account 20111026 21:11:05UTC            PGM / RUN BY / DATE
V 1523                                                      MARKER NAME
1200                                                        MARKER NUMBER
CSMIDDLETON NGS                                             OBSERVER / AGENCY
0220269730 TRIMBLE 5700 NP 1.22 / SP 1.22                   REC # / TYPE / VERS
60041226 TRM41249.00 NONE                                   ANT # / TYPE
  -751379.9038 -5519145.7298  3097022.3037                  APPROX POSITION XYZ
        2.0010        0.0000        0.0000                  ANTENNA: DELTA H/E/N
     1     1                                                WAVELENGTH FACT L1/2
     5    L1    L2    C1    P1    P2                        # / TYPES OF OBSERV
    15                                                      LEAP SECONDS
  2011     8    11    16     3   30.0000000     GPS         TIME OF FIRST OBS
                                                            END OF HEADER
 11  8 11 16  3 30.0000000  0  9G03G06G07G10G13G16G19G20G23
   -676485.80957   -517767.87155  20898194.9694                   20898194.0434
   -309302.22357   -240175.10555  22146594.4924                   22146594.2934
  -1114609.07457   -865686.99454  23117767.9924                   23117766.5164
   -791612.41056   -616720.56053  24019194.7424                   24019195.6994
  -1066947.30958   -813009.39556  20545373.9224                   20545372.3364
    390337.27057    291745.20555  21920533.6024                   21920530.6884
  -1342964.97757  -1026902.14255  22088644.3054                   22088641.9224
    471258.80556    359906.91253  23711238.5554                   23711238.3284
   -461510.84458   -355637.12657  20036569.9924                   20036566.4574
 11  8 11 16  4  0.0000000  0 10G03G06G07G10G13G16G19G20G23G32
   -737119.91848   -565015.22445  20886656.8754                   20886656.6374
   -337590.62947   -262218.05745  22141211.6884                   22141211.2384
  -1221205.94547   -948749.42344  23097482.6884                   23097482.7074
   -865469.14146   -674271.23443  24005140.2584                   24005141.1884
  -1163554.28948   -888287.56846  20526990.5554                   20526988.7504
    422758.50847    317008.49545  21926702.6254                   21926700.8954
  -1465251.38747  -1122190.21245  22065373.5704                   22065370.5204
    511218.16846    391043.97644  23718843.0864                   23718843.1254
   -503305.67648   -388204.56347  20028616.6254                   20028613.4384
     78211.03556     53772.60552  24706735.6094                   24706735.1844
 11  8 11 16  4 30.0000000  0 10G03G06G07G10G13G16G19G20G23G32
   -797661.88747   -612190.78245  20875136.0554                   20875135.2934
   -365854.58247   -284241.93745  22135833.2584                   22135832.6844
  -1328314.27747  -1032210.44744  23077100.4614                   23077100.8204
   -939344.00446   -731836.06843  23991082.3674                   23991082.9734
  -1260257.50448   -963640.71446  20508588.2194                   20508586.4694
    454860.86347    342023.27445  21932811.7504                   21932809.9414
  -1587709.74647  -1217612.28145  22042070.6094                   22042068.0744
    550668.27746    421784.19743  23726350.1954                   23726350.3834
   -545074.35948   -420751.59646  20020668.5394                   20020665.0944
    121611.21546     87590.75743  24714993.8524                   24714996.0904
 11  8 11 16  5  0.0000000  0 10G03G06G07G10G13G16G19G20G23G32
   -858144.00447   -659319.70945  20863626.5394                   20863625.6914
   -394127.81647   -306273.05845  22130453.2424                   22130453.2504
  -1435967.43047  -1116095.97544  23056615.5634                   23056613.7154
  -1013270.02046   -789440.74943  23977014.7894                   23977014.0004
  -1357088.02348  -1039093.07146  20490162.2034                   20490160.5394
    486608.62547    366761.78845  21938852.8914                   21938851.3714
  -1710370.48447  -1313192.05945  22018728.7114                   22018726.0664
    589572.69546    452099.23843  23733753.3054                   23733753.1684
   -586849.44948   -453303.63947  20012719.0084                   20012715.8484
    164362.97346    120903.61742  24723129.5704                   24723132.1134
 11  8 11 16  5 30.0000000  0 10G03G06G07G10G13G16G19G20G23G32
   -918532.28947   -706375.51145  20852134.9144                   20852134.6914
   -422377.48447   -328285.79645  22125077.4774                   22125076.8054
  -1544132.11347  -1200380.11144  23036032.6174                   23036030.7774
  -1087214.08646   -847059.50243  23962943.9064                   23962943.5784
  -1454010.18748  -1114616.83446  20471718.3444                   20471716.8094
    518032.69947    391248.05945  21944833.0394                   21944830.9224
  -1833197.06647  -1408901.04445  21995355.8284                   21995353.2504
    627961.92246    482012.82643  23741059.0864                   23741059.3554
   -628597.03548   -485834.24347  20004774.9774                   20004771.7504
    206497.14146    153735.33242  24731147.7274                   24731149.4494
 11  8 11 16  6  0.0000000  0 10G03G06G07G10G13G16G19G20G23G32
   -978804.80947   -753341.10245  20840665.3834                   20840665.0474
   -450582.71547   -350263.93545  22119710.7734                   22119709.7274
  -1652787.12147  -1285046.33344  23015356.1804                   23015354.8874
  -1161154.60946   -904675.52443  23948873.2894                   23948873.2504
  -1551000.37148  -1190193.60546  20453261.7894                   20453260.1764
    549151.69547    415496.59145  21950754.4224                   21950752.3484
  -1956165.11347  -1504720.27345  21971955.6334                   21971953.4774
    665854.61346    511539.50243  23748269.7814                   23748270.1684
   -670295.44148   -518326.53147  19996839.8594                   19996836.2894
    248032.41046    186100.29342  24739051.9614                   24739054.0704
 11  8 11 16  6 30.0000000  0 10G03G06G07G10G13G16G19G20G23G32
  -1038940.98847   -800200.44245  20829222.4844                   20829221.0314
   -478724.39847   -372192.52245  22114354.9384                   22114354.2074
  -1761913.36747  -1370079.73744  22994589.8204                   22994588.7074
  -1235071.71946   -962273.21743  23934807.3054                   23934807.6024
  -1648036.68048  -1265806.31446  20434796.3054                   20434794.2734
    579982.49647    439520.57945  21956621.5394                   21956619.5944
  -2079252.10547  -1600632.18245  21948532.8984                   21948530.3634
    703267.38346    540692.22043  23755389.4694                   23755389.7624
   -711924.14848   -550764.49847  19988918.1254                   19988914.7154
    288986.16846    218012.13742  24746845.9774                   24746847.9654
 11  8 11 16  7  0.0000000  0 10G03G06G07G10G13G16G19G20G23G32
  -1098933.09847   -846947.52745  20817806.1564                   20817804.7194
   -506795.98847   -394066.50745  22109013.0394                   22109012.3554
  -1871503.19147  -1455474.35144  22973735.2194                   22973734.9024
  -1308957.93746  -1019846.88443  23920747.0634                   23920747.4614
  -1745109.78948  -1341447.68546  20416323.8594                   20416322.2734
    610529.82847    463323.67645  21962434.4924                   21962432.8444
  -2202447.82847  -1696628.82545  21925089.2974                   21925087.2274
    740204.56646    569474.34743  23762417.6094                   23762418.4384
   -753475.25048   -583141.99147  19981011.3284                   19981007.6724
    329363.24246    249474.62542  24754529.7194                   24754531.4844
 11  8 11 16  7 30.0000000  0 10G03G06G07G10G13G16G19G20G23G32
  -1158771.64847   -893574.96845  20806419.2194                   20806418.5824
   -534789.41847   -415879.58845  22103685.8914                   22103684.8914
  -1981548.17647  -1541223.69644  22952794.9384                   22952794.0514
  -1382804.82846  -1077389.91843  23906694.3284                   23906694.7424
  -1842208.86348  -1417109.29846  20397846.6254                   20397844.7504
    640799.63347    486910.51145  21968194.6094                   21968192.8284
  -2325740.79347  -1792701.24845  21901627.4694                   21901624.8484
    776671.82846    597890.30243  23769357.5084                   23769357.4454
   -794940.10948   -615452.28346  19973120.7974                   19973117.2194
    369169.59046    280492.40643  24762104.0004                   24762107.1374
 11  8 11 16  8  0.0000000  0  9G03G06G07G10G13G16G19G20G23
  -1218444.87547   -940073.58546  20795063.3914                   20795063.2734
   -562694.23447   -437623.59945  22098375.8134                   22098375.2974
  -2092037.33647  -1627319.13245  22931769.3984                   22931769.1254
  -1456601.61346  -1134893.91543  23892651.4924                   23892651.5824
  -1939320.58248  -1492780.77746  20379367.1484                   20379365.2624
    670800.41047    510287.68045  21973903.4224                   21973901.6644
  -2449116.62947  -1888838.22345  21878149.9064                   21878148.0004
    812677.24646    625946.42343  23776209.2894                   23776209.7894
   -836307.01648   -647686.25547  19965248.8284                   19965245.2734
 11  8 11 16  8 30.0000000  0  9G03G06G07G10G13G16G19G20G23
  -1277943.03947   -986435.78645  20783741.5634                   20783741.0514
   -590501.72347   -459291.77545  22093084.8204                   22093084.0314
  -2202961.67247  -1713753.64344  22910661.4844                   22910660.3404
  -1530338.92646  -1192351.51443  23878619.6644                   23878620.0784
  -2036433.33648  -1568453.05346  20360886.8134                   20360885.4304
    700538.76647    533460.40745  21979563.0634                   21979561.0554
  -2572563.11747  -1985030.27645  21854659.2974                   21854656.5084
    848227.37546    653647.70643  23782974.1884                   23782975.4384
   -877565.78948   -679835.97546  19957397.7974                   19957394.0004
 11  8 11 16  9  0.0000000  0  9G03G06G07G10G13G16G19G20G23
  -1337242.60947  -1032643.22645  20772457.1954                   20772456.5004
   -618189.22747   -480866.45945  22087815.7894                   22087814.6174
  -2314297.80547  -1800509.04944  22889473.9774                   22889473.8874
  -1603993.37146  -1249744.63343  23864602.8284                   23864603.4884
  -2133521.84448  -1644106.44846  20342411.5784                   20342409.8164
    730035.91447    556445.17945  21985175.6414                   21985174.3164
  -2696054.21147  -2081257.06645  21831159.5704                   21831156.6094
    883342.52046    681010.07043  23789656.4224                   23789656.8954
   -918693.11748   -711883.26146  19949571.3204                   19949567.6334
 11  8 11 16  9 30.0000000  0  9G03G06G07G10G13G16G19G20G23
  -1396332.52047  -1078687.29745  20761212.7974                   20761211.7974
   -645747.25447   -502340.26645  22082571.3754                   22082571.0514
  -2426035.65247  -1887577.49945  22868211.2664                   22868211.1134
  -1677554.89846  -1307065.25843  23850605.3754                   23850605.0314
  -2230573.69548  -1719731.26346  20323943.2734                   20323941.2704
    759298.64147    579247.25745  21990744.6024                   21990742.5984
  -2819576.73447  -2177508.35245  21807653.4224                   21807650.7234
    918030.13746    708039.24843  23796257.3364                   23796257.3794
   -959678.21548   -743819.72546  19941772.1254                   19941768.5004
 11  8 11 16 10  0.0000000  0  9G03G06G07G10G13G16G19G20G23
  -1455201.89847  -1124559.53945  20750010.2734                   20750009.6954
   -673166.21947   -523705.71545  22077353.9064                   22077353.1994
  -2538164.91047  -1974950.91644  22846873.6564                   22846873.3404
  -1751013.46546  -1364305.70543  23836626.1024                   23836626.4844
  -2327576.47748  -1795317.84946  20305483.9454                   20305482.5434
    788335.04347    601872.98245  21996270.0634                   21996268.4774
  -2943117.48847  -2273773.85345  21784144.7504                   21784142.2384
    952297.75846    734741.25243  23802779.0784                   23802778.4844
  -1000510.34448   -775636.97546  19934002.1174                   19933998.5744
 11  8 11 16 10 30.0000000  0  9G03G06G07G10G13G16G19G20G23
  -1513842.15647  -1170253.24345  20738851.1024                   20738851.0904
   -700438.29747   -544956.67145  22072164.3914                   22072163.3874
  -2650677.33647  -2062622.94844  22825463.3984                   22825462.8954
  -1824360.37946  -1421459.26143  23822668.6724                   23822668.9614
  -2424519.39848  -1870857.79846  20287036.7974                   20287034.9104
    817150.87147    624326.82345  22001753.6334                   22001751.4454
  -3066664.92247  -2370044.56145  21760634.1644                   21760631.2504
    986151.02046    761120.29443  23809220.4304                   23809221.4024
  -1041180.59048   -807328.09746  19926262.9384                   19926259.0314
 11  8 11 16 11  0.0000000  0 10G03G06G07G10G13G16G19G20G23G08
  -1572245.47347  -1215762.31745  20727737.5944                   20727737.2624
   -727556.96947   -566088.10645  22067003.9224                   22067002.6294
  -2763565.63347  -2150587.83345  22803981.3204                   22803980.7814
  -1897588.57046  -1478520.11443  23808733.7664                   23808734.5514
  -2521392.97348  -1946343.70046  20268602.5634                   20268600.4804
    845751.05147    646612.62745  22007196.2734                   22007194.1724
  -3190209.10947  -2466312.71845  21737124.2974                   21737122.1994
   1019594.07046    787179.70843  23815584.7424                   23815585.4144
  -1081681.46948   -838887.23546  19918555.8284                   19918551.9804
   -209316.71556   -143157.86553  24888166.6564                   24888168.1684
 11  8 11 16 11 30.0000000  0 10G03G06G07G10G13G16G19G20G23G08
  -1630414.77347  -1261089.03845  20716668.4224                   20716667.8204
   -754526.57447   -587103.38445  22061871.6254                   22061871.5434
  -2876833.17247  -2238848.25345  22782427.5704                   22782426.5044
  -1970701.59047  -1535491.29243  23794821.3054                   23794822.0164
  -2618198.41448  -2021776.50346  20250180.8984                   20250178.8954
    874129.55147    668725.69745  22012596.3444                   22012594.2304
  -3313750.30947  -2562578.56645  21713615.4224                   21713612.7274
   1052620.93846    812914.77543  23821868.8444                   23821870.3634
  -1122016.06648   -870316.80646  19910880.2504                   19910876.9774
   -328995.73846   -236414.18742  24865391.3914                   24865393.4844
 11  8 11 16 12  0.0000000  0 10G03G06G07G10G13G16G19G20G23G08
  -1688341.35548  -1306226.63045  20705645.3134                   20705644.5664
   -781339.73847   -607996.78445  22056768.7894                   22056768.8364
  -2990471.72347  -2327397.74145  22760802.9534                   22760802.2344
  -2043691.71546  -1592366.68143  23780931.8444                   23780932.2464
  -2714925.91848  -2097148.58846  20231773.9844                   20231772.1254
    902291.89147    690670.33445  22017955.6884                   22017953.3324
  -3437277.62547  -2658833.60245  21690108.5704                   21690106.5434
   1085236.83646    838329.65643  23828075.6804                   23828076.6994
  -1162176.08248   -901610.33846  19903238.3674                   19903234.6954
   -449105.12956   -330005.91452  24842535.9924                   24842537.1254
 11  8 11 16 12 30.0000000  0 10G03G06G07G10G13G16G19G20G23G08
  -1746019.36347  -1351170.53145  20694669.1884                   20694668.5784
   -807991.52047   -628764.42045  22051697.7664                   22051697.1454
  -3104475.98847  -2416232.22444  22739108.5864                   22739107.8164
  -2116553.26246  -1649141.93443  23767066.8444                   23767066.6454
  -2811567.49248  -2172453.71046  20213383.5394                   20213382.0634
    930241.41047    712449.14745  22023273.9614                   22023272.0394
  -3560782.56647  -2755071.18245  21666606.9304                   21666604.3874
   1117444.45746    863426.38143  23834205.4454                   23834205.9024
  -1202155.47348   -932763.12946  19895630.6174                   19895626.9454
   -569639.58246   -423928.80142  24819598.7504                   24819600.0314
 11  8 11 16 13  0.0000000  0 10G03G06G07G10G13G16G19G20G23G08
  -1803444.85947  -1395917.67745  20683742.1094                   20683741.2074
   -834479.14547   -649404.13245  22046657.1334                   22046656.5634
  -3218842.00447  -2505348.58245  22717345.8984                   22717344.6884
  -2189282.74646  -1705814.28043  23753226.3444                   23753226.7464
  -2908117.50848  -2247687.48046  20195010.6414                   20195009.1524
    957979.07447    734062.86345  22028551.8364                   22028550.5124
  -3684258.70347  -2851286.35045  21643110.1644                   21643107.8954
   1149244.89146    888205.76643  23840256.0554                   23840258.0514
  -1241950.18748   -963772.01746  19888057.6724                   19888053.9804
   -690596.21946   -518180.69743  24796581.6954                   24796583.3094
 11  8 11 16 13 30.0000000  0 10G03G06G07G10G13G16G19G20G23G08
  -1860611.26647  -1440462.91945  20672863.4774                   20672863.0634
   -860797.34447   -669911.79545  22041649.0634                   22041648.2854
  -3333563.75847  -2594742.15345  22695514.6174                   22695513.8284
  -2261874.43446  -1762379.24843  23739412.8914                   23739412.4144
  -3004567.55548  -2322843.36446  20176657.0084                   20176655.3874
    985508.52047    755514.33145  22033791.0004                   22033788.8054
  -3807696.73447  -2947471.79845  21619620.5864                   21619618.2894
   1180641.31646    912670.39643  23846231.7664                   23846232.4964
  -1281553.82848   -994632.00947  19880521.3524                   19880517.7814
   -811969.15646   -612756.96143  24773484.9844                   24773486.7234
 11  8 11 16 14  0.0000000  0 10G03G06G07G10G13G16G19G20G23G08
  -1917512.92247  -1484801.87345  20662035.0004                   20662035.0594
   -886941.49647   -690283.89245  22036674.1334                   22036673.0164
  -3448635.60247  -2684408.48145  22673617.2274                   22673616.5084
  -2334323.08646  -1818832.71843  23725626.2894                   23725627.2274
  -3100910.07848  -2397915.44946  20158323.5864                   20158322.2344
   1012832.67647    776805.84845  22038990.2424                   22038988.6094
  -3931088.34847  -3043621.08445  21596139.7034                   21596137.3874
   1211636.24646    936822.16843  23852129.7424                   23852130.8204
  -1320960.56648  -1025338.58846  19873022.6484                   19873018.5824
   -933753.32446   -707653.65242  24750310.5554                   24750312.0204
 11  8 11 16 14 30.0000000  0 10G03G06G07G10G13G16G19G20G23G08
   -398729.39847   -301334.20645  20951050.5394                   20951049.5824
    662506.58647    517078.24545  22331524.0004                   22331523.5234
  -1988635.68447  -1546746.18045  22951445.9534                   22951444.9344
   -831208.17646   -647574.37243  24011659.5634                   24011660.9694
  -1621721.57448  -1245301.02746  20439804.1334                   20439802.1684
   2615366.30547   2025533.33345  22343942.8364                   22343941.4614
  -2479008.52347  -1912130.30046  21872461.6954                   21872458.9574
   2817644.43046   2188256.93743  24157742.7664                   24157744.2074
    215249.03548    171707.82746  20165353.2504                   20165349.7234
    519473.12945    424730.65642  25026850.8834                   25026851.5904
 11  8 11 16 15  0.0000000  0 10G03G06G07G10G13G16G19G20G23G08
   -455105.73847   -345263.81045  20940322.4304                   20940321.0274
    636703.10547    496971.64145  22326613.6094                   22326613.3164
  -2104412.73047  -1636962.01544  22929414.2664                   22929413.4734
   -903376.08246   -703809.13643  23997926.0474                   23997926.2154
  -1717847.63348  -1320204.43846  20421511.7584                   20421509.9654
   2642267.77347   2046495.46945  22349061.8524                   22349060.1914
  -2602303.71947  -2008204.43645  21848999.3364                   21848997.0474
   2847824.06646   2211773.38743  24163486.6644                   24163486.7424
    176231.45748    141304.49746  20157928.6724                   20157925.2114
    396860.21546    329188.21142  25003516.8594                   25003519.7194
 11  8 11 16 15 30.0000000  0 10G03G06G07G10G13G16G19G20G23G08
   -511218.79747   -388988.27245  20929644.1414                   20929643.6644
    611068.58647    476996.69545  22321735.6804                   22321734.9844
  -2220542.32047  -1727452.57344  22907315.3594                   22907314.6914
   -975404.40646   -759935.11443  23984219.7894                   23984220.2464
  -1813862.36748  -1395021.11846  20403240.5314                   20403238.8444
   2668954.20747   2067290.06445  22354140.0314                   22354138.3524
  -2725546.50847  -2104237.74545  21825546.6954                   21825544.3634
   2877591.91046   2234969.05343  24169151.0314                   24169151.4494
    137408.66848    111052.96146  20150540.9614                   20150537.6684
    273831.97346    233322.05942  24980106.3834                   24980107.5824
 11  8 11 16 16  0.0000000  0 10G03G06G07G10G13G16G19G20G23G08
   -567069.83247   -432508.56045  20919016.0704                   20919015.1484
    585600.78147    457151.65345  22316889.1094                   22316889.0204
  -2337025.25446  -1818218.44844  22885149.6954                   22885148.3834
  -1047294.33247   -815953.25443  23970540.5004                   23970540.0274
  -1909765.19548  -1469750.58846  20384991.0704                   20384989.6334
   2695421.89147   2087914.19944  22359176.8594                   22359175.0474
  -2848734.98047  -2200228.73246  21802104.8284                   21802102.1644
   2906943.69946   2257840.46243  24174735.7664                   24174737.3014
     98779.85948     80952.57846  20143190.1954                   20143186.6994
    150386.82446    137131.16442  24956615.0554                   24956616.5204
 11  8 11 16 16 30.0000000  0 10G03G06G07G10G13G16G19G20G23G08
   -622662.54747   -475827.56145  20908437.5474                   20908436.4304
    560294.73047    437432.64445  22312073.4534                   22312072.6414
  -2453866.27347  -1909263.37044  22862915.1024                   22862913.7304
  -1119050.23847   -871866.93043  23956885.3444                   23956885.7034
  -2005557.78548  -1544394.16246  20366762.1174                   20366760.6024
   2721664.68847   2108363.11245  22364171.3674                   22364169.2074
  -2971870.48047  -2296178.43145  21778672.7424                   21778670.2734
   2935872.96546   2280382.65443  24180241.1954                   24180241.9534
     60341.08248     51000.26446  20135875.6174                   20135872.4024
     26520.25045     40611.94142  24933044.0554                   24933044.8954
 11  8 11 16 17  0.0000000  0 10G03G06G07G10G13G16G19G20G23G08
   -677998.07047   -518946.15645  20897906.9844                   20897906.4344
    535148.38747    417838.06745  22307288.0394                   22307287.7894
  -2571065.84847  -2000587.67744  22840612.8284                   22840611.2344
  -1190673.84046   -927677.56843  23943255.7584                   23943256.2274
  -2101239.48848  -1618951.33146  20348555.0004                   20348553.2034
   2747678.35247   2128633.47045  22369120.8444                   22369119.5594
  -3094951.69147  -2392085.83945  21755250.8754                   21755248.7544
   2964375.39546   2302592.18643  24185664.5004                   24185666.1994
     22090.99248     21194.99846  20128596.6484                   20128593.0904
    -97769.29746    -56237.00343  24909392.0314                   24909393.1764
 11  8 11 16 17 30.0000000  0 10G03G06G07G10G13G16G19G20G23G08
   -733078.91047   -561866.28045  20887425.6414                   20887424.9414
    510158.17247    398365.16144  22302532.8984                   22302532.0984
  -2688626.21147  -2092193.10844  22818241.8204                   22818241.1994
  -1262168.09446   -983387.38943  23929651.1174                   23929650.8134
  -2196810.55547  -1693422.30346  20330368.3284                   20330366.8014
   2773458.47747   2148721.85245  22374026.8204                   22374025.3594
  -3217977.98447  -2487950.46845  21731839.9534                   21731837.5354
   2992446.56346   2324465.70243  24191007.2894                   24191008.0394
    -15972.45348     -8464.85646  20121353.6094                   20121349.9574
   -222484.64545   -153417.75343  24885659.1564                   24885660.8444
 11  8 11 16 18  0.0000000  0 10G03G06G07G10G13G16G19G20G23G08
   -787909.00448   -604591.04145  20876992.1254                   20876991.3014
    485319.19147    379010.10545  22297806.0084                   22297805.5124
  -2806551.46547  -2184082.90745  22795801.0084                   22795800.6134
  -1333537.23046  -1038999.72043  23916069.4924                   23916070.1054
  -2292273.05547  -1767808.67146  20312202.0234                   20312200.5864
   2798998.56647   2168623.16545  22378887.3364                   22378885.2544
  -3340950.70747  -2583773.33646  21708439.2504                   21708436.6134
   3020079.26646   2345997.54443  24196265.4614                   24196266.3324
    -53853.29748    -37982.42246  20114145.1484                   20114141.6804
   -347630.23455   -250933.58652  24861843.8524                   24861846.5394
 11  8 11 16 18 30.0000000  0 10G03G06G07G10G13G16G19G20G23G08
   -842488.15647   -647120.24945  20866606.0164                   20866605.0554
    460630.53147    359772.18545  22293108.2194                   22293107.7544
  -2924841.17247  -2276256.65844  22773291.3054                   22773290.5124
  -1404781.55946  -1094514.80143  23902512.7114                   23902512.9614
  -2387624.83647  -1842108.77546  20294057.2194                   20294055.9494
   2824296.49247   2188335.82245  22383700.9774                   22383699.5634
  -3463866.68047  -2679551.97645  21685049.0084                   21685046.3444
   3047271.14546   2367185.89643  24201440.2344                   24201441.5704
    -91551.10248    -67357.35046  20106971.3754                   20106968.0704
   -473205.78145   -348784.56843  24837948.7814                   24837950.3594
 11  8 11 16 19  0.0000000  0 10G03G06G07G10G13G16G19G20G23G08
   -896816.69548   -689454.19045  20856267.2274                   20856267.0704
    436090.17647    340649.80645  22288437.9534                   22288438.2234
  -3043496.28547  -2368715.17945  22750712.1414                   22750711.7384
  -1475902.34446  -1149933.59343  23888978.7194                   23888978.1684
  -2482864.77047  -1916321.71946  20275933.7194                   20275932.4534
   2849348.93047   2207857.17045  22388468.1174                   22388466.5664
  -3586724.28147  -2775285.14746  21661669.7274                   21661667.7544
   3074018.68046   2388028.01843  24206529.8674                   24206531.4964
   -129067.31248    -96590.78146  20099832.3594                   20099829.1134
   -599213.34845   -446972.15242  24813970.0474                   24813971.8914
 11  8 11 16 19 30.0000000  0 10G03G06G07G10G13G16G19G20G23G08
   -950890.07848   -731589.28545  20845977.7584                   20845976.7234
    411701.78547    321645.85145  22283796.9064                   22283797.0594
  -3162512.00447  -2461454.68645  22728064.7114                   22728063.7154
  -1546895.56246  -1205253.00443  23875468.7504                   23875469.2774
  -2577986.12547  -1990442.28046  20257832.8754                   20257831.5434
   2874157.89847   2227188.80145  22393189.2194                   22393187.9494
  -3709515.87147  -2870966.88946  21638303.3134                   21638301.4964
   3100323.73446   2408525.32043  24211535.6954                   24211536.2074
   -166396.96948   -125678.85646  20092728.8204                   20092725.2274
   -725648.28545   -545492.77042  24789911.0394                   24789911.7664
 11  8 11 16 20  0.0000000  0 10G03G06G07G10G13G16G19G20G23G08
  -1004702.21548   -773520.83845  20835737.5944                   20835736.6054
    387470.63747    302764.39245  22279186.5474                   22279185.7304
  -3281881.79347  -2554470.09145  22705349.0474                   22705348.3984
  -1617754.85946  -1260468.03643  23861985.0084                   23861984.8674
  -2672980.59047  -2064463.95346  20239756.2584                   20239754.6684
   2898727.60247   2246333.99545  22397864.8834                   22397863.4064
  -3832232.52047  -2966590.20745  21614951.2034                   21614949.1174
   3126190.13746   2428680.85243  24216457.9774                   24216459.1024
   -203533.65248   -154616.55446  20085662.0474                   20085658.7304
   -852504.69945   -644341.84842  24765769.5164                   24765771.8164
 11  8 11 16 20 30.0000000  0 10G03G06G07G10G13G16G19G20G23G08
  -1058244.29348   -815241.92945  20825548.9144                   20825548.0514
    363404.97747    284011.92744  22274606.4304                   22274606.3954
  -3401595.83247  -2647753.71844  22682567.9774                   22682567.2194
  -1688471.53146  -1315571.95543  23848528.7664                   23848528.4534
  -2767836.84047  -2138377.92846  20221705.8674                   20221704.0044
   2923065.12946   2265298.25544  22402495.8914                   22402494.7234
  -3954862.06247  -3062145.67145  21591615.0554                   21591612.8714
   3151624.66046   2448499.80443  24221298.2814                   24221299.3874
   -240467.87548   -183396.47146  20078633.1954                   20078630.3524
   -979773.84045   -743512.59943  24741551.9384                   24741552.8954
 11  8 11 16 21  0.0000000  0 10G03G06G07G10G13G16G19G20G23G08
  -1111509.23847   -856747.08345  20815413.1884                   20815412.3204
    339509.98047    265392.41644  22270059.7734                   22270059.2664
  -3521647.83247  -2741300.70745  22659722.7194                   22659722.2734
  -1759040.16446  -1370560.52343  23835098.6484                   23835099.4104
  -2862546.63347  -2212177.77946  20203683.0084                   20203681.2814
   2947174.44947   2284084.67644  22407083.5784                   22407082.3874
  -4077395.40247  -3157626.17046  21568298.0234                   21568296.1254
   3176630.93045   2467985.09943  24226055.4924                   24226057.9844
   -277193.39148   -212013.78246  20071645.1564                   20071641.5314
  -1107449.53145   -842999.98343  24717256.1484                   24717257.5044
 11  8 11 16 21 30.0000000  0 10G03G06G07G10G13G16G19G20G23G08
  -1164490.85248   -898031.45945  20805330.5704                   20805329.6294
    315791.20747    246910.21745  22265546.0704                   22265546.4414
  -3642030.99247  -2835105.76845  22636814.8364                   22636813.8954
  -1829454.18746  -1425428.62443  23821699.9384                   23821700.4064
  -2957101.38747  -2285856.81846  20185689.9614                   20185688.3984
   2971059.79347   2302696.58644  22411629.2114                   22411627.5204
  -4199822.90647  -3253024.19346  21545000.8364                   21544998.4844
   3201212.93846   2487139.68043  24230734.9064                   24230735.5084
   -313703.97348   -240463.61446  20064697.4454                   20064693.7854
  -1235525.15645   -942799.06143  24692882.6094                   24692885.3204
 11  8 11 16 22  0.0000000  0 10G03G06G07G10G13G16G19G20G23G08
  -1217180.75047   -939088.53045  20795303.9534                   20795303.1564
    292255.96947    228571.04144  22261067.5394                   22261067.6094
  -3762736.58247  -2929162.05144  22613845.1414                   22613844.2544
  -1899705.97346  -1480170.24443  23808331.3364                   23808331.9414
  -3051490.71147  -2359406.95546  20167728.1804                   20167726.3984
   2994727.75047   2321139.10444  22416133.0864                   22416131.4494
  -4322133.88347  -3348331.41946  21521726.0474                   21521723.6724
   3225376.63746   2505968.55443  24235333.8674                   24235334.2664
   -349990.85548   -268739.11846  20057791.9454                   20057788.5824
  -1363993.20346  -1042903.95343  24668437.2894                   24668438.7274
 11  8 11 16 22 30.0000000  0 10G03G06G07G10G13G16G19G20G23G08
  -1269581.11347   -979919.98245  20785332.7034                   20785331.9964
    268900.99247    210372.33845  22256623.6334                   22256622.7974
  -3883766.36747  -3023470.95645  22590814.1024                   22590812.9614
  -1969797.98446  -1534787.39643  23794993.2274                   23794993.8284
  -3145714.63747  -2432828.20746  20149797.7894                   20149796.2814
   3018173.57447   2339408.54044  22420594.5234                   22420592.8634
  -4444327.33247  -3443547.05245  21498473.2664                   21498470.5234
   3249117.47745   2524467.70443  24239851.5784                   24239852.1294
   -386056.23848   -296842.04046  20050929.1254                   20050925.3594
  -1492855.62146  -1143316.21443  24643915.4614                   24643917.0664
 11  8 11 16 23  0.0000000  0 10G03G06G07G10G13G16G19G20G23G08
  -1321696.85547  -1020529.66545  20775415.4304                   20775414.6804
    245720.63747    192309.70645  22252212.7344                   22252212.4304
  -4005124.68047  -3118035.84945  22567720.2194                   22567719.3714
  -2039735.38746  -1589284.10243  23781684.6564                   23781685.4734
  -3239775.94147  -2506122.74246  20131898.9064                   20131896.9574
   3041390.38347   2357499.51344  22425012.7424                   22425011.4844
  -4566405.43447  -3538672.82145  21475242.8674                   21475239.8634
   3272428.24645   2542631.76043  24244287.5084                   24244288.6764
   -421904.93447   -324776.10946  20044107.2344                   20044103.9144
  -1622117.28146  -1244039.45243  24619317.3984                   24619318.9304
 11  8 11 16 23 30.0000000  0 10G03G06G07G10G13G16G19G20G23G08
  -1373538.05147  -1060925.41645  20765550.3204                   20765549.7704
    222703.51247    174374.23545  22247832.1484                   22247832.1804
  -4126821.37947  -3212864.40945  22544562.0394                   22544561.6484
  -2109528.96946  -1643668.75643  23768403.1724                   23768403.9734
  -3333682.96947  -2579297.05646  20114028.4924                   20114026.8984
   3064365.98447   2375402.54744  22429385.1954                   22429383.1804
  -4688375.48447  -3633714.39445  21452031.9924                   21452029.4144
   3295296.19946   2560450.82643  24248638.8134                   24248639.9734
   -457547.08247   -352549.22646  20037324.5634                   20037321.5784
  -1751788.39146  -1345081.86043  24594642.4924                   24594643.2974
 11  8 11 16 24  0.0000000  0 10G03G06G07G10G13G16G19G20G23G08
  -1425108.93447  -1101110.52245  20755736.7664                   20755736.1994
    199844.12547    156561.71844  22243481.9454                   22243482.1884
  -4248860.43746  -3307959.78645  22521338.7344                   22521338.2234
  -2179183.51646  -1697945.03643  23755148.1644                   23755149.4104
  -3427437.97347  -2652352.92046  20096187.3524                   20096185.8594
   3087093.87947   2393112.58145  22433710.0314                   22433708.6804
  -4810238.86347  -3728672.84145  21428842.4304                   21428839.9534
   3317714.60946   2577919.58143  24252905.0314                   24252906.1334
   -492987.32848   -380165.02146  20030580.8054                   20030577.7074
  -1881873.95346  -1446447.21243  24569886.7974                   24569888.7424
 11  8 11 16 24 30.0000000  0 10G03G06G07G10G13G16G19G20G23G08
  -1476412.08647  -1141087.01645  20745974.2504                   20745973.2894
    177139.51647    138869.79045  22239162.1724                   22239161.6844
  -4371243.53946  -3403323.19745  22498050.1884                   22498049.7274
  -2248701.35946  -1752114.83043  23741919.4384                   23741920.7384
  -3521040.80547  -2725290.20546  20078376.0784                   20078374.0234
   3109570.21147   2410626.56344  22437987.2504                   22437985.6804
  -4931994.92247  -3823547.65245  21405672.9924                   21405670.4414
   3339679.36746   2595034.80743  24257084.3364                   24257085.9804
   -528227.67247   -407625.04246  20023874.6644                   20023871.5394
  -2012375.85546  -1548136.88343  24545053.4304                   24545055.3554
 11  8 11 16 25  0.0000000  0 10G03G06G07G10G13G16G19G20G23G08
  -1527446.19547  -1180853.88245  20736262.7734                   20736262.0704
    154589.85247    121298.60345  22234870.8834                   22234870.1604
  -4493968.75047  -3498953.23245  22474695.9384                   22474695.6804
  -2318081.90646  -1806177.60443  23728716.7974                   23728718.0744
  -3614488.21947  -2798106.36946  20060592.8984                   20060591.5634
   3131793.83247   2427943.63244  22442216.6094                   22442214.1884
  -5053639.48047  -3918335.58846  21382524.9534                   21382522.3134
   3361189.08645   2611795.47843  24261177.3204                   24261179.2814
   -563266.67647   -434928.18746  20017207.1484                   20017203.7814
  -2143292.88346  -1650150.10843  24520141.7114                   24520141.7544
 11  8 11 16 25 30.0000000  0 10G03G06G07G10G13G16G19G20G23G08
  -1578212.29347  -1220411.89445  20726602.0314                   20726601.6954
    132192.96547    103846.46445  22230609.2974                   22230608.1024
  -4617036.52346  -3594850.17345  22451276.8134                   22451275.8834
  -2387326.57446  -1860134.49743  23715540.5084                   23715540.9534
  -3707779.13347  -2870800.60046  20042840.7194                   20042838.7384
   3153761.85947   2445061.53444  22446396.7114                   22446394.6484
  -5175170.92647  -4013035.38046  21359398.8284                   21359395.5004
   3382240.76246   2628199.24743  24265184.6484                   24265185.7194
   -598105.42247   -462075.28546  20010577.5004                   20010574.2704
  -2274626.19946  -1752487.65743  24495149.2814                   24495149.8404
 11  8 11 16 26  0.0000000  0 10G03G06G07G10G13G16G19G20G23G08
  -1628705.61747  -1259757.36945  20716993.6804                   20716993.4264
    109952.55947     86516.25945  22226376.8914                   22226376.5084
  -4740441.71947  -3691010.04645  22427794.1334                   22427793.2624
  -2456431.16046  -1913982.26743  23702390.3204                   23702390.8754
  -3800906.82847  -2943367.64746  20025119.1254                   20025117.5164
   3175477.08247   2461982.43644  22450528.7814                   22450527.1294
  -5296581.70747  -4107641.16546  21336294.3204                   21336291.6724
   3402836.57446   2644247.82243  24269103.5554                   24269105.1414
   -632739.24647   -489062.70546  20003987.0394                   20003983.4694
  -2406371.13346  -1855145.99643  24470079.0554                   24470079.4534
 11  8 11 16 26 30.0000000  0 10G03G06G07G10G13G16G19G20G23G08
  -1678916.31248  -1298882.60645  20707439.0234                   20707438.2814
     87877.69547     69315.05044  22222175.6024                   22222175.5124
  -4864173.73847  -3787424.57845  22404248.6954                   22404247.3674
  -2525386.23846  -1967713.53843  23689268.3364                   23689269.1094
  -3893859.09047  -3015797.99646  20007430.6644                   20007429.1604
   3196947.52747   2478712.60744  22454614.5314                   22454613.3634
  -5417858.75847  -4202142.74446  21313216.3134                   21313213.2544
   3422984.44946   2659947.30943  24272937.2584                   24272938.9924
   -667158.12547   -515882.63846  19997437.0784                   19997434.2344
  -2538517.86746  -1958117.45643  24444933.1094                   24444933.3204
 11  8 11 16 27  0.0000000  0 10G03G06G07G10G13G16G19G20G23G08
   -153414.35948   -110179.81445  20997732.3204                   20997731.6054
   1641396.27047   1279848.98344  22517801.0784                   22517800.1884
  -3412799.15247  -2656483.33245  22680435.7894                   22680434.7424
  -1018761.69946   -793720.43843  23975970.0084                   23975970.6134
  -2411202.78547  -1860481.40346  20289570.7974                   20289569.0634
   4793599.24247   3722856.74744  22758446.9924                   22758446.3874
  -3963566.75047  -3068928.13346  21589958.7584                   21589955.7424
   5018109.72346   3902901.88743  24576480.4384                   24576481.1454
    874067.14148    685072.09546  20290722.6024                   20290719.6214
  -1095633.32046   -833791.78943  24719503.2424                   24719504.8204
 11  8 11 16 27 30.0000000  0 10G03G06G07G10G13G16G19G20G23G08
   -203041.57848   -148850.39645  20988288.4844                   20988288.3714
   1619667.72347   1262917.62145  22513665.8834                   22513665.6994
  -3537163.91847  -2753390.92745  22656770.4224                   22656769.2854
  -1087400.08646   -847204.89643  23962908.6954                   23962908.7854
  -2503779.83647  -1932619.37346  20271954.1334                   20271952.5904
   4814593.40247   3739215.77744  22762442.6414                   22762441.0664
  -4084549.23447  -3163200.16146  21566936.5784                   21566933.6334
   5037373.65646   3917912.61643  24580145.9304                   24580147.7854
    840096.47347    658601.41846  20284258.5634                   20284255.3834
  -1228564.45346   -937374.37943  24694208.2584                   24694208.4414
 11  8 11 16 28  0.0000000  0 10G03G06G07G10G13G16G19G20G23G08
   -252360.09848   -187280.43845  20978903.4694                   20978902.8984
   1598127.88747   1246133.33644  22509567.0164                   22509566.5704
  -3661827.41447  -2850531.27345  22633047.5004                   22633046.3874
  -1155863.58246   -900553.09243  23949879.8134                   23949881.1094
  -2596148.88347  -2004595.25846  20254377.0554                   20254375.1954
   4835363.77047   3755400.42744  22766394.7344                   22766393.8754
  -4205362.88747  -3257340.62846  21543946.1484                   21543943.7234
   5056209.48046   3932589.70443  24583730.5314                   24583732.4454
    806367.05147    632318.73446  20277840.1954                   20277836.6764
  -1361870.53546  -1041249.30043  24668840.8054                   24668841.3134
 11  8 11 16 28 30.0000000  0 10G03G06G07G10G13G16G19G20G23G08
   -301360.96947   -225462.95345  20969579.1174                   20969578.3404
   1576784.62147   1229502.21344  22505505.5164                   22505504.9494
  -3786779.73447  -2947896.70745  22609270.0004                   22609268.9694
  -1224144.18746   -953758.80643  23936886.7584                   23936887.8834
  -2688299.10947  -2076400.62746  20236841.1024                   20236839.3914
   4855917.16847   3771416.03344  22770306.2974                   22770304.9144
  -4325996.12147  -3351340.54246  21520990.6884                   21520987.7584
   5074624.12146   3946938.61342  24587234.2734                   24587235.9304
    772887.82447    606230.99946  20271468.7194                   20271465.5394
  -1495542.45346  -1145409.08743  24643404.0554                   24643404.9494
 11  8 11 16 29  0.0000000  0 10G03G06G07G10G13G16G19G20G23G08
   -350035.64548   -263391.29246  20960316.6724                   20960315.8094
   1555646.19547   1213030.70945  22501483.1484                   22501482.6644
  -3912011.04747  -3045479.50245  22585439.1954                   22585438.2034
  -1292233.17646  -1006815.21443  23923929.7814                   23923930.7734
  -2780219.06247  -2148026.56146  20219349.1484                   20219347.9774
   4876261.17647   3787268.47544  22774177.5474                   22774176.2424
  -4446436.89147  -3445190.46246  21498071.8754                   21498068.6604
   5092624.63346   3960964.82343  24590660.6954                   24590661.6334
    739667.96947    580345.38446  20265147.2814                   20265143.9264
  -1629571.09846  -1249846.97743  24617899.1414                   24617900.0984
 11  8 11 16 29 30.0000000  0 10G03G06G07G10G13G16G19G20G23G08
   -398372.28948   -301056.23145  20951118.6724                   20951117.5864
   1534723.39547   1196727.19645  22497501.1954                   22497500.6374
  -4037508.62147  -3143269.78945  22561557.3524                   22561556.2664
  -1360118.70346  -1059713.01143  23911011.5704                   23911012.0164
  -2871894.85547  -2219462.25446  20201903.9614                   20201902.3244
   4896406.23847   3802965.87344  22778010.8594                   22778009.5944
  -4566670.15647  -3538878.69446  21475191.8444                   21475189.2074
   5110220.75845   3974675.87542  24594008.6724                   24594010.6844
    706719.09847    554670.91046  20258877.2344                   20258874.1134
  -1763944.19946  -1354553.09043  24592329.0704                   24592329.4924
 11  8 11 16 30  0.0000000  0 10G03G06G07G10G13G16G19G20G23G08
   -446359.94948   -338449.23045  20941987.0474                   20941986.5234
   1514026.07047   1180599.38645  22493562.8364                   22493562.5594
  -4163260.64147  -3241258.34045  22537627.5084                   22537626.2194
  -1427790.43046  -1112444.32943  23898134.3364                   23898134.8094
  -2963313.25047  -2290697.38346  20184507.4614                   20184506.3594
   4916361.42647   3818515.34244  22781808.4534                   22781807.0554
  -4686682.57047  -3632394.84446  21452354.7274                   21452351.5944
   5127421.59845   3988078.99242  24597282.3834                   24597283.4884
    674052.20348    529216.15846  20252661.0314                   20252657.7854
  -1898650.73846  -1459519.26443  24566694.5554                   24566695.0634
 11  8 11 16 30 30.0000000  0 10G03G06G07G10G13G16G19G20G23G08
   -493992.32048   -375565.38045  20932922.3914                   20932921.7624
   1493559.55147   1164651.43444  22489668.6174                   22489667.7114
  -4289259.91847  -3339439.57745  22513650.9224                   22513650.3634
  -1495242.62946  -1165004.47443  23885298.9454                   23885298.8404
  -3054466.07447  -2361725.54246  20167161.6564                   20167160.2934
   4936131.21547   3833920.33144  22785570.6414                   22785569.1484
  -4806464.77347  -3725731.62046  21429560.5004                   21429558.0394
   5144231.36345   4001177.33242  24600481.2274                   24600482.4414
    641673.49248    503985.96646  20246499.3054                   20246496.3444
  -2033684.06246  -1564739.93143  24540997.7734                   24540998.7384
 11  8 11 16 31  0.0000000  0 10G03G06G07G10G13G16G19G20G23G08
   -541263.05947   -412399.73445  20923926.8594                   20923926.5164
   1473329.46547   1148887.72245  22485818.6564                   22485818.5824
  -4415498.99247  -3437807.67545  22489629.0004                   22489627.4454
  -1562468.98846  -1217388.69143  23872506.0394                   23872505.9844
  -3145344.28547  -2432539.74946  20149868.5314                   20149866.4924
   4955720.75847   3849184.87744  22789298.4064                   22789296.9414
  -4926006.96147  -3818881.35946  21406812.4454                   21406809.6174
   5160654.83646   4013974.65642  24603606.6024                   24603607.9144
    609589.76248    478985.62246  20240394.2974                   20240391.5354
  -2169037.46146  -1670210.06143  24515241.1724                   24515241.7584
 11  8 11 16 31 30.0000000  0 10G03G06G07G10G13G16G19G20G23G08
   -588169.19147   -448949.97545  20915001.4774                   20915000.4144
   1453337.77347   1133309.74844  22482014.4224                   22482014.0864
  -4541974.07847  -3536359.67345  22465560.3134                   22465559.4924
  -1629466.77346  -1269594.79043  23859756.1884                   23859757.2424
  -3235943.06247  -2503136.20146  20132627.9064                   20132626.4734
   4975131.36347   3864310.00244  22792991.7424                   22792990.4804
  -5045303.53947  -3911839.72246  21384110.7814                   21384108.5634
   5176693.43846   4026472.12542  24606658.9144                   24606660.5164
    577803.95748    454217.43846  20234345.9224                   20234342.4734
  -2304707.57446  -1775926.93442  24489424.8914                   24489424.5124
 11  8 11 16 32  0.0000000  0 10G03G06G07G10G13G16G19G20G23G08
   -634711.78947   -485216.94445  20906144.5704                   20906143.4884
   1433582.66847   1117916.14845  22478255.3674                   22478255.1564
  -4668685.08647  -3635095.47845  22441448.2344                   22441446.9574
  -1696237.37546  -1321623.86643  23847049.9614                   23847051.1374
  -3326260.96547  -2573513.78946  20115441.2814                   20115439.4694
   4994360.57047   3879293.78044  22796651.3364                   22796649.7234
  -5164352.25447  -4004604.92446  21361457.0474                   21361454.1954
   5192343.90246   4038667.16042  24609637.2584                   24609639.1374
    546315.11347    429680.65346  20228353.9614                   20228350.7894
  -2440695.00046  -1881891.03542  24463546.2424                   24463546.4184
 11  8 11 16 32 30.0000000  0 10G03G06G07G10G13G16G19G20G23G08
   -680890.29747   -521200.21445  20897357.1804                   20897355.8914
   1414063.77747   1102706.58544  22474540.7894                   22474541.1484
  -4795630.15647  -3734013.69945  22417291.5634                   22417290.2624
  -1762780.55946  -1373475.74343  23834387.7734                   23834389.0314
  -3416295.31247  -2643670.43946  20098308.0394                   20098306.6174
   5013407.64847   3894135.61244  22800275.8364                   22800274.3014
  -5283149.36747  -4097174.10346  21338850.6024                   21338847.8984
   5207605.37546   4050559.02342  24612541.4304                   24612542.5824
    515124.17247    405375.99646  20222418.2584                   20222415.0434
  -2576998.62946  -1988101.55843  24437608.8594                   24437609.3754
 11  8 11 16 33  0.0000000  0 10G03G06G07G10G13G16G19G20G23G08
   -726701.43748   -556897.20945  20888639.5394                   20888639.0474
   1394783.73447   1087683.16745  22470872.2814                   22470872.0664
  -4922804.80547  -3833110.77245  22393091.2504                   22393090.3094
  -1829093.31246  -1425148.03843  23821769.3204                   23821770.2624
  -3506040.29747  -2713601.59246  20081229.8834                   20081228.4144
   5032274.81347   3908837.29044  22803866.1484                   22803864.4884
  -5401688.64547  -4189542.35946  21316292.5634                   21316290.1054
   5222479.37146   4062148.97742  24615371.9534                   24615373.0594
    484234.40247    381306.02346  20216540.0554                   20216537.0234
  -2713614.24346  -2094555.24743  24411612.0004                   24411612.5864
 11  8 11 16 33 30.0000000  0 10G03G06G07G10G13G16G19G20G23G08
   -772153.82447   -592314.66545  20879990.1954                   20879989.0944
   1375732.73847   1072838.24644  22467246.6954                   22467246.6564
  -5050216.83647  -3932392.85045  22368845.7664                   22368844.6254
  -1895184.64146  -1476647.73743  23809192.1334                   23809193.1334
  -3595502.67647  -2783312.54146  20064206.0784                   20064204.3954
   5050951.79347   3923390.78044  22807420.2894                   22807418.8444
  -5519976.02047  -4281714.34446  21293783.4454                   21293780.8404
   5236955.51646   4073428.90843  24618126.9924                   24618128.7304
    453636.84047    357463.74346  20210717.8364                   20210714.4024
  -2850550.61746  -2201258.79043  24385553.3444                   24385553.3794
 11  8 11 16 34  0.0000000  0 10G03G06G07G10G13G16G19G20G23G08
   -817243.45747   -627449.47945  20871410.2424                   20871409.4654
   1356914.09447   1058174.30644  22463665.3674                   22463665.1884
  -5177860.93047  -4031855.74945  22344556.0084                   22344554.5434
  -1961051.03546  -1527972.26343  23796658.4144                   23796659.6524
  -3684676.08247  -2852798.31546  20047237.0474                   20047235.7074
   5069441.18447   3937798.08844  22810938.6414                   22810937.5824
  -5638004.08647  -4373684.25046  21271323.8054                   21271321.1254
   5251036.39146   4084400.80942  24620806.7584                   24620808.3714
    423335.88748    333852.57546  20204951.8204                   20204948.4774
  -2987802.91046  -2308208.60243  24359434.8134                   24359435.9064
 11  8 11 16 34 30.0000000  0 10G03G06G07G10G13G16G19G20G23G08
   -861978.89147   -662308.26945  20862897.2814                   20862896.5474
   1338318.41847   1043684.14944  22460127.2734                   22460126.6454
  -5305744.39847  -4131505.19245  22320220.3594                   22320218.4694
  -2026701.37546  -1579128.29643  23784165.7974                   23784166.1644
  -3773566.75447  -2922063.76946  20030321.6804                   20030319.9144
   5087733.32247   3952051.62244  22814419.6644                   22814419.1524
  -5755778.55947  -4465456.54346  21248911.6644                   21248909.3244
   5264711.69946   4095056.70643  24623409.0084                   24623410.1054
    393322.79348    310465.72346  20199240.2504                   20199237.4344
  -3125378.84446  -2415410.52943  24333255.6954                   24333256.6334
 11  8 11 16 35  0.0000000  0 10G03G06G07G10G13G16G19G20G23G08
   -906360.04347   -696891.00745  20854451.8284                   20854450.8444
   1319945.33647   1029367.46645  22456630.5394                   22456631.0234
  -5433865.47347  -4231339.77645  22295839.1954                   22295838.1684
  -2092135.32846  -1630115.85943  23771714.5234                   23771714.5904
  -3862171.85247  -2991106.71346  20013460.6334                   20013459.3404
   5105827.32447   3966150.83144  22817862.9614                   22817862.3164
  -5873295.73447  -4557028.37146  21226548.8134                   21226546.5164
   5277980.30146   4105395.71843  24625934.4774                   24625935.3554
    363598.70348    287304.06946  20193584.0004                   20193580.9844
  -3263277.21946  -2522863.69143  24307013.8284                   24307014.4884
 11  8 11 16 35 30.0000000  0 10G03G06G07G10G13G16G19G20G23G08
   -950385.89547   -731196.87645  20846074.2344                   20846073.1294
   1301794.90247   1015224.25244  22453176.8984                   22453177.1994
  -5562222.10947  -4331357.89645  22271414.4304                   22271412.8674
  -2157352.16046  -1680934.20043  23759303.8204                   23759303.9884
  -3950488.26647  -3059924.70046  19996654.9774                   19996653.1844
   5123723.12946   3980095.59644  22821268.3364                   22821266.9064
  -5990551.64847  -4648396.61246  21204236.3364                   21204233.0274
   5290841.74646   4115417.47843  24628381.8054                   24628383.0634
    334164.35548    264368.18146  20187982.9614                   20187979.6524
  -3401496.73446  -2630567.12843  24280711.4844                   24280712.8834
 11  8 11 16 36  0.0000000  0 10G03G06G07G10G13G16G19G20G23G08
   -994062.38347   -765230.51845  20837762.7424                   20837761.7114
   1283860.42647   1001249.29245  22449763.9454                   22449763.8284
  -5690818.66047  -4431562.98845  22246942.7584                   22246941.7424
  -2222357.96146  -1731588.11843  23746932.4384                   23746933.7154
  -4038519.49647  -3128520.47446  19979902.8984                   19979901.2234
   5141413.47747   3993880.24944  22824634.7274                   22824632.7504
  -6107549.14547  -4739563.47346  21181972.3524                   21181969.0744
   5303288.72346   4125116.21243  24630750.2504                   24630753.1884
    305013.74247    241653.38446  20182435.7194                   20182432.4844
  -3540042.46546  -2738524.75343  24254347.0634                   24254348.0824
 11  8 11 16 36 30.0000000  0 10G03G06G07G10G13G16G19G20G23G08
  -1037384.92647   -798988.33645  20829518.2424                   20829517.8834
   1266145.87947    987445.71144  22446393.3914                   22446393.0474
  -5819649.07447  -4531950.30445  22222427.2894                   22222425.9804
  -2287148.67246  -1782074.36843  23734604.0634                   23734605.0164
  -4126258.66847  -3196888.67246  19963206.7274                   19963205.0044
   5158902.23447   4007507.82644  22827962.7974                   22827961.0164
  -6224280.41447  -4830522.87846  21159758.9384                   21159756.4534
   5315324.53146   4134494.51843  24633040.7424                   24633043.1174
    276151.80147    219163.53246  20176943.1564                   20176940.2664
  -3678908.85546  -2846732.25043  24227921.3204                   24227923.2154
 11  8 11 16 37  0.0000000  0 10G03G06G07G10G13G16G19G20G23G08
  -1080360.55947   -832475.84245  20821340.6564                   20821339.6414
   1248643.45747    973807.44244  22443062.6174                   22443062.7464
  -5948718.86747  -4632524.13745  22197865.9454                   22197864.9224
  -2351731.14546  -1832398.44043  23722313.7114                   23722314.3714
  -4213710.28947  -3265032.80246  19946564.9384                   19946563.4024
   5176181.27347   4020971.98344  22831250.9694                   22831249.5784
  -6340749.41847  -4921277.93446  21137595.8284                   21137592.8794
   5326940.83246   4143546.00243  24635250.9384                   24635253.3834
    247571.97747    196893.51146  20171504.9924                   20171501.6644
  -3818102.21546  -2955194.51043  24201434.2034                   24201435.7464
 11  8 11 16 37 30.0000000  0 10G03G06G07G10G13G16G19G20G23G08
  -1122988.66047   -865692.56445  20813228.6414                   20813227.7274
   1231352.81347    960334.19744  22439772.2344                   22439772.1484
  -6078026.09047  -4733282.99045  22173259.6334                   22173259.2424
  -2416105.39146  -1882560.27843  23710064.4694                   23710065.0864
  -4300871.94147  -3332950.97146  19929978.7034                   19929976.9104
   5193249.86747   4034272.17244  22834498.0864                   22834498.0434
  -6456952.66047  -5011825.91046  21115482.8444                   21115479.9454
   5338136.58646   4152269.70943  24637382.1804                   24637383.8834
    219274.46547    174843.46546  20166119.7894                   20166117.1764
  -3957621.24246  -3063910.56043  24174884.2344                   24174885.2934
 11  8 11 16 38  0.0000000  0 10G03G06G07G10G13G16G19G20G23G08
  -1165266.54747   -898636.36245  20805183.2894                   20805182.7154
   1214276.16047    947027.66944  22436522.2344                   22436522.4384
  -6207566.23047  -4834223.35445  22148608.9304                   22148608.2194
  -2480268.52046  -1932557.50843  23697854.3984                   23697855.3164
  -4387737.57447  -3400638.48446  19913449.0864                   19913447.2154
   5210110.18846   4047410.01844  22837707.0474                   22837706.0084
  -6572883.70747  -5102161.77346  21093421.9924                   21093418.9574
   5348913.46945   4160667.02342  24639432.1724                   24639434.4804
    191262.73848    153016.10846  20160789.8524                   20160787.0824
  -4097461.99246  -3172877.21743  24148273.7114                   24148274.5594
 11  8 11 16 38 30.0000000  0  9G03G06G07G10G13G16G19G23G08
    368228.68847    296294.98745  21096997.7504                   21096997.3484
   2772834.68847   2161488.82144  22733106.0474                   22733106.7894
  -4761912.21547  -3707739.69945  22423707.6644                   22423706.5634
   -968797.18047   -754787.66043  23985478.4304                   23985478.9414
  -2898881.10247  -2240490.59646  20196768.6644                   20196766.9304
   6802182.18847   5287985.53244  23140668.4304                   23140667.5164
  -5113114.51247  -3964679.26646  21371206.6724                   21371204.1994
   1738958.92648   1359013.10246  20455306.5084                   20455303.0354
  -2662197.78946  -2054489.49143  24421394.6564                   24421396.0394
 11  8 11 16 39  0.0000000  0  9G03G06G07G10G13G16G19G23G08
    326655.50447    263900.29945  21089086.6954                   21089086.4384
   2756188.05147   2148517.39044  22729939.4534                   22729938.8954
  -4891909.63347  -3809036.35445  22398970.0474                   22398968.8014
  -1032534.67646   -804453.21843  23973349.4614                   23973350.3404
  -2985144.69147  -2307708.98446  20180353.4534                   20180352.0864
   6818627.30947   5300799.87344  23143797.9224                   23143797.1764
  -5228487.92247  -4054580.61146  21349251.7814                   21349249.1684
   1711522.96547   1337634.40046  20450085.6644                   20450082.6054
  -2802675.30146  -2163952.45743  24394663.2664                   24394663.4264
 11  8 11 16 39 30.0000000  0  9G03G06G07G10G13G16G19G23G08
    285444.12547    231787.52045  21081244.3914                   21081244.0274
   2739764.35947   2135719.66444  22726814.1724                   22726813.4064
  -5022124.21147  -3910502.23345  22374190.9694                   22374190.3714
  -1096050.70346   -853946.26943  23961262.4144                   23961262.9804
  -3071094.40247  -2374682.79846  20163997.6724                   20163996.3244
   6834872.56647   5313458.46544  23146889.1174                   23146887.6484
  -5343568.71947  -4144253.94446  21327352.5944                   21327349.7584
   1684384.23048   1316487.30346  20444921.2894                   20444918.3594
  -2943460.84046  -2273655.38443  24367871.8834                   24367873.2734
 11  8 11 16 40  0.0000000  0  9G03G06G07G10G13G16G19G23G08
    244600.48047    199961.31345  21073472.3594                   21073471.7664
   2723569.31647   2123100.10744  22723732.0394                   22723731.1804
  -5152547.79347  -4012130.99545  22349372.6564                   22349371.2194
  -1159339.00046   -903261.85443  23949219.2664                   23949220.9734
  -3156721.63347  -2441405.34446  20147703.4224                   20147701.9024
   6850923.33647   5325965.51244  23149943.4534                   23149942.2464
  -5458347.61747  -4233692.03446  21305511.1414                   21305508.2584
   1657549.43848   1295577.04646  20439814.5164                   20439811.8054
  -3084546.80546  -2383592.41143  24341024.4924                   24341025.2074
 11  8 11 16 40 30.0000000  0  9G03G06G07G10G13G16G19G23G08
    204122.47347    168420.00645  21065769.6174                   21065768.9924
   2707600.19147   2110656.59844  22720693.3284                   22720693.3164
  -5283180.92247  -4113923.02545  22324513.2034                   22324512.2894
  -1222401.93446   -952401.84243  23937218.6644                   23937219.9694
  -3242026.23047  -2507876.46946  20131470.7034                   20131469.0944
   6866777.00047   5338318.97044  23152960.2584                   23152959.5164
  -5572823.32047  -4322893.85446  21283727.3594                   21283724.2854
   1631016.21547   1274901.76546  20434765.5784                   20434762.5984
  -3225934.39146  -2493764.45943  24314119.4224                   24314120.2234
 11  8 11 16 41  0.0000000  0  9G03G06G07G10G13G16G19G23G08
    164002.29347    137157.51845  21058135.4384                   21058134.6604
   2691848.52746   2098382.54944  22717695.4224                   22717695.8594
  -5414029.44547  -4215882.88245  22299613.7504                   22299612.5234
  -1285247.28946  -1001372.25443  23925259.1414                   23925260.1914
  -3327013.38747  -2574100.24346  20115298.0554                   20115296.7234
   6882425.06646   5350512.19644  23155938.5314                   23155937.0124
  -5687000.53147  -4411863.10146  21262000.2584                   21261996.9614
   1604777.19947   1254455.73846  20429772.5864                   20429769.6524
  -3367629.85246  -2604176.47543  24287154.9614                   24287155.6884
 11  8 11 16 41 30.0000000  0  9G03G06G07G10G13G16G19G23G08
    124238.18447    106172.49745  21050568.1334                   21050567.0274
   2676311.78146   2086275.93744  22714739.4384                   22714739.2774
  -5545093.59047  -4318010.76345  22274673.4064                   22274672.4804
  -1347877.30146  -1050174.84843  23913341.8674                   23913343.0664
  -3411682.71147  -2640076.35746  20099186.0314                   20099184.4224
   6897864.76246   5362543.10044  23158876.5554                   23158875.0314
  -5800877.93747  -4500598.72446  21240329.6724                   21240326.5204
   1578830.46147   1234237.47546  20424835.2504                   20424832.0784
  -3509634.62546  -2714829.50042  24260133.0004                   24260132.4964
 11  8 11 16 42  0.0000000  0  9G03G06G07G10G13G16G19G23G08
     84828.96547     75463.98845  21043068.9534                   21043068.2034
   2660987.91047   2074335.23844  22711823.2114                   22711822.6214
  -5676372.76647  -4420306.19145  22249691.6254                   22249690.1374
  -1410293.43446  -1098810.87843  23901463.8984                   23901464.0084
  -3496032.84447  -2705803.73546  20083134.7274                   20083133.1254
   6913094.20347   5374410.14344  23161774.1484                   23161773.4384
  -5914453.72347  -4589099.31146  21218716.6884                   21218714.7074
   1553175.35547   1214246.45346  20419953.1174                   20419950.5664
  -3651948.62546  -2825723.45742  24233051.5004                   24233050.8404
 11  8 11 16 42 30.0000000  0  9G03G06G07G10G13G16G19G23G08
     45765.26647     45024.72745  21035635.0864                   21035634.1094
   2645867.29747   2062552.94244  22708945.6024                   22708945.5784
  -5807874.30547  -4522774.89745  22224667.7504                   22224666.1764
  -1472505.04346  -1147287.45843  23889625.9454                   23889627.0784
  -3580070.68747  -2771287.77746  20067142.5634                   20067141.0124
   6928103.98046   5386106.01044  23164630.5084                   23164629.5474
  -6027733.83647  -4677369.52246  21197160.5634                   21197157.5234
   1527802.72348   1194475.52546  20415125.0394                   20415122.1684
  -3794579.28546  -2936864.18543  24205909.5164                   24205910.4414
 11  8 11 16 43  0.0000000  0  9G03G06G07G10G13G16G19G23G08
      7044.58247     14852.75645  21028267.0084                   21028266.6134
   2630946.69147   2050926.48744  22706106.4844                   22706106.1024
  -5939598.87547  -4625417.37845  22199601.4924                   22199600.1024
  -1534514.74647  -1195606.74043  23877825.9304                   23877826.5234
  -3663796.85947  -2836528.95746  20051210.2664                   20051208.8364
   6942890.76246   5397628.08344  23167444.2734                   23167443.3714
  -6140717.70747  -4765408.89846  21175660.0554                   21175657.4064
   1502710.08247   1174922.78546  20410349.9534                   20410346.9804
  -3937528.04746  -3048252.83343  24178706.7974                   24178707.9654
 11  8 11 16 43 30.0000000  0  9G03G06G07G10G13G16G19G23G08
    -31335.55548    -15053.89545  21020963.2814                   21020962.8404
   2616223.07847   2039453.54144  22703304.5004                   22703304.2704
  -6071546.97747  -4728234.04345  22174492.0634                   22174491.0904
  -1596325.14146  -1243770.71643  23866063.3754                   23866063.9064
  -3747210.65247  -2901526.73546  20035336.9224                   20035335.4414
   6957451.25046   5408973.86544  23170216.3134                   23170214.1524
  -6253404.31247  -4853216.63446  21154216.1804                   21154213.7934
   1477895.57447   1155586.76246  20405627.7274                   20405625.1844
  -4080796.27846  -3159890.34743  24151443.9224                   24151444.8484
 11  8 11 16 44  0.0000000  0  9G03G06G07G10G13G16G19G23G08
    -69368.04347    -44689.62245  21013725.9224                   21013725.2234
   2601702.81347   2028139.02044  22700541.3524                   22700541.0204
  -6203709.59047  -4831217.88145  22149342.4694                   22149341.4774
  -1657929.18746  -1291773.92843  23854341.2344                   23854341.8554
  -3830303.00047  -2966274.02546  20019525.2664                   20019523.5314
   6971792.13346   5420148.52044  23172944.9614                   23172943.6524
  -6365783.77047  -4940785.04746  21132831.6884                   21132828.8054
   1453365.85547   1136472.66246  20400960.2344                   20400957.2114
  -4224376.04746  -3271770.57043  24124122.0784                   24124122.1524
 11  8 11 16 44 30.0000000  0  9G03G06G07G10G13G16G19G23G08
   -107052.86347    -74054.43645  21006554.9694                   21006554.3054
   2587385.43047   2016982.60744  22697817.5314                   22697816.5634
  -6336084.71947  -4934367.29945  22124152.4454                   22124151.3164
  -1719326.98446  -1339616.40443  23842657.4454                   23842658.3094
  -3913071.59047  -3030769.04446  20003774.7814                   20003773.2344
   6985913.12546   5431151.84244  23175632.2114                   23175630.4884
  -6477852.61347  -5028111.39946  21111505.3054                   21111503.0204
   1429121.54748   1117580.96846  20396346.6954                   20396343.7384
  -4368265.43746  -3383892.12943  24096740.8834                   24096741.7584
 11  8 11 16 45  0.0000000  0  9G03G06G07G10G13G16G19G23G08
   -144380.97748   -103141.31545  20999451.5234                   20999450.6914
   2573279.30147   2005990.80444  22695132.8914                   22695132.8874
  -6468661.34447  -5037673.74145  22098923.4844                   22098922.8054
  -1780509.67646  -1387291.27943  23831014.1024                   23831015.6334
  -3995504.81247  -3095002.74446  19988088.3134                   19988086.7854
   6999822.69946   5441990.40044  23178279.0394                   23178277.5314
  -6589598.85547  -5115186.37446  21090241.1094                   21090238.1604
   1405171.83647   1098918.82146  20391788.9694                   20391786.4224
  -4512454.05546  -3496246.80843  24069301.4924                   24069302.5634
 11  8 11 16 45 30.0000000  0  9G03G06G07G10G13G16G19G23G08
   -181344.91447   -131944.39245  20992417.9144                   20992416.8444
   2559391.43047   1995169.08344  22692489.8284                   22692489.8054
  -6601429.80947  -5141129.67445  22073659.3284                   22073657.8754
  -1841469.97346  -1434792.84843  23819415.3284                   23819414.7814
  -4077592.57047  -3158967.24646  19972467.6804                   19972466.0554
   7013527.99246   5452669.77344  23180887.3674                   23180886.0124
  -6701011.44147  -5202001.37646  21069039.8594                   21069036.9734
   1381524.53547   1080492.29646  20387289.5474                   20387286.5394
  -4656933.32046  -3608828.02043  24041808.8754                   24041809.3054
 11  8 11 16 46  0.0000000  0  9G03G06G07G10G13G16G19G23G08
   -217939.23047   -160459.48045  20985453.8284                   20985453.0514
   2545726.50447   1984521.09944  22689889.0944                   22689889.3054
  -6734382.92647  -5244729.47445  22048358.9064                   22048357.4534
  -1902202.53546  -1482116.97643  23807857.3914                   23807857.3134
  -4159327.50047  -3222656.82346  19956913.8984                   19956912.6414
   7027033.96147   5463193.90544  23183456.8754                   23183455.6764
  -6812081.98847  -5288549.83646  21047903.6884                   21047900.6134
   1358184.96148   1062305.59446  20382847.7424                   20382844.7974
  -4801696.28546  -3721630.25743  24014261.5944                   24014261.2974
 11  8 11 16 46 30.0000000  0  9G03G06G07G10G13G16G19G23G08
   -254159.64147   -188683.18245  20978561.3754                   20978560.6094
   2532288.47746   1974049.87844  22687331.8834                   22687332.2544
  -6867513.94147  -5348467.91145  22023024.7034                   22023023.4774
  -1962703.31246  -1529260.44943  23796344.4454                   23796345.1724
  -4240702.60247  -3286066.00246  19941428.9924                   19941427.3874
   7040344.74646   5473565.91143  23185989.9144                   23185988.5124
  -6922803.25047  -5374826.14346  21026834.0704                   21026831.4774
   1335157.75048   1044362.27646  20378465.8914                   20378463.2304
  -4946737.10946  -3834648.98343  23986661.1414                   23986661.0124
 11  8 11 16 47  0.0000000  0  9G03G06G07G10G13G16G19G23G08
   -289993.36347   -216605.58545  20971742.7194                   20971742.0044
   2519089.27747   1963764.79644  22684820.4064                   22684820.3834
  -7000808.08247  -5452333.44745  21997659.8444                   21997658.8634
  -2022959.54746  -1576213.36443  23784877.5864                   23784878.5164
  -4321702.69547  -3349182.97146  19926015.3674                   19926013.5744
   7053472.48446   5483795.23643  23188488.1954                   23188486.8094
  -7033159.14847  -5460817.73446  21005834.0234                   21005831.8164
   1312455.75047   1026672.36846  20374146.1644                   20374143.1484
  -5092041.93746  -3947873.44743  23959010.4384                   23959010.4924
 11  8 11 16 47 30.0000000  0  9G03G06G07G10G13G16G19G23G08
   -325434.16447   -244221.82145  20964998.7664                   20964997.4184
   2506134.79347   1953670.39244  22682355.3204                   22682355.4064
  -7134256.90647  -5556319.55245  21972264.8134                   21972264.2464
  -2082965.16846  -1622971.08143  23773458.8834                   23773460.1954
  -4402319.30947  -3412001.12546  19910674.2894                   19910672.5234
   7066423.35246   5493886.77543  23190952.3524                   23190950.4884
  -7143140.09847  -5546517.16146  20984905.7274                   20984902.8794
   1290085.35548   1009240.84346  20369888.9614                   20369886.5394
  -5237602.36746  -4061297.11243  23931311.2034                   23931311.3524
 11  8 11 16 48  0.0000000  0  9G03G06G07G10G13G16G19G23G08
   -360477.80547   -271528.56245  20958329.9144                   20958329.3164
   2493428.98846   1943769.72544  22679937.8914                   22679937.4654
  -7267853.64847  -5660420.89745  21946842.5784                   21946841.3244
  -2142715.79346  -1669530.05043  23762089.1564                   23762089.8444
  -4482545.59447  -3474515.13046  19895407.7894                   19895406.0554
   7079201.74246   5503843.93643  23193384.3204                   23193383.0164
  -7252738.79747  -5631918.74346  20964049.6024                   20964047.0434
   1268051.30947    992071.41346  20365695.8984                   20365693.2894
  -5383412.96546  -4174915.72343  23903564.5234                   23903564.8714
 11  8 11 16 48 30.0000000  0 10G03G06G07G10G13G16G19G28G23G08
   -395120.26247   -298522.68245  20951737.2114                   20951737.0944
   2480975.50046   1934065.71744  22677568.1804                   22677567.4774
  -7401592.08247  -5764632.64345  21921393.0864                   21921392.0044
  -2202207.25846  -1715887.06443  23750768.0554                   23750769.7304
  -4562374.94147  -3536719.83546  19880217.1024                   19880215.1174
   7091811.15246   5513669.37444  23195783.9144                   23195782.5514
  -7361947.83647  -5717016.67746  20943267.7274                   20943264.9884
   4458175.08616                  24512626.375
   1246358.35248    975167.76146  20361568.1254                   20361565.4264
  -5529467.73446  -4288724.54243  23875771.0314                   23875771.2304
 11  8 11 16 49  0.0000000  0 10G03G06G07G10G13G16G19G28G23G08
   1146053.75447    902392.12945  21245013.0944                   21245012.4614
   4044187.71547   3152153.12344  22975037.9224                   22975037.4694
  -5960051.65247  -4641354.35945  22195708.3914                   22195707.7624
   -686023.89846   -534445.52243  24039288.1884                   24039289.6054
  -3066388.59847  -2371016.20346  20164893.9844                   20164892.0824
   8679665.05946   6750958.11244  23497942.8054                   23497941.2734
  -5895346.61347  -4574210.51846  21222352.5784                   21222349.8404
   5881268.457 6                  24783431.625
   2800420.62548   2186125.33746  20657296.2274                   20657293.1374
  -4100346.57046  -3175123.54043  24147723.4694                   24147723.9494
 11  8 11 16 49 30.0000000  0 10G03G06G07G10G13G16G19G28G23G08
   1112198.55947    876011.47445  21238571.0634                   21238569.9924
   4032221.35247   3142828.70044  22972760.3674                   22972760.2814
  -6094082.16847  -4745793.71545  22170203.7974                   22170203.0984
   -745012.93446   -580410.95043  24028063.0864                   24028063.5234
  -3145432.32047  -2432608.72946  20149852.2584                   20149850.5084
   8691920.79346   6760507.95844  23500275.5864                   23500274.2504
  -6003782.46547  -4658705.95946  21201717.9454                   21201715.4184
   5728955.430 6                  24754447.461
   2779393.89848   2169740.84046  20653295.4614                   20653292.5824
  -4246900.73446  -3289321.55643  24119835.0004                   24119835.1564
 11  8 11 16 50  0.0000000  0 10G03G06G07G10G13G16G19G28G23G08
   1078740.81347    849940.50245  21232204.1804                   21232203.7734
   4020501.85247   3133696.60044  22970530.3444                   22970529.6254
  -6228251.11347  -4850340.94145  22144672.4224                   22144671.3874
   -803747.33646   -626178.08443  24016886.3834                   24016887.4024
  -3224076.02347  -2493889.55846  20134886.7194                   20134885.3094
   8704003.21146   6769922.79744  23502574.0864                   23502572.7234
  -6111822.94947  -4742893.35346  21181158.5944                   21181156.4884
   5576668.48846   4370843.71152  24725468.2664                   24725470.1334
   2758704.30148   2153619.02246  20649358.4144                   20649355.3594
  -4393697.94546  -3403708.93043  24091900.8754                   24091900.3054
 11  8 11 16 50 30.0000000  0 10G03G06G07G10G13G16G19G28G23G08
   1045695.10547    824190.59245  21225915.3444                   21225915.0474
   4009043.41847   3124767.93344  22968349.7344                   22968349.1414
  -6362541.85547  -4954983.07145  22119117.6334                   22119116.6454
   -862212.16846   -671735.20943  24005760.7734                   24005761.9264
  -3302302.54347  -2554845.30646  20120000.8134                   20119999.4734
   8715927.44946   6779214.34344  23504843.4144                   23504841.6374
  -6219450.16447  -4826758.69446  21160677.5164                   21160675.2344
   5424424.29346   4252211.86342  24696498.0784                   24696498.5904
   2738367.38348   2137772.04646  20645488.2344                   20645485.4144
  -4540721.80546  -3518272.87843  24063922.0004                   24063923.4534
 11  8 11 16 51  0.0000000  0 10G03G06G07G10G13G16G19G28G23G08
   1013060.87547    798761.31345  21219705.2664                   21219704.9964
   3997844.96147   3116041.86444  22966218.2584                   22966218.5704
  -6496951.89847  -5059718.19045  22093540.0004                   22093539.5394
   -920407.78146   -717082.43143  23994687.0474                   23994686.9804
  -3380109.84847  -2615474.39846  20105194.5474                   20105192.9264
   8727692.62546   6788381.93243  23507082.0944                   23507080.4144
  -6326661.66447  -4910300.11446  21140276.1414                   21140273.5634
   5272224.68845   4133614.86742  24667534.5554                   24667536.3094
   2718382.46548   2122199.34746  20641685.6254                   20641682.3284
  -4687971.36346  -3633012.71643  24035901.6804                   24035902.1024
 11  8 11 16 51 30.0000000  0 11G03G06G07G10G13G16G19G28G23G08G11
    980848.09847    773660.44845  21213575.7034                   21213575.5274
   3986916.12547   3107525.88044  22964138.7344                   22964138.9494
  -6631469.46547  -5164537.08445  22067942.5004                   22067941.2194
   -978324.73446   -762212.55443  23983665.7504                   23983665.7194
  -3457485.86747  -2675767.42146  20090470.3134                   20090468.9654
   8739308.65246   6797433.39244  23509292.3984                   23509291.0664
  -6433444.37947  -4993507.40046  21119955.8054                   21119953.5204
   5120081.71946   4015062.03942  24638582.1024                   24638583.1844
   2698759.73848   2106908.88246  20637951.1094                   20637948.1564
  -4835435.12546  -3747919.44543  24007840.5554                   24007840.5394
   6031147.09456   4720823.67953  24813177.9774                   24813179.9534
 11  8 11 16 52  0.0000000  0 11G03G06G07G10G13G16G19G28G23G08G11
    949044.40647    748878.32845  21207523.5314                   21207523.1994
   3976243.87547   3099209.78144  22962107.9614                   22962107.9414
  -6766104.07047  -5269447.15345  22042322.1724                   22042321.8914
  -1035975.58646   -807135.35843  23972695.1414                   23972694.9884
  -3534440.43447  -2735732.03046  20075826.4144                   20075824.3554
   8750763.30146   6806359.04244  23511472.5864                   23511471.6644
  -6539807.46547  -5076387.72546  21099715.8204                   21099713.2544
   4967985.21946   3896545.28542  24609640.0944                   24609640.6604
   2679486.88348   2091891.03046  20634283.8524                   20634281.2034
  -4983123.28946  -3863001.04743  23979735.9304                   23979736.5204
   5877010.41446   4600717.14643  24783847.1414                   24783848.8054
 11  8 11 16 52 30.0000000  0 11G03G06G07G10G13G16G19G28G23G08G11
    917654.42247    724418.60745  21201550.5084                   21201549.5664
   3965832.89547   3091097.31144  22960127.1644                   22960126.7034
  -6900848.51247  -5374442.81345  22016681.3284                   22016680.4224
  -1093355.45346   -851846.92243  23961775.6414                   23961776.2774
  -3610966.19147  -2795362.50746  20061263.7974                   20061262.2274
   8762061.50846   6815162.77944  23513622.0234                   23513621.1884
  -6645742.71547  -5158934.64646  21079557.1484                   21079554.4694
   4815942.12946   3778070.27043  24580706.2424                   24580707.7464
   2660569.16847   2077149.90746  20630684.0004                   20630681.2154
  -5131028.97746  -3978252.19443  23951590.8594                   23951591.6094
   5722571.11346   4480374.84143  24754458.7194                   24754460.4224
 11  8 11 16 53  0.0000000  0 11G03G06G07G10G13G16G19G28G23G08G11
    886681.25847    700283.68245  21195656.3134                   21195655.7774
   3955684.99647   3083189.79544  22958196.1174                   22958195.5864
  -7035697.56247  -5479519.95845  21991020.5864                   21991018.9144
  -1150461.87546   -896345.45143  23950908.5864                   23950910.3874
  -3687058.35947  -2854655.13546  20046784.2974                   20046782.5664
   8773206.01646   6823846.75943  23515742.9144                   23515741.8914
  -6751244.82847  -5241144.06946  21059480.4384                   21059477.7274
   4663957.06646   3659640.32743  24551785.3914                   24551786.0554
   2642009.37547   2062687.68546  20627152.0634                   20627149.2304
  -5279148.04746  -4093669.65243  23923404.0554                   23923404.4184
   5567836.35546   4359802.31843  24725013.8524                   24725014.8364
 11  8 11 16 53 30.0000000  0 11G03G06G07G10G13G16G19G28G23G08G11
    856132.68447    676479.59245  21189843.1254                   21189842.5124
   3945808.46947   3075493.77744  22956316.7274                   22956316.5824
  -7170640.26247  -5584670.10945  21965341.9384                   21965340.1214
  -1207286.01646   -940624.07443  23940095.8364                   23940096.5634
  -3762706.11747  -2913601.44946  20032388.5234                   20032387.1884
   8784205.30946   6832417.54243  23517836.6094                   23517835.0634
  -6856302.22747  -5323006.94646  21039488.4224                   21039486.5354
   4512040.62546   3541264.02943  24522875.1804                   24522877.1644
   2623816.10248   2048511.07546  20623690.2894                   20623686.7774
  -5427470.71546  -4209245.72243  23895178.9224                   23895179.2894
   5412818.30546   4239009.09343  24695513.6644                   24695515.4104
 11  8 11 16 54  0.0000000  0 11G03G06G07G10G13G16G19G28G23G08G11
    826016.69547    653012.56945  21184112.1564                   21184111.5474
   3936210.69147   3068014.96444  22954489.6954                   22954489.5474
  -7305666.19947  -5689885.09445  21939647.2734                   21939645.5904
  -1263820.38746   -984676.91043  23929337.8204                   23929338.7194
  -3837899.21947  -2972193.50346  20018080.1414                   20018078.6764
   8795067.32446   6840881.44043  23519903.2274                   23519902.2074
  -6960903.76647  -5404514.62246  21019583.2274                   21019580.7344
   4360203.05546   3422949.10242  24493981.1954                   24493984.1294
   2605997.47348   2034626.38546  20620299.3054                   20620296.6484
  -5575986.62146  -4324972.36243  23866918.5864                   23866917.6994
   5257529.00846   4118004.43842  24665963.6564                   24665964.8984
 11  8 11 16 54 30.0000000  0 11G03G06G07G10G13G16G19G28G23G08G11
    796331.48447    629881.23445  21178463.4144                   21178462.6254
   3926889.19547   3060751.37844  22952716.2974                   22952715.5434
  -7440774.88747  -5795164.57345  21913936.8984                   21913935.4304
  -1320067.14546  -1028505.54143  23918634.3134                   23918635.6254
  -3912637.51247  -3030431.16246  20003857.9064                   20003856.3244
   8805790.10946   6849236.82943  23521943.9144                   23521942.4654
  -7065048.32847  -5485666.20946  20999765.5784                   20999762.9924
   4208444.23046   3304695.57442  24465103.6254                   24465105.0744
   2588551.54748   2021032.09846  20616979.7424                   20616976.4304
  -5724695.79746  -4440849.57243  23838619.0784                   23838619.2584
   5101970.44146   3996789.94942  24636361.1644                   24636363.6094
 11  8 11 16 55  0.0000000  0 11G03G06G07G10G13G16G19G28G23G08G11
    767083.48447    607090.56445  21172897.6884                   21172897.0554
   3917850.10247   3053707.90444  22950996.4614                   22950995.7664
  -7575957.14847  -5900501.37845  21888212.3054                   21888211.3954
  -1376019.60246  -1072104.94643  23907986.8054                   23907987.9344
  -3986911.77747  -3088307.22246  19989724.2814                   19989722.2384
   8816380.71546   6857489.21343  23523959.2274                   23523957.8674
  -7168726.18447  -5566454.13046  20980036.3984                   20980034.0704
   4056773.09446   3186510.19043  24436240.7424                   24436242.3244
   2571484.74648   2007733.27046  20613731.9224                   20613728.4494
  -5873589.80546  -4556870.89143  23810285.2814                   23810286.0864
   4946153.51646   3875374.16842  24606710.2504                   24606711.8164
 11  8 11 16 55 30.0000000  0 11G03G06G07G10G13G16G19G28G23G08G11
    738274.46547    584641.97145  21167415.4774                   21167415.2234
   3909095.03147   3046885.74344  22949330.2424                   22949329.7584
  -7711208.12547  -6005891.70345  21862474.9064                   21862473.4844
  -1431675.85546  -1115473.42143  23897395.6644                   23897396.2074
  -4060717.97747  -3145818.57746  19975679.0944                   19975677.3914
   8826840.96146   6865639.99443  23525949.5784                   23525949.1524
  -7271932.75047  -5646874.80546  20960396.7814                   20960394.2814
   3905193.94146   3068396.77543  24407396.2344                   24407397.9024
   2554799.80947   1994731.96946  20610556.7734                   20610553.9964
  -6022664.91046  -4673033.22543  23781917.7034                   23781917.5784
   4790084.29746   3753761.79342  24577011.7034                   24577013.3984
 11  8 11 16 56  0.0000000  0 11G03G06G07G10G13G16G19G28G23G08G11
    709907.35247    562537.71545  21162016.7034                   21162016.7624
   3900626.48047   3040286.84344  22947718.3054                   22947718.2584
  -7846522.41447  -6111331.39045  21836725.2974                   21836724.0274
  -1487033.30546  -1158609.19143  23886861.9774                   23886862.1724
  -4134050.80147  -3202961.06046  19961724.1334                   19961722.6254
   8837174.27046   6873691.89843  23527915.5864                   23527915.1764
  -7374661.60947  -5726923.24946  20940847.9224                   20940845.5084
   3753711.55146   2950358.63243  24378570.0394                   24378571.7664
   2538499.63748   1982030.49646  20607454.9924                   20607452.2464
  -6171916.14846  -4789332.84543  23753515.2974                   23753516.3284
   4633769.78146   3631958.21142  24547265.8754                   24547267.6804
 11  8 11 16 56 30.0000000  0 11G03G06G07G10G13G16G19G28G23G08G11
    681987.41447    540781.92045  21156704.3754                   21156704.3524
   3892449.52047   3033915.12944  22946163.4694                   22946162.1484
  -7981891.81247  -6216814.01145  21810965.4384                   21810964.3244
  -1542086.53546  -1201507.83443  23876385.4774                   23876386.6914
  -4206902.47347  -3259728.61246  19947860.9534                   19947859.5864
   8847386.32846   6881649.30443  23529858.9224                   23529858.3714
  -7476904.36347  -5806592.91346  20921392.0554                   20921389.0904
   3602333.74246   2832401.89043  24349764.8134                   24349765.7854
   2522589.93848   1969633.28246  20604427.5234                   20604424.5744
  -6321335.90246  -4905763.77543  23725081.8204                   23725082.4344
   4477219.58646   3509971.10942  24517474.7734                   24517476.8484
 11  8 11 16 57  0.0000000  0 11G03G06G07G10G13G16G19G28G23G08G11
    654521.00447    519379.51345  21151477.5634                   21151477.4614
   3884569.55947   3027774.86244  22944663.4144                   22944663.1294
  -8117307.39547  -6322332.62945  21785196.4844                   21785195.7154
  -1596829.29746  -1244164.61043  23865968.5004                   23865969.3324
  -4279264.83647  -3316114.89146  19934090.9454                   19934089.6214
   8857483.63346   6889517.28843  23531780.8364                   23531779.2274
  -7578652.03147  -5885876.78546  20902030.1644                   20902027.1684
   3451068.79746   2714533.13543  24320979.8134                   24320981.4614
   2507076.69148   1957544.99946  20601475.2974                   20601472.5664
  -6470915.98046  -5022319.55343  23696618.7114                   23696617.9534
   4320444.03946   3387808.38342  24487641.8524                   24487644.0394
 11  8 11 16 57 30.0000000  0 11G03G06G07G10G13G16G19G28G23G08G11
    627506.52047    498329.26345  21146336.6724                   21146336.4844
   3876985.19547   3021864.91144  22943219.8444                   22943220.2974
  -8252767.80547  -6427886.18845  21759419.7114                   21759418.0274
  -1651263.02046  -1286580.43043  23855610.0004                   23855610.6644
  -4351136.81248  -3372119.05646  19920414.2584                   19920412.4384
   8867465.13346   6897295.01643  23533680.1024                   23533679.2114
  -7679902.83648  -5964773.49746  20882762.7034                   20882760.3134
   3299917.30146   2596752.72043  24292216.6254                   24292218.2154
   2491958.83248   1945764.80646  20598598.6094                   20598595.9064
  -6620655.77346  -5138999.85243  23668123.6414                   23668123.4064
   4163446.25046   3265472.40642  24457766.1254                   24457767.9454
 11  8 11 16 58  0.0000000  0 11G03G06G07G10G13G16G19G28G23G08G11
    600944.08247    477631.22645  21141282.3754                   21141281.3244
   3869696.20347   3016185.15444  22941833.1024                   22941833.2464
  -8388270.01247  -6533472.30745  21733634.4614                   21733633.0984
  -1705387.80146  -1328755.71143  23845309.9694                   23845311.1024
  -4422515.89847  -3427739.14246  19906831.0634                   19906829.4924
   8877331.13346   6904982.79443  23535558.1334                   23535557.0744
  -7780653.50047  -6043280.50846  20863590.4774                   20863587.8524
   3148882.17246   2479063.13243  24263475.0944                   24263477.4964
   2477236.72748   1934292.98446  20595797.0944                   20595794.6334
  -6770553.09546  -5255802.84143  23639598.6884                   23639599.4884
   4006230.53946   3142966.68842  24427848.7114                   24427851.2774
 11  8 11 16 58 30.0000000  0 11G03G06G07G10G13G16G19G28G23G08G11
   2150241.04747   1684875.59345  21436103.9144                   21436103.6684
   5438109.11747   4238325.06944  23240291.7504                   23240292.3284
  -6948400.09447  -5411495.72145  22007632.1954                   22007630.7504
   -183795.25046   -143099.16943  24134860.1024                   24134860.8324
  -2917990.51647  -2255381.72346  20193132.5704                   20193131.3094
  10462488.62546   8140170.41243  23837203.0554                   23837202.7504
  -6305491.10547  -4893803.28846  21144304.5634                   21144301.8674
   4573377.36346   3589059.41743  24534547.4924                   24534549.1254
   4038317.84448   3150719.78746  20892860.9774                   20892858.1724
  -5345194.34446  -4145133.66843  23910836.2194                   23910835.8134
   5424213.24646   4247888.32842  24697683.1644                   24697683.4774
 11  8 11 16 59  0.0000000  0 11G03G06G07G10G13G16G19G28G23G08G11
   2124552.63747   1664858.63245  21431215.5314                   21431214.8594
   5431380.04747   4233081.60244  23239011.6804                   23239011.4494
  -7084007.19147  -5517163.59045  21981827.1024                   21981825.6524
   -237331.85946   -184816.08343  24124671.7504                   24124672.7934
  -2988406.47347  -2310251.31246  20179733.1804                   20179731.6844
  10472095.41446   8147656.13943  23839031.1564                   23839030.8244
  -6405261.99248  -4971546.82146  21125318.4534                   21125315.7854
   4422551.50446   3471532.84543  24505846.4384                   24505847.3794
   4024358.24648   3139842.13746  20890204.5474                   20890202.0004
  -5495430.34446  -4262200.63543  23882247.0234                   23882247.0704
   5266545.15646   4125030.22143  24667678.8054                   24667679.3444
 11  8 11 16 59 30.0000000  0 11G03G06G07G10G13G16G19G28G23G08G11
   2099294.50847   1645176.92145  21426409.2894                   21426408.3634
   5424923.72746   4228050.68344  23237783.5944                   23237783.0314
  -7219669.02747  -5622874.08845  21956011.6954                   21956010.4494
   -290581.16446   -226309.13143  24114539.1644                   24114540.9304
  -3058344.50047  -2364748.49046  20166424.5314                   20166423.1524
  10481567.09446   8155036.62243  23840833.8984                   23840833.3914
  -6504545.33247  -5048910.45346  21106425.6414                   21106423.5664
   4271827.05946   3354085.14943  24477164.8134                   24477165.5474
   4010773.49648   3129256.59546  20887619.4304                   20887616.7154
  -5645838.69546  -4379401.85443  23853624.8054                   23853625.5984
   5108650.85546   4001995.70342  24637632.8524                   24637632.4064
 11  8 11 17  0  0.0000000  0 11G03G06G07G10G13G16G19G28G23G08G11
   2074465.51647   1625829.63045  21421684.4924                   21421683.7504
   5418739.02046   4223231.39344  23236606.2344                   23236606.2814
  -7355383.68747  -5728625.76145  21930185.9144                   21930184.4264
   -343543.85946   -267578.78743  24104461.1644                   24104462.6414
  -3127802.90647  -2418871.93946  20153207.0634                   20153205.1684
  10490902.81646   8162311.12143  23842610.3674                   23842609.5744
  -6603339.10947  -5125892.60146  21087626.0004                   21087623.3954
   4121205.71546   3236718.06743  24448502.6254                   24448502.9384
   3997562.62948   3118962.35746  20885105.8444                   20885102.6764
  -5796418.13346  -4496736.44543  23824970.3444                   23824970.9804
   4950533.86746   3878787.72443  24607543.8524                   24607545.1254
 11  8 11 17  0 30.0000000  0 11G03G06G07G10G13G16G19G28G23G08G11
   2050060.23847   1606812.49045  21417040.2504                   21417039.5594
   5412819.97747   4218619.12844  23235479.7584                   23235479.7664
  -7491153.73847  -5834420.59445  21904350.0554                   21904348.4304
   -396225.73846   -308629.64843  24094435.8284                   24094437.1454
  -3196785.19148  -2472624.38446  20140080.2814                   20140078.4384
  10500097.53546   8169475.82443  23844360.6024                   23844359.2934
  -6701646.01247  -5202495.37946  21068918.3054                   21068915.7544
   3970683.61346   3119428.04743  24419858.7664                   24419859.9104
   3984720.54748   3108955.49446  20882661.9534                   20882659.2114
  -5947171.99647  -4614206.95843  23796282.6024                   23796283.0164
   4792192.84446   3755405.25843  24577413.4304                   24577414.1254
 11  8 11 17  1  0.0000000  0 11G03G06G07G10G13G16G19G28G23G08G11
   2026072.98447   1588121.08545  21412475.1414                   21412474.6454
   5407160.60946   4214209.21544  23234403.2114                   23234402.7304
  -7626982.00047  -5940260.79645  21878502.5704                   21878500.8594
   -448632.33246   -349466.03143  24084463.0784                   24084464.3954
  -3265294.74247  -2526008.45746  20127042.9384                   20127041.4414
  10509146.05546   8176526.57743  23846082.0394                   23846081.2344
  -6799468.34847  -5278720.57146  21050303.5944                   21050301.3164
   3820257.58646   3002212.98943  24391233.7114                   24391234.7814
   3972241.87948   3099231.81246  20880287.1414                   20880284.4414
  -6098103.78546  -4731816.08643  23767561.8674                   23767561.9884
   4633626.78946   3631847.36943  24547238.6644                   24547239.9384
 11  8 11 17  1 30.0000000  0 11G03G06G07G10G13G16G19G28G23G08G11
   2002498.89547   1569751.63145  21407989.8054                   21407988.7234
   5401755.62946   4209997.51844  23233374.5234                   23233374.0944
  -7762870.34447  -6046147.81145  21852643.5314                   21852642.2074
   -500768.96946   -390091.96943  24074542.5554                   24074543.7154
  -3333334.32047  -2579026.33346  20114095.7734                   20114094.4064
  10518044.16046   8183460.10543  23847774.7974                   23847774.5514
  -6896808.23847  -5354569.82346  21031780.6484                   21031777.9574
   3669925.03946   2885070.86143  24362626.6414                   24362627.1604
   3960121.47748   3089787.30146  20877981.2734                   20877978.2504
  -6249216.28946  -4849565.99343  23738805.5474                   23738806.2074
   4474834.91446   3508113.57442  24517021.4064                   24517023.1484
 11  8 11 17  2  0.0000000  0 11G03G06G07G10G13G16G19G28G23G08G11
   1979324.68847   1551693.76545  21403579.5164                   21403578.8984
   5396591.84047   4205973.73944  23232391.4304                   23232391.4694
  -7898828.57447  -6152089.26545  21826771.6334                   21826770.4734
   -552648.64846   -430517.72843  24064669.5084                   24064670.6334
  -3400914.54347  -2631686.25646  20101235.5864                   20101234.0664
  10526779.58646   8190266.92243  23849437.2894                   23849437.4414
  -6993675.57847  -5430050.88146  21013347.9534                   21013344.7504
   3519675.39846   2767993.21143  24334034.8134                   24334034.9344
   3948346.88348   3080612.24746  20875740.8204                   20875737.7734
  -6400519.92646  -4967464.91243  23710013.8364                   23710014.0744
   4315809.13346   3384197.48543  24486759.6094                   24486761.9064
 11  8 11 17  2 30.0000000  0 11G03G06G07G10G13G16G19G28G23G08G11
   1956539.59047   1533939.12745  21399243.9384                   21399243.2504
   5391658.68846   4202129.69144  23231452.7194                   23231453.2194
  -8034864.21947  -6258091.06845  21800885.2034                   21800883.7734
   -604281.68446   -470751.35743  24054844.1954                   24054845.2974
  -3468043.35947  -2683994.43546  20088461.6024                   20088460.0634
  10535343.00446   8196939.68043  23851066.9534                   23851065.5354
  -7090077.80947  -5505169.49046  20995002.4924                   20995000.3874
   3369500.33246   2650973.76642  24305457.2034                   24305458.2774
   3936907.50448   3071698.40646  20873563.4924                   20873560.7194
  -6552022.77346  -5085519.02643  23681184.4064                   23681183.6644
   4156543.44546   3260094.44643  24456452.5784                   24456453.1484
 11  8 11 17  3  0.0000000  0 11G03G06G07G10G13G16G19G28G23G08G11
   1934139.37947   1516484.36745  21394981.0704                   21394980.7934
   5386951.30146   4198461.53744  23230557.6334                   23230557.6454
  -8170978.40647  -6364154.06645  21774984.0394                   21774982.1994
   -655672.68046   -510796.30743  24045065.2114                   24045065.3134
  -3534723.72747  -2735953.16546  20075772.5554                   20075771.1454
  10543729.91446   8203474.86843  23852662.8204                   23852662.0984
  -7186016.82847  -5579927.17146  20976746.3284                   20976743.3754
   3219397.88346   2534010.89842  24276894.0784                   24276894.1604
   3925799.35948   3063042.67045  20871449.5784                   20871446.9654
  -6703727.13346  -5203730.16043  23652314.6254                   23652315.8634
   3997037.86346   3135804.52742  24426099.2424                   24426100.6294
 11  8 11 17  3 30.0000000  0 11G03G06G07G10G13G16G19G28G23G08G11
   1912118.33647   1499325.10145  21390790.6094                   21390789.9344
   5382463.41446   4194964.42744  23229703.5084                   23229702.8754
  -8307174.02047  -6470280.50445  21749066.2734                   21749064.9384
   -706827.23446   -550657.07143  24035330.9454                   24035331.3054
  -3600958.89547  -2787564.99846  20063168.3754                   20063166.8674
  10551935.01246   8209868.41743  23854224.7814                   23854223.5784
  -7281495.44947  -5654326.08946  20958577.1024                   20958574.3914
   3069364.26246   2417101.61543  24248343.1414                   24248344.1414
   3915016.52748   3054640.41645  20869397.8204                   20869394.9884
  -6855636.13346  -5322100.77643  23623408.0234                   23623407.7974
   3837291.48046   3011326.91442  24395699.3984                   24395701.8914
 11  8 11 17  4  0.0000000  0 11G03G06G07G10G13G16G19G28G23G08G11
   1890472.23847   1482457.98045  21386671.4384                   21386671.0904
   5378191.19546   4191635.38744  23228890.8134                   23228890.3554
  -8443452.23847  -6576471.29345  21723133.4064                   21723131.8164
   -757749.19546   -590336.57443  24025639.5234                   24025642.1134
  -3666750.48847  -2838831.19946  20050648.6254                   20050647.0904
  10559955.49646   8216118.09843  23855751.0084                   23855749.6174
  -7376514.39847  -5728366.83846  20940495.8134                   20940492.8134
   2919398.13346   2300245.00842  24219805.8364                   24219806.1564
   3904555.55548   3046488.95846  20867407.5314                   20867404.4064
  -7007751.44146  -5440632.12143  23594460.9304                   23594460.8134
   3677304.71946   2886662.05043  24365256.0164                   24365258.0474
 11  8 11 17  4 30.0000000  0 11G03G06G07G10G13G16G19G28G23G08G11
   1869199.39847   1465881.73345  21382623.0314                   21382623.3404
   5374132.41446   4188472.67144  23228117.9304                   23228118.2234
  -8579811.10247  -6682724.95345  21697184.6174                   21697183.7504
   -808440.75446   -629836.52143  24015994.2734                   24015996.0274
  -3732098.21147  -2889751.50946  20038213.8594                   20038212.2194
  10567790.72746   8222223.37443  23857242.1564                   23857240.5164
  -7471072.68447  -5802048.60746  20922501.5944                   20922498.7034
   2769500.06646   2183441.44542  24191280.2034                   24191281.1484
   3894414.81648   3038587.04045  20865477.5234                   20865474.4454
  -7160072.17646  -5559323.56343  23565475.6954                   23565476.4304
   3517080.45746   2761812.06043  24334766.5704                   24334768.2194
 11  8 11 17  5  0.0000000  0 11G03G06G07G10G13G16G19G28G23G08G11
   1848298.35247   1449595.18045  21378646.2274                   21378645.9494
   5370285.67246   4185475.16544  23227386.1094                   23227386.2504
  -8716248.84847  -6789040.04245  21671221.8364                   21671220.5784
   -858903.09846   -669157.85643  24006391.5704                   24006393.1174
  -3797000.86747  -2940325.02746  20025862.9144                   20025861.6094
  10575439.79346   8228183.65743  23858697.5474                   23858696.1804
  -7565168.79347  -5875370.24646  20904595.6644                   20904593.0824
   2619671.21546   2066691.77742  24162769.1094                   24162769.5314
   3884593.04348   3030933.66346  20863608.5164                   20863605.6724
  -7312597.09446  -5678174.11643  23536450.8834                   23536451.9264
   3356622.20346   2636779.74242  24304232.1094                   24304233.1564
 11  8 11 17  5 30.0000000  0 11G03G06G07G10G13G16G19G28G23G08G11
   1827777.78147   1433605.09745  21374741.5004                   21374741.0704
   5366659.38346   4182649.45243  23226696.5474                   23226696.0984
  -8852753.72347  -6895407.47445  21645245.5084                   21645244.4734
   -909127.48846   -708293.74943  23996834.3754                   23996836.1254
  -3861448.05947  -2990543.63246  20013599.2734                   20013597.6134
  10582912.28546   8234006.36243  23860119.8984                   23860117.9104
  -7658791.18447  -5948322.76246  20886780.0004                   20886776.8014
   2469922.30946   1950004.49943  24134272.4774                   24134273.3874
   3875098.87948   3023535.55146  20861801.7664                   20861799.6294
  -7465314.90646  -5797174.98444  23507390.0314                   23507389.7424
   3195943.51646   2511575.63343  24273656.0554                   24273656.6214
 11  8 11 17  6  0.0000000  0 11G03G06G07G10G13G16G19G28G23G08G11
   1807637.61747   1417911.47645  21370908.6804                   21370908.0084
   5363253.35546   4179995.37943  23226048.5004                   23226047.4454
  -8989322.30147  -7001824.52445  21619257.7274                   21619256.6484
   -959113.88346   -747244.29643  23987322.9614                   23987324.0554
  -3925437.53547  -3040405.57846  20001422.2664                   20001420.9184
  10590208.69546   8239691.87543  23861508.9534                   23861506.5164
  -7751936.83247  -6020903.76346  20869055.0554                   20869051.9804
   2320255.95746   1833381.33543  24105792.0704                   24105792.2194
   3865933.02348   3016393.28646  20860057.8524                   20860055.7384
  -7618223.26646  -5916324.35143  23478291.9144                   23478292.1214
   3035048.91446   2386203.35743  24243038.5084                   24243039.5704
 11  8 11 17  6 30.0000000  0 11G03G06G07G10G13G16G19G28G23G08G11
   1787878.56647   1402514.75845  21367149.0314                   21367148.2304
   5360068.46546   4177513.61043  23225442.0704                   23225441.9144
  -9125950.51247  -7108288.05545  21593258.1024                   21593256.7894
  -1008861.17246   -786008.43943  23977854.7894                   23977857.5984
  -3988966.21947  -3089908.47646  19989333.0394                   19989331.4494
  10597331.28546   8245241.87543  23862863.0704                   23862862.1024
  -7844601.76247  -6093110.21046  20851421.2114                   20851418.6724
   2170675.28146   1716825.14142  24077328.1024                   24077328.4734
   3857096.33648   3009507.50345  20858376.1484                   20858373.5204
  -7771318.64846  -6035619.36843  23449159.3674                   23449158.7464
   2873944.26246   2260667.23843  24212381.6804                   24212382.7274
 11  8 11 17  7  0.0000000  0 11G03G06G07G10G13G16G19G28G23G08G11
   1768500.51647   1387414.97945  21363461.4614                   21363460.8244
   5357104.33646   4175203.85844  23224877.8834                   23224877.8714
  -9262634.91847  -7214795.37245  21567247.9694                   21567246.5904
  -1058369.52746   -824586.47243  23968434.8914                   23968435.6804
  -4052031.94547  -3139050.61246  19977331.9534                   19977330.8204
  10604281.00846   8250657.22843  23864185.4534                   23864184.8484
  -7936783.50847  -6164940.12146  20833879.6954                   20833877.1604
   2021182.69946   1600337.51943  24048880.8754                   24048881.3364
   3848588.95348   3002878.32945  20856757.5864                   20856754.8094
  -7924598.49646  -6155058.19944  23419990.7504                   23419990.5704
   2712634.10946   2134971.16443  24181684.7034                   24181685.9774
 11  8 11 17  7 30.0000000  0 11G03G06G07G10G13G16G19G28G23G08G11
   1749495.64847   1372605.98245  21359844.8834                   21359843.7814
   5354352.38746   4173059.48444  23224354.1954                   23224353.8524
  -9399380.62147  -7321350.44245  21541226.1644                   21541224.7424
  -1107647.01246   -862984.52043  23959057.1644                   23959058.5664
  -4114640.86747  -3187836.80346  19965417.8134                   19965417.0474
  10611050.07046   8255931.74943  23865474.5554                   23865473.6604
  -8028487.39547  -6236397.68246  20816429.2034                   20816425.8674
   1871772.33246   1483913.92943  24020448.0164                   24020449.1094
   3840402.76648   2996499.42046  20855199.5314                   20855196.5354
  -8078068.48446  -6274645.16343  23390786.4304                   23390786.5204
   2551115.02346   2009112.18243  24150949.3204                   24150950.6454
 11  8 11 17  8  0.0000000  0 11G03G06G07G10G13G16G19G28G23G08G11
   1730859.84847   1358084.56045  21356298.6414                   21356297.4534
   5351809.16446   4171077.73244  23223870.7664                   23223870.3914
  -9536187.71547  -7427953.36245  21515192.5554                   21515191.1604
  -1156697.60946   -901205.84343  23949723.4774                   23949725.1094
  -4176794.50847  -3236268.23546  19953590.7734                   19953589.2034
  10617636.11346   8261063.72543  23866726.6644                   23866726.7894
  -8119714.21147  -6307483.49746  20799069.1644                   20799066.1254
   1722442.95346   1367553.47543  23992031.9144                   23992032.6134
   3832534.40248   2990368.18545  20853702.2664                   20853699.5474
  -8231729.44946  -6394380.92943  23361546.1804                   23361545.6564
   2389388.40246   1883091.37943  24120173.0394                   24120174.3914
 11  8 11 17  8 30.0000000  0 11G03G06G07G10G13G16G19G28G23G08G11
   3288012.35947   2571450.13245  21652614.8444                   21652613.9414
   6924893.43846   5396857.64444  23523218.3594                   23523218.1764
  -8097629.53947  -6306998.91945  21788941.2814                   21788939.3754
    369899.51246    288350.28543  24240225.4694                   24240227.4454
  -2663069.54747  -2056742.31746  20241642.7734                   20241641.5864
  12199459.09446   9493652.97743  24167738.7814                   24167737.6024
  -6635039.05547  -5150593.74446  21081592.8984                   21081590.1644
   3148620.86346   2478860.93343  24263424.8594                   24263425.5204
   5400403.47348   4212084.28545  21152058.1954                   21152055.5274
  -6810154.55546  -5286660.20843  23632062.1644                   23632061.7544
   3802883.44546   2984516.15843  24389152.1484                   24389152.9304
 11  8 11 17  9  0.0000000  0 11G03G06G07G10G13G16G19G28G23G08G11
   3270102.93447   2557494.70645  21649207.2424                   21649206.0234
   6922755.33246   5395191.57644  23522811.5944                   23522812.0044
  -8234560.94547  -6413698.70745  21762883.6254                   21762882.5434
    321291.64146    250473.95543  24230975.4384                   24230977.4454
  -2724317.62947  -2104468.11846  20229987.5004                   20229986.4964
  12205670.66046   9498493.11143  24168920.1954                   24168919.7704
  -6725314.92647  -5220938.55646  21064414.4844                   21064411.6804
   2999449.23846   2362623.43943  24235038.4774                   24235038.7934
   5393159.78948   4206439.80146  21150679.6094                   21150677.1374
  -6964201.01247  -5406696.34543  23602748.6094                   23602748.6884
   3640744.74646   2858174.36243  24358298.2504                   24358298.9694
 11  8 11 17  9 30.0000000  0 11G03G06G07G10G13G16G19G28G23G08G11
   3252552.94547   2543819.36745  21645866.5784                   21645866.4774
   6920815.84046   5393680.27844  23522441.9384                   23522442.3134
  -8371553.14847  -6520445.85945  21736814.9384                   21736814.0354
    272901.36746    212767.19043  24221767.0234                   24221768.8284
  -2785113.44147  -2151841.49846  20218418.7974                   20218417.8554
  12211692.77346   9503185.62643  24170066.7194                   24170065.0634
  -6815114.64847  -5290912.33646  21047326.4844                   21047323.4344
   2850356.30546   2246447.16543  24206667.1334                   24206667.2974
   5386224.89848   4201035.93845  21149360.1414                   21149357.8054
  -7118439.98846  -5526882.52743  23573397.7194                   23573396.8914
   3478403.78146   2731674.87243  24327405.5784                   24327406.7934
 11  8 11 17 10  0.0000000  0 11G03G06G07G10G13G16G19G28G23G08G11
   3235359.81347   2530422.09245  21642595.7664                   21642595.1094
   6919072.35946   5392321.62043  23522110.7584                   23522110.6254
  -8508605.40647  -6627239.81945  21710734.9144                   21710734.1214
    224726.24246    175228.05543  24212600.1804                   24212601.0474
  -2845457.96148  -2198863.22846  20206935.7274                   20206934.6454
  12217523.84046   9507729.26643  24171175.8444                   24171175.1024
  -6904438.33247  -5360515.19246  21030328.1804                   21030325.5744
   2701341.71546   2130331.92543  24178309.7814                   24178311.0634
   5379596.53948   4195870.93845  21148098.6724                   21148095.7544
  -7272870.97746  -5647218.39243  23544010.4454                   23544009.6954
   3315862.79746   2605019.62643  24296474.9384                   24296476.4614
 11  8 11 17 10 30.0000000  0 11G03G06G07G10G13G16G19G28G23G08G11
   3218516.59447   2517297.45545  21639390.4224                   21639389.8714
   6917518.05146   5391110.47744  23521814.8674                   23521815.5044
  -8645720.77747  -6734082.96346  21684642.5084                   21684641.7894
    176759.48846    137851.24043  24203472.0084                   24203474.1884
  -2905355.60247  -2245536.74646  20195537.6174                   20195536.2664
  12223158.27346   9512119.64643  24172248.6414                   24172247.7034
  -6993289.77047  -5429750.06646  21013420.4534                   21013417.8954
   2552401.20346   2014274.38043  24149967.9064                   24149968.5204
   5373268.07848   4190939.60445  21146894.5234                   21146891.7194
  -7427498.12946  -5767706.95643  23514585.4614                   23514585.5434
   3153119.96946   2478207.06843  24265506.5164                   24265507.6884
 11  8 11 17 11  0.0000000  0 11G03G06G07G10G13G16G19G28G23G08G11
   3202014.27747   2504438.47845  21636249.9774                   21636249.5204
   6916143.77746   5390039.57443  23521553.6334                   23521553.0744
  -8782904.63347  -6840979.47745  21658537.5634                   21658536.3094
    128992.28946    100629.98643  24194382.0394                   24194384.2344
  -2964813.07847  -2291867.26346  20184223.2194                   20184221.8284
  12228588.49246   9516350.88843  24173282.4774                   24173280.4844
  -7081675.19147  -5498621.80946  20996601.2504                   20996598.8134
   2403528.69546   1898269.90543  24121638.0394                   24121638.6914
   5367230.88348   4186235.25445  21145745.8364                   21145743.0394
  -7582327.48846  -5888353.16343  23485122.8834                   23485122.7734
   2990171.39546   2351234.19243  24234498.8834                   24234499.2664
 11  8 11 17 11 30.0000000  0 11G03G06G07G10G13G16G19G28G23G08G11
   3185854.72347   2491846.57045  21633175.2894                   21633174.4734
   6914950.89846   5389110.02044  23521326.6094                   23521326.7814
  -8920152.10247  -6947925.53845  21632420.0864                   21632418.6254
     81425.97746     63565.32243  24185331.1484                   24185332.5314
  -3023826.97747  -2337852.15146  20172993.1094                   20172991.9924
  12233817.06646   9520425.11443  24174276.3984                   24174276.1414
  -7169590.47347  -5567127.21146  20979871.4844                   20979868.9264
   2254727.89846   1782321.24143  24093322.7194                   24093322.8954
   5361486.15648   4181758.80545  21144652.2664                   21144650.0944
  -7737355.12546  -6009153.86743  23455622.2114                   23455621.1604
   2827023.56346   2224105.95643  24203453.1414                   24203453.4104
 11  8 11 17 12  0.0000000  0 11G03G06G07G10G13G16G19G28G23G08G11
   3170033.16847   2479518.06745  21630164.4304                   21630163.9924
   6913934.79346   5388318.20943  23521133.4614                   23521133.1054
  -9057464.07047  -7054921.85945  21606290.8204                   21606289.4344
     34056.00046     26653.55443  24176316.3674                   24176319.0634
  -3082399.75047  -2383493.29146  20161847.2114                   20161846.1524
  12238840.10546   9524339.01343  24175232.0944                   24175231.5984
  -7257037.45747  -5635267.69546  20963230.8204                   20963228.2894
   2105996.59846   1666426.80043  24065019.6884                   24065020.5594
   5356029.87948   4177507.09045  21143614.2894                   21143611.5634
  -7892582.37146  -6130110.10244  23426082.7424                   23426082.4884
   2663676.94146   2096822.99843  24172368.8444                   24172369.6844
 11  8 11 17 12 30.0000000  0 11G03G06G07G10G13G16G19G28G23G08G11
   3154550.91447   2467453.93845  21627217.8914                   21627217.5594
   6913097.25046   5387665.49143  23520974.2114                   23520973.8984
  -9194835.27747  -7161964.34045  21580149.1804                   21580148.3634
    -13115.59846    -10103.61943  24167340.4844                   24167342.1604
  -3140527.44547  -2428787.63846  20150785.6484                   20150784.5004
  12243661.01245   9528095.51643  24176150.0234                   24176149.6334
  -7344011.58647  -5703039.73146  20946680.2274                   20946677.2234
   1957338.84046   1550589.62243  24036730.3914                   24036731.1764
   5350864.07048   4173481.72846  21142631.5004                   21142628.9184
  -8048004.39546  -6251218.13944  23396507.8524                   23396507.7584
   2500138.30846   1969390.32543  24141248.0164                   24141249.7154
 11  8 11 17 13  0.0000000  0 11G03G06G07G10G13G16G19G28G23G08G11
   3139405.41047   2455652.21445  21624335.9454                   21624335.9924
   6912435.03546   5387149.38044  23520848.0394                   23520847.1914
  -9332265.12947  -7269052.51745  21553997.3364                   21553996.5744
    -60091.73446    -46708.47943  24158400.6804                   24158402.8134
  -3198211.47347  -2473736.25046  20139808.9534                   20139807.4224
  12248277.94945   9531693.05743  24177028.7584                   24177027.9304
  -7430513.14847  -5770443.55046  20930219.9144                   20930216.7384
   1808754.28946   1434809.46543  24008455.6804                   24008456.6174
   5345985.88348   4169680.47045  21141703.0864                   21141700.5394
  -8203621.41446  -6372478.11644  23366894.6414                   23366894.3754
   2336409.85246   1841809.79743  24110091.7664                   24110092.7734
 11  8 11 17 13 30.0000000  0 11G03G06G07G10G13G16G19G28G23G08G11
   3124601.41447   2444116.59844  21621518.9064                   21621518.4694
   6911953.43846   5386774.06844  23520756.2114                   23520756.2704
  -9469744.86347  -7376179.58045  21527836.0234                   21527834.6644
   -106867.14546    -83156.94543  24149500.6254                   24149501.4184
  -3255444.45747  -2518333.40746  20128917.9844                   20128916.7504
  12252697.39546   9535136.74943  24177869.2664                   24177869.7274
  -7516534.35247  -5837473.04846  20913850.3674                   20913847.3754
   1660250.71546   1319092.38743  23980197.2344                   23980197.2384
   5341400.60248   4166107.46345  21140830.4144                   21140828.0784
  -8359425.43047  -6493883.83943  23337246.0084                   23337245.7234
   2172501.75046   1714089.21443  24078900.5164                   24078902.0004
 11  8 11 17 14  0.0000000  0 11G03G06G07G10G13G16G19G28G23G08G11
   3110140.80547   2432848.59444  21618766.7664                   21618766.8324
   6911654.09046   5386540.79044  23520698.8594                   23520699.4024
  -9607269.03947  -7483341.26145  21501665.8754                   21501664.9184
   -153440.30146   -119447.71943  24140637.6954                   24140639.0084
  -3312222.79747  -2562576.28946  20118113.0704                   20118112.2074
  12256922.23446   9538428.68343  24178674.1564                   24178673.7114
  -7602070.73447  -5904124.77246  20897573.6334                   20897570.3164
   1511831.93846   1203441.46643  23951953.4454                   23951953.8204
   5337109.98048   4162764.07245  21140014.2894                   21140011.3364
  -8515411.66047  -6615431.46243  23307562.5084                   23307562.4304
   2008421.00846   1586234.17243  24047676.7504                   24047678.7114
 11  8 11 17 14 30.0000000  0 11G03G06G07G10G13G16G19G28G23G08G11
   3096030.56347   2421853.59145  21616082.1414                   21616081.6454
   6911544.44146   5386455.27843  23520678.3674                   23520679.0274
  -9744826.69547  -7590529.01746  21475489.3984                   21475488.2384
   -199803.66446   -155575.11343  24131815.2034                   24131817.0554
  -3368537.21547  -2606457.66946  20107397.0234                   20107395.9574
  12260961.32846   9541576.00743  24179442.4384                   24179441.7114
  -7687112.44947  -5970391.02646  20881390.3134                   20881387.9184
   1363507.81646   1087864.24343  23923728.0394                   23923728.7814
   5333121.66048   4159656.22545  21139255.2194                   21139252.9384
  -8671569.61747  -6737112.97644  23277846.4924                   23277846.5084
   1844180.08246   1458254.31743  24016423.1334                   24016424.6484
 11  8 11 17 15  0.0000000  0 11G03G06G07G10G13G16G19G28G23G08G11
   3082270.41447   2411131.38045  21613463.6254                   21613463.2114
   6911623.75046   5386516.95643  23520693.4064                   23520694.0744
  -9882414.38347  -7697740.19445  21449307.5164                   21449306.1524
   -245957.72746   -191539.36343  24123032.3444                   24123033.1884
  -3424386.10947  -2649976.32946  20096769.5634                   20096768.0204
  12264815.53146   9544579.29243  24180175.5084                   24180175.6024
  -7771657.38747  -6036270.19546  20865302.0554                   20865299.1994
   1215280.42246    972362.43543  23895521.5084                   23895521.5904
   5329435.54348   4156783.87145  21138553.6094                   21138551.5274
  -8827897.02347  -6858926.51644  23248098.2974                   23248098.9104
   1679783.50146   1330153.06743  23985139.2584                   23985140.6804
 11  8 11 17 15 30.0000000  0 11G03G06G07G10G13G16G19G28G23G08G11
   3068858.54347   2400680.55545  21610911.6804                   21610911.3634
   6911890.15646   5386724.50143  23520744.3284                   23520744.1994
 -10020030.53147  -7804973.54345  21423120.3524                   21423119.2114
   -291904.17246   -227341.86043  24114289.7034                   24114290.4384
  -3479769.57047  -2693132.28946  20086230.4844                   20086228.7154
  12268484.21946   9547437.86443  24180874.0864                   24180873.4104
  -7855704.66447  -6101761.57646  20849308.7034                   20849305.0634
   1067150.28946    856936.40343  23867332.6484                   23867333.9774
   5326049.51648   4154145.35345  21137909.6414                   21137907.0124
  -8984392.96147  -6980871.34644  23218317.8444                   23218318.1644
   1515234.54346   1201933.26643  23953825.3914                   23953827.4264
 11  8 11 17 16  0.0000000  0 11G03G06G07G10G13G16G19G28G23G08G11
   3055793.74247   2390500.16645  21608425.1724                   21608425.0864
   6912342.69546   5387077.09143  23520830.6334                   23520830.6844
 -10157672.43747  -7912226.97145  21396928.0314                   21396926.1914
   -337643.92246   -262983.31843  24105584.8444                   24105586.8324
  -3534686.53147  -2735924.74246  20075779.6564                   20075778.4654
  12271967.44546   9550152.13843  24181537.6724                   24181536.1644
  -7939252.80947  -6166864.00646  20833409.6334                   20833406.4734
    919119.05146    741587.42943  23839163.7274                   23839165.1254
   5322962.98848   4151740.20945  21137322.0394                   21137320.1484
  -9141055.23447  -7102945.82144  23188506.0784                   23188505.9384
   1350537.55946   1073597.99943  23922485.6884                   23922486.4024
 11  8 11 17 16 30.0000000  0 11G03G06G07G10G13G16G19G28G23G08G11
   3043068.12947   2380584.09444  21606003.8674                   21606003.7154
   6912973.48046   5387568.58543  23520950.6174                   23520950.6684
 -10295343.91048  -8019503.41145  21370730.0164                   21370728.2504
   -383184.99646   -298469.96343  24096918.8914                   24096920.6134
  -3589143.18447  -2778358.53046  20065417.3134                   20065416.1214
  12275259.09446   9552716.96343  24182163.8524                   24182162.5164
  -8022307.02747  -6231581.56946  20817604.7344                   20817601.9574
    771181.06646    626311.16943  23811011.5704                   23811012.8674
   5320168.34448   4149562.51145  21136790.1414                   21136787.8324
  -9297888.19547  -7225153.30644  23158661.7974                   23158661.1994
   1185690.01246    945145.44143  23891116.8984                   23891117.2584
 11  8 11 17 17  0.0000000  0 11G03G06G07G10G13G16G19G28G23G08G11
   3030681.51247   2370932.15544  21603646.5164                   21603646.1454
   6913782.55146   5388198.96843  23521104.4614                   23521104.7424
 -10433041.59047  -8126800.29245  21344526.7194                   21344525.5274
   -428527.39146   -333801.75643  24088291.1724                   24088292.4734
  -3643137.38348  -2820431.94446  20055142.6334                   20055141.3284
  12278360.52746   9555133.62343  24182753.2034                   24182753.1564
  -8104864.78947  -6295912.29746  20801894.7584                   20801891.9064
    623338.77746    511109.43243  23782878.4614                   23782879.3444
   5317665.64848   4147612.29445  21136314.2814                   21136312.2154
  -9454888.97347  -7347491.52544  23128785.7114                   23128785.3014
   1020697.13746    816579.60243  23859719.9384                   23859720.4184
 11  8 11 17 17 30.0000000  0 11G03G06G07G10G13G16G19G28G23G08G11
   4594048.57447   3589140.22344  21901146.0084                   21901145.1884
   8490184.14546   6616563.81043  23821083.9224                   23821084.7704
  -8995342.69947  -7006515.44045  21618111.6334                   21618110.7814
   1101745.16446    858618.33443  24379492.1564                   24379493.4534
  -2121251.22348  -1634546.65146  20344748.1564                   20344746.9534
  13856687.46146  10784998.66843  24483099.1804                   24483098.7584
  -6611506.67648  -5132256.60046  21086071.6644                   21086068.5634
   2051014.20746   1623583.80743  24054555.8754                   24054557.5044
   6890869.30948   5373485.20245  21435685.0314                   21435682.4144
  -8036635.20347  -6242358.66244  23398670.4454                   23398670.6134
   2430983.75846   1915504.33043  24128087.7584                   24128088.0704
 11  8 11 17 18  0.0000000  0 11G03G06G07G10G13G16G19G28G23G08G11
   4582331.55547   3580010.05344  21898916.1334                   21898915.4964
   8491341.57446   6617465.67843  23821303.8284                   23821304.4844
  -9133089.21147  -7113850.37145  21591899.5474                   21591898.5944
   1056792.39846    823590.18043  24370938.0634                   24370939.9614
  -2174323.33247  -1675901.56846  20334648.5394                   20334647.2974
  13859404.63346  10787115.96443  24483616.2894                   24483614.8954
  -6693072.41447  -5195814.32146  21070550.0004                   21070547.1174
   1903362.83646   1508530.89443  24026459.0314                   24026459.7664
   6888942.37548   5371983.62645  21435318.3134                   21435315.9774
  -8193971.47347  -6364958.31244  23368730.0474                   23368730.0044
   2265707.48446   1786717.66843  24096636.7814                   24096637.0394
 11  8 11 17 18 30.0000000  0 11G03G06G07G10G13G16G19G28G23G08G11
   4570942.82447   3571135.69245  21896748.4844                   21896748.5554
   8492666.37946   6618497.93144  23821556.6094                   23821556.0744
  -9270861.13747  -7221205.11246  21565682.3674                   21565681.3754
   1012027.71146    788708.43143  24362419.3594                   24362421.0084
  -2226938.39147  -1716900.34346  20324636.0634                   20324635.2384
  13861924.93446  10789079.69543  24484095.6334                   24484095.5274
  -6774145.18447  -5258987.91146  21055121.8204                   21055119.2234
   1755803.60546   1393549.78143  23998379.5084                   23998380.3914
   6887296.83248   5370701.32945  21435005.0164                   21435003.0274
  -8351477.03147  -6487689.89044  23338758.1564                   23338758.2424
   2100290.48446   1657821.36243  24065158.7664                   24065159.5004
 11  8 11 17 19  0.0000000  0 11G03G06G07G10G13G16G19G28G23G08G11
   4559882.08647   3562516.89845  21894643.7194                   21894643.6994
   8494158.50446   6619660.62943  23821840.8134                   23821840.1134
  -9408654.79748  -7328576.77145  21539461.0704                   21539459.4024
    967450.91846    753973.27243  24353936.7974                   24353938.1804
  -2279094.52347  -1757541.50846  20314711.3444                   20314710.0824
  13864250.09846  10790891.42743  24484538.7894                   24484537.6454
  -6854722.55547  -5321775.45946  21039788.8594                   21039785.8984
   1608339.25446   1278642.65143  23970318.2894                   23970318.6334
   6885932.98448   5369638.51645  21434746.0704                   21434743.6914
  -8509148.59847  -6610550.78243  23308753.4694                   23308753.5004
   1934738.22746   1528819.63443  24033655.2274                   24033656.4924
 11  8 11 17 19 30.0000000  0 11G03G06G07G10G13G16G19G28G23G08G11
   4549156.61747   3554159.36644  21892602.9384                   21892602.5474
   8495825.62546   6620959.59143  23822158.0474                   23822157.6024
  -9546458.67247  -7435956.41346  21513237.9384                   21513236.4104
    923069.72646    719390.50943  24345490.9614                   24345493.2854
  -2330782.26247  -1797817.69346  20304875.1484                   20304874.2034
  13866388.94546  10792557.97543  24484945.7424                   24484944.5274
  -6934794.28547  -5384169.00846  21024551.4844                   21024548.4224
   1460979.69946   1163817.09243  23942275.9534                   23942276.2624
   6884858.42248   5368801.13545  21434541.5314                   21434538.7934
  -8666975.80947  -6733533.01144  23278720.2734                   23278720.1024
   1769063.63346   1399722.62843  24002127.6334                   24002129.4574
 11  8 11 17 20  0.0000000  0 11G03G06G07G10G13G16G19G28G23G08G11
   4538764.19947   3546061.33445  21890625.7584                   21890624.5514
   8497665.36746   6622393.14643  23822508.0164                   23822507.7584
  -9684271.45747  -7543342.97946  21487012.9064                   21487011.4144
    878881.91046    684958.26843  24337082.5394                   24337083.8594
  -2382002.83247  -1837729.84646  20295128.5784                   20295127.2854
  13868340.58646  10794078.70043  24485317.0944                   24485316.7544
  -7014360.71147  -5446168.81946  21009410.6414                   21009407.9264
   1313724.84046   1049073.15043  23914254.2424                   23914255.0824
   6884070.73448   5368187.28345  21434391.7504                   21434388.6804
  -8824957.59047  -6856635.63844  23248657.6254                   23248657.2304
   1603269.55946   1270532.52343  23970578.8984                   23970580.1994
 11  8 11 17 20 30.0000000  0 11G03G06G07G10G13G16G19G28G23G08G11
   4528700.71147   3538219.59844  21888709.9844                   21888710.2934
   8499673.95346   6623958.20443  23822890.0394                   23822889.7584
  -9822092.96547  -7650736.37146  21460786.2194                   21460785.0824
    834883.62946    650673.91243  24328710.1174                   24328711.6684
  -2432757.72748  -1877279.14746  20285470.2504                   20285469.0204
  13870102.93846  10795451.89443  24485652.6334                   24485650.9654
  -7093422.87147  -5507775.69546  20994365.5784                   20994362.6134
   1166573.44146    934409.81043  23886252.3674                   23886252.4574
   6883566.43448   5367794.23845  21434295.2274                   21434292.8834
  -8983094.64547  -6979859.29143  23218565.6024                   23218564.5004
   1437357.44946   1141250.39543  23939006.6804                   23939007.7704
 11  8 11 17 21  0.0000000  0 11G03G06G07G10G13G16G19G28G23G08G11
   4518969.25047   3530636.60444  21886858.2344                   21886858.1724
   8501854.31346   6625657.20743  23823305.1564                   23823304.8134
  -9959916.13347  -7758131.02645  21434559.5704                   21434558.0004
    791077.82846    616539.33443  24320373.8444                   24320376.3164
  -2483042.51647  -1916462.11646  20275901.2344                   20275900.2074
  13871680.50446  10796681.14343  24485952.7584                   24485951.5394
  -7171975.77747  -5568985.73646  20979417.6334                   20979415.0164
   1019530.93446    819831.37143  23858271.0164                   23858271.2424
   6883348.58247   5367624.41945  21434254.4534                   21434251.7894
  -9141380.96147  -7103199.23644  23188444.0634                   23188443.7814
   1271335.96146   1011883.02643  23907413.8524                   23907414.8164
 11  8 11 17 21 30.0000000  0 11G03G06G07G10G13G16G19G28G23G08G11
   4509566.85547   3523309.99244  21885069.7504                   21885069.1414
   8504203.71546   6627487.84743  23823751.3444                   23823752.6054
 -10097740.02747  -7865526.26345  21408332.2344                   21408331.0704
    747461.78546    582552.78443  24312074.5474                   24312076.1564
  -2532858.19547  -1955279.55546  20266422.0004                   20266420.7424
  13873072.09445  10797765.48543  24486216.7194                   24486216.0744
  -7250019.78547  -5629799.27046  20964566.3594                   20964563.3524
    872596.79746    705337.29143  23830310.1254                   23830310.7074
   6883414.55547   5367675.74745  21434266.5864                   21434264.0634
  -9299815.78947  -7226654.88644  23158295.7274                   23158294.4144
   1105207.60546    882432.41543  23875800.4774                   23875801.1214
 11  8 11 17 22  0.0000000  0 11G03G06G07G10G13G16G19G28G23G08G11
   4500495.43847   3516241.29445  21883343.5634                   21883342.8244
   8506724.49246   6629452.03243  23824231.7114                   23824231.7154
 -10235558.54347  -7972917.29345  21382106.2894                   21382104.8094
    704037.79346    548715.82443  24303810.7194                   24303813.2974
  -2582200.69547  -1993728.28246  20257032.2194                   20257031.3634
  13874281.38345  10798707.73643  24486448.2274                   24486446.4884
  -7327550.05947  -5690212.46746  20949812.8984                   20949809.8984
    725775.78546    590931.42943  23802370.7424                   23802371.5394
   6883766.48847   5367949.89345  21434333.8594                   21434331.5514
  -9458393.80947  -7350222.13743  23128118.0004                   23128117.7974
    938980.07446    752904.58743  23844168.9064                   23844169.0554
 11  8 11 17 22 30.0000000  0 11G03G06G07G10G13G16G19G28G23G08G11
   4491753.37147   3509429.24344  21881679.6414                   21881679.6954
   8509415.10246   6631548.56343  23824742.9694                   23824744.2854
 -10373369.21547  -8080302.22045  21355881.8284                   21355880.0124
    660804.41446    515027.37142  24295584.1024                   24295585.8794
  -2631070.00047  -2031808.29146  20247732.6884                   20247731.5634
  13875308.60545  10799508.07343  24486643.3984                   24486642.3054
  -7404566.28147  -5750225.11646  20935156.8914                   20935154.0824
    579068.66446    476614.24043  23774452.8054                   23774454.0164
   6884402.86347   5368445.69645  21434454.9774                   21434452.9384
  -9617113.21547  -7473899.55444  23097914.9224                   23097915.4384
    772656.76246    623302.05943  23812518.4774                   23812519.3674
 11  8 11 17 23  0.0000000  0 11G03G06G07G10G13G16G19G28G23G08G11
   4483343.26247   3502875.88344  21880079.3914                   21880079.0984
   8512278.24246   6633779.61443  23825288.4224                   23825288.9184
 -10511165.52347  -8187675.93945  21329659.7504                   21329659.1134
    617764.14146    481489.43443  24287393.6024                   24287395.9304
  -2679461.63347  -2069516.08046  20238523.9224                   20238522.9104
  13876157.85945  10800169.72743  24486804.4614                   24486804.3754
  -7481063.32847  -5809833.19946  20920600.3364                   20920597.1804
    432480.59846    362389.88543  23746557.7584                   23746559.3094
   6885326.71547   5369165.50845  21434631.0004                   21434628.7544
  -9775968.47347  -7597682.81744  23067686.3754                   23067685.6764
    606245.91846    493631.35343  23780851.7974                   23780852.8594
 11  8 11 17 23 30.0000000  0 11G03G06G07G10G13G16G19G28G23G08G11
   4475268.24647   3496583.61544  21878542.7034                   21878542.7114
   8515316.97746   6636147.39743  23825867.3524                   23825867.5354
 -10648940.45747  -8295033.03246  21303442.3134                   21303441.1724
    574920.06646    448104.32443  24279240.2424                   24279243.0474
  -2727371.02747  -2106848.09846  20229407.2974                   20229406.2464
  13876833.90245  10800696.49143  24486933.3674                   24486934.0124
  -7557035.82047  -5869032.55846  20906142.9844                   20906140.3014
    286016.99246    248262.46043  23718686.8754                   23718688.3164
   6886540.80547   5370111.47845  21434862.0314                   21434859.6954
  -9934953.07447  -7721566.88444  23037431.5944                   23037431.1844
    439756.12946    363899.14443  23749169.2584                   23749170.4024
 11  8 11 17 24  0.0000000  0 11G03G06G07G10G13G16G19G28G23G08G11
   4467529.86347   3490553.66944  21877070.2194                   21877069.9574
   8518533.13346   6638653.44243  23826478.7814                   23826478.9454
 -10786687.96547  -8402368.76645  21277229.7034                   21277228.5634
    532273.99646    414873.63343  24271125.9534                   24271127.4184
  -2774795.03547  -2143801.91346  20220382.9844                   20220381.4414
  13877340.22745  10801090.94943  24487029.9224                   24487029.7114
  -7632479.84447  -5927820.11446  20891786.3134                   20891783.6524
    139682.18046    134235.34743  23690840.4304                   23690841.1684
   6888047.01247   5371285.06545  21435148.6174                   21435146.0824
 -10094061.28947  -7845547.29544  23007154.7344                   23007154.5164
    273194.13746    234110.65743  23717473.7664                   23717474.5514
 11  8 11 17 24 30.0000000  0 11G03G06G07G10G13G16G19G28G23G08G11
   4460126.37147   3484784.71344  21875661.6884                   21875660.6214
   8521925.21946   6641296.53043  23827124.3914                   23827124.3014
 -10924405.80547  -8509681.36046  21251023.1094                   21251021.7624
    489824.37146    381795.91243  24263048.1414                   24263050.4454
  -2821733.50847  -2180377.36146  20211450.6884                   20211449.6254
  13877676.76645  10801353.10943  24487092.8364                   24487093.7464
  -7707394.55947  -5986195.23446  20877531.0234                   20877527.9844
     -6522.96546     20309.37843  23663019.6414                   23663019.1764
   6889844.11347   5372685.32345  21435490.3674                   21435488.4494
 -10253291.91047  -7969623.07944  22976854.1254                   22976854.0354
    106564.40646    104269.34943  23685764.9304                   23685766.0704
 11  8 11 17 25  0.0000000  0 11G03G06G07G10G13G16G19G28G23G08G11
   4453061.25847   3479279.39944  21874316.9144                   21874316.5314
   8525496.67246   6644079.44843  23827805.2274                   23827804.5634
 -11062086.90247  -8616965.32446  21224822.8674                   21224822.1094
    447574.55146    348873.87743  24255008.8204                   24255009.9454
  -2868181.44547  -2216570.59046  20202612.1024                   20202610.8134
  13877848.76246  10801487.06743  24487127.4304                   24487126.6334
  -7781774.60548  -6044153.71946  20863376.7424                   20863373.7974
   -152592.91446    -93511.32843  23635222.0554                   23635222.2854
   6891935.63747   5374315.00845  21435888.9774                   21435886.4804
 -10412638.04747  -8093788.91044  22946530.9614                   22946531.0664
    -60124.43446    -25617.98943  23654045.1094                   23654046.1764
 11  8 11 17 25 30.0000000  0 11G03G06G07G10G13G16G19G28G23G08G11
   4446324.81647   3474030.23744  21873035.2814                   21873035.1804
   8529238.12146   6646994.87743  23828516.5084                   23828516.1604
 -11199736.19947  -8724224.49045  21198629.0704                   21198628.5044
    405515.40646    316100.48743  24247004.1484                   24247007.1174
  -2914146.88347  -2252387.83846  20193864.7894                   20193864.1764
  13877848.46146  10801486.75143  24487126.4454                   24487127.0314
  -7855627.29747  -6101701.27446  20849323.1174                   20849320.3444
   -298534.62146   -207232.09143  23607450.0864                   23607451.0314
   6894311.98047   5376166.63045  21436340.7344                   21436338.7464
 -10572105.66847  -8218049.31244  22916185.6484                   22916186.0594
   -226876.26646   -155554.41743  23622312.8134                   23622313.6644
 11  8 11 17 26  0.0000000  0 11G03G06G07G10G13G16G19G28G23G08G11
   4439921.62147   3469040.71345  21871816.6414                   21871816.3014
   8533154.51646   6650046.51843  23829261.2114                   23829261.1214
 -11337345.02747  -8831452.12445  21172442.9534                   21172442.2274
    363651.46946    283479.10743  24239038.4144                   24239040.1174
  -2959623.18048  -2287823.94146  20185211.5084                   20185209.9614
  13877682.26246  10801357.18243  24487095.1564                   24487095.2624
  -7928945.59047  -6158832.39846  20835371.0234                   20835368.1914
   -444340.71546   -320847.19343  23579704.6024                   23579704.9694
   6896978.04747   5378244.01845  21436848.4774                   21436846.8094
 -10731686.39847  -8342397.91444  22885818.9064                   22885818.3444
   -393680.90246   -285531.94343  23590570.3524                   23590572.6174
 11  8 11 17 26 30.0000000  0 11G03G06G07G10G13G16G19G28G23G08G11
   6009266.19547   4691906.60944  22170452.3984                   22170452.0824
  10112660.09846   7880830.05043  24129831.9924                   24129832.0984
  -9899490.21547  -7711045.77446  21446057.6954                   21446056.7384
   1897398.42646   1478606.51443  24530901.2114                   24530902.8674
  -1429192.94148  -1095280.91746  20476442.3674                   20476441.1564
  15452766.72346  12028695.64943  24786823.7584                   24786823.8054
  -6426310.50447  -4987947.92846  21121312.8834                   21121309.5164
    985410.29746    793244.51843  23851776.8984                   23851777.3634
   8475348.05147   6608142.63045  21737202.4144                   21737199.6764
  -9315957.40647  -7239232.44544  23155223.1254                   23155222.5904
   1014887.17646    812053.65443  23858612.6804                   23858614.3054
 11  8 11 17 27  0.0000000  0 11G03G06G07G10G13G16G19G28G23G08G11
   6003514.75047   4687424.99644  22169358.2504                   22169358.1644
  10116912.01646   7884143.23143  24130639.9614                   24130641.4924
 -10037020.25847  -7818212.00846  21419886.8524                   21419885.5824
   1855910.42246   1446278.18043  24523005.8914                   24523007.1994
  -1473701.19548  -1129962.69346  20467972.7424                   20467971.5474
  15452259.69146  12028300.46743  24786727.0704                   24786727.1214
  -6498568.13347  -5044252.57646  21107562.9144                   21107559.5124
    839867.93846    679834.96043  23824081.0234                   23824081.6954
   8478579.17647   6610660.32845  21737817.2974                   21737815.2304
  -9475769.29747  -7363761.18144  23124812.0314                   23124811.6564
    847979.05546    681995.44043  23826850.9224                   23826852.0594
 11  8 11 17 27 30.0000000  0 11G03G06G07G10G13G16G19G28G23G08G11
   5998081.01247   4683190.94344  22168324.4384                   22168324.1884
  10121323.85245   7887580.92343  24131480.3364                   24131480.7854
 -10174512.92647  -7925349.13946  21393723.0394                   21393721.4224
   1814602.56346   1414090.17643  24515145.2584                   24515146.7194
  -1517731.18048  -1164271.81546  20459594.3754                   20459593.1134
  15451577.18846  12027768.60743  24786597.7814                   24786596.9884
  -6570300.47747  -5100147.90646  21093912.4844                   21093909.6524
    694453.19146    566524.84543  23796409.4064                   23796410.3954
   8482084.81347   6613391.91745  21738484.5084                   21738482.4804
  -9635699.76647  -7488382.30744  23094378.2664                   23094377.9304
    681019.04346    551896.79643  23795079.3524                   23795080.5084
 11  8 11 17 28  0.0000000  0 11G03G06G07G10G13G16G19G28G23G08G11
   5992964.75047   4679204.24344  22167351.0084                   22167350.8094
  10125895.50446   7891143.20343  24132350.3594                   24132350.2384
 -10311964.35547  -8032454.14146  21367566.5234                   21367565.2544
   1773474.53146   1382042.29243  24507318.9384                   24507321.1954
  -1561281.59448  -1198207.22946  20451307.1564                   20451305.4184
  15450720.40646  12027100.95243  24786434.8134                   24786433.4304
  -6641505.63347  -5155632.44446  21080362.5704                   21080359.7814
    549168.18846    453315.78243  23768763.4304                   23768763.3094
   8485864.81347   6616337.26645  21739204.1954                   21739201.7154
  -9795745.11347  -7613092.88944  23063922.1954                   23063922.1764
    514012.90646    421762.19843  23763299.2504                   23763299.4924
 11  8 11 17 28 30.0000000  0 11G03G06G07G10G13G16G19G28G23G08G11
   5988154.70747   4675456.17344  22166435.3204                   22166435.2384
  10130615.52746   7894821.07743  24133248.3984                   24133248.8444
 -10449381.69147  -8139532.56746  21341416.7424                   21341415.7854
   1732514.87146   1350125.52943  24499525.0554                   24499526.7624
  -1604362.55548  -1231776.84246  20443109.0314                   20443107.5084
  15449679.55546  12026289.91442  24786236.4144                   24786236.2734
  -6712192.79347  -5210713.35846  21066911.7664                   21066908.4654
    404003.81646    340200.77043  23741139.2274                   23741138.8914
   8489907.66447   6619487.47445  21739973.1954                   21739971.0944
  -9955913.25847  -7737899.20644  23033442.8984                   23033443.1484
    346954.66046    291587.03043  23731509.0234                   23731509.6724
 11  8 11 17 29  0.0000000  0 11G03G06G07G10G13G16G19G28G23G08G11
   5983651.84447   4671947.46944  22165578.5554                   22165578.2234
  10135485.69346   7898616.07143  24134174.6644                   24134175.0704
 -10586759.45747  -8246580.17046  21315274.8054                   21315273.3794
   1691725.09046   1318341.24843  24491762.5314                   24491764.8134
  -1646970.88748  -1264978.16546  20435000.8284                   20434999.4144
  15448458.48846  12025338.37542  24786003.6644                   24786003.4884
  -6782358.39147  -5265387.83746  21053559.3984                   21053556.3954
    258963.94546    227182.70643  23713539.4454                   23713539.0904
   8494215.43047   6622844.09445  21740792.7504                   21740791.0274
 -10116199.19947  -7862797.31444  23002941.7894                   23002941.9064
    179851.46946    161376.85143  23699710.1954                   23699711.1414
 11  8 11 17 29 30.0000000  0 11G03G06G07G10G13G16G19G28G23G08G11
   5979448.54347   4668672.15144  22164778.8204                   22164778.6174
  10140498.64146   7902522.03743  24135129.1484                   24135128.8134
 -10724100.82847  -8353599.39646  21289139.4144                   21289138.4964
   1651097.64846   1286683.42242  24484031.7814                   24484032.4654
  -1689112.75048  -1297816.00146  20426981.5164                   20426979.9344
  15447051.45746  12024241.93442  24785736.5314                   24785735.7854
  -6852008.03547  -5319660.27746  21040305.6174                   21040302.2194
    114043.52746    114257.82143  23685961.6024                   23685962.0354
   8498780.44547   6626401.16945  21741661.7894                   21741660.0354
 -10276607.10246  -7987790.45844  22972417.0234                   22972417.0274
     12701.44546     31130.15143  23667903.0314                   23667903.7974
 11  8 11 17 30  0.0000000  0 11G03G06G07G10G13G16G19G28G23G08G11
   5975535.86347   4665623.30644  22164033.9614                   22164034.1094
  10145645.93046   7906532.89243  24136108.5784                   24136109.0124
 -10861410.27047  -8460593.77846  21263010.6724                   21263009.4694
   1610624.12546   1255145.53343  24476329.7114                   24476331.7504
  -1730795.48848  -1330296.08846  20419049.6884                   20419048.7274
  15445451.56645  12022995.21942  24785432.6724                   24785431.5124
  -6921148.41047  -5373535.90446  21027148.6414                   21027145.6884
    -30763.84046      1420.90943  23658405.8364                   23658405.3794
   8503593.85947   6630151.81145  21742577.5864                   21742575.7734
 -10437141.97346  -8112882.51944  22941868.4454                   22941867.2114
   -154498.33646    -99155.34943  23636085.3054                   23636086.9184
 11  8 11 17 30 30.0000000  0 11G03G06G07G10G13G16G19G28G23G08G11
   5971913.29347   4662800.51944  22163344.8444                   22163344.6174
  10150927.11746   7910647.98843  24137113.5704                   24137114.1954
 -10998684.05947  -8567560.36946  21236888.3524                   21236886.9494
   1570304.07445   1223727.28843  24468657.5314                   24468659.8674
  -1772018.07848  -1362417.62246  20411205.0864                   20411204.0004
  15443660.52045  12021599.57442  24785091.1564                   24785089.3094
  -6989778.21547  -5427013.67246  21014088.9844                   21014085.7034
   -175455.78146   -111325.97443  23630871.8134                   23630872.0944
   8508655.38747   6634095.76045  21743540.9774                   21743538.5004
 -10597800.53546  -8238070.97044  22911296.4384                   22911295.3364
   -321743.07846   -229475.81743  23604260.1804                   23604260.8594
 11  8 11 17 31  0.0000000  0 11G03G06G07G10G13G16G19G28G23G08G11
   5968575.25047   4660199.42544  22162709.8444                   22162709.5274
  10156336.64546   7914863.25043  24138143.7734                   24138143.7934
 -11135923.76648  -8674500.36446  21210772.7424                   21210770.7544
   1530131.78146   1192424.00543  24461012.1414                   24461014.6214
  -1812784.78148  -1394183.90246  20403447.6414                   20403446.4454
  15441673.98046  12020051.64842  24784712.8524                   24784710.5354
  -7057900.89147  -5480096.26346  21001125.6254                   21001122.6134
   -320036.07846   -223985.87443  23603358.6564                   23603359.5044
   8513959.53547   6638228.78345  21744550.2894                   21744548.4224
 -10758585.18747  -8363357.68244  22880700.0004                   22880699.6804
   -489032.59446   -359831.18943  23572425.9924                   23572426.9064
 11  8 11 17 31 30.0000000  0 11G03G06G07G10G13G16G19G28G23G08G11
   5965525.05947   4657822.60544  22162129.7974                   22162129.3244
  10161878.07446   7919181.17543  24139197.8984                   24139197.6954
 -11273121.75847  -8781407.86746  21184664.1564                   21184662.8874
   1490110.86346   1161238.89843  24453397.0784                   24453399.4144
  -1853090.89848  -1425591.30046  20395777.6724                   20395776.8054
  15439497.53946  12018355.56642  24784298.3754                   24784297.6804
  -7125511.12948  -5532779.56846  20988259.5474                   20988256.2624
   -464498.86346   -336554.21443  23575868.0784                   23575867.9144
   8519509.30147   6642553.21945  21745606.8444                   21745604.4184
 -10919489.13347  -8488737.34744  22850080.8674                   22850079.9384
   -656358.12547   -490214.62543  23540584.9534                   23540585.5394
 11  8 11 17 32  0.0000000  0 11G03G06G07G10G13G16G19G28G23G08G11
   5962756.41447   4655665.17044  22161602.6954                   22161602.2814
  10167545.49646   7923597.24743  24140276.3914                   24140276.3634
 -11410280.13347  -8888284.51646  21158564.4144                   21158562.4144
   1450234.60245   1130166.39743  24445808.3134                   24445810.0084
  -1892941.34448  -1456643.62746  20388194.5704                   20388193.3134
  15437127.15646  12016508.50842  24783848.4064                   24783846.9224
  -7192613.39548  -5585067.05146  20975490.5784                   20975487.5784
   -608847.55546   -449033.60943  23548399.7274                   23548400.2894
   8525299.13347   6647064.69445  21746708.2814                   21746705.4774
 -11080514.78147  -8614211.84544  22819438.7814                   22819438.0514
   -823720.05546   -620626.44443  23508736.8754                   23508736.8594
 11  8 11 17 32 30.0000000  0 11G03G06G07G10G13G16G19G28G23G08G11
   5960260.02747   4653719.88044  22161127.7814                   22161127.2424
  10173330.14846   7928104.74243  24141377.3054                   24141377.3634
 -11547403.21947  -8995133.66346  21132470.7274                   21132468.6764
   1410494.21145   1099199.70743  24438246.4224                   24438247.9264
  -1932343.75447  -1487346.83146  20380696.4304                   20380695.2814
  15434555.90246  12014504.84842  24783359.9384                   24783358.1134
  -7259214.68747  -5636964.15546  20962816.8284                   20962813.9224
   -753089.00846   -561429.51543  23520951.0084                   23520951.6294
   8531319.79747   6651756.05345  21747854.0314                   21747852.1994
 -11241667.12547  -8739785.05144  22788772.1174                   22788771.9884
   -991121.72746   -751069.24343  23476881.5784                   23476882.1024
 11  8 11 17 33  0.0000000  0 11G03G06G07G10G13G16G19G28G23G08G11
   5958032.23047   4651983.90044  22160703.9384                   22160703.7384
  10179228.31646   7932700.71943  24142499.5864                   24142499.5904
 -11684490.71148  -9101955.07446  21106383.7894                   21106382.1334
   1370886.28946   1068336.28643  24430709.7034                   24430711.3594
  -1971300.16048  -1517702.49346  20373283.1954                   20373282.0314
  15431781.73446  12012343.15843  24782830.7034                   24782830.6294
  -7325316.69547  -5688472.21946  20950237.8204                   20950234.9494
   -897224.40246   -673742.78543  23493523.3364                   23493523.5514
   8537567.53947   6656624.32545  21749042.9454                   21749041.1414
 -11402946.44547  -8865457.23644  22758081.6414                   22758080.7734
  -1158561.07046   -881541.37143  23445019.0004                   23445019.7344
 11  8 11 17 33 30.0000000  0 11G03G06G07G10G13G16G19G28G23G08G11
   5956064.87547   4650450.80744  22160329.4144                   22160329.0164
  10185231.92246   7937378.84943  24143641.8134                   24143642.0824
 -11821546.72348  -9208751.96446  21080302.4694                   21080300.7704
   1331402.41846   1037569.55243  24423195.5314                   24423198.0274
  -2009817.97348  -1547716.41946  20365953.3134                   20365952.2424
  15428798.30546  12010018.40343  24782263.3834                   24782263.0744
  -7390926.18747  -5739596.51046  20937752.8364                   20937749.3984
  -1041259.94146   -785978.23543  23466114.5234                   23466113.8594
   8544034.10547   6661663.13145  21750273.5314                   21750271.4844
 -11564357.30547  -8991231.88744  22727366.2894                   22727365.8874
  -1326040.96946  -1012045.12543  23413148.1804                   23413148.6134
 11  8 11 17 34  0.0000000  0 11G03G06G07G10G13G16G19G28G23G08G11
   5954361.49647   4649123.40344  22160005.1564                   22160005.1294
  10191345.16446   7942142.38343  24144805.5704                   24144806.0704
 -11958562.85248  -9315517.76846  21054229.1414                   21054227.8634
   1292046.68846   1006902.63143  24415706.8914                   24415708.9804
  -2047891.80148  -1577384.36246  20358708.2974                   20358707.4024
  15425611.79746  12007535.38743  24781656.8834                   24781656.4694
  -7456037.13347  -5790332.30246  20925362.4614                   20925359.4384
  -1185189.28146   -898130.90043  23438725.7894                   23438726.0044
   8550723.52347   6666875.58545  21751546.6484                   21751544.9804
 -11725892.21947  -9117103.22444  22696627.1644                   22696626.8754
  -1493551.53146  -1142572.68343  23381271.7814                   23381271.6994
 11  8 11 17 34 30.0000000  0 10G03G06G07G10G13G19G28G23G08G11
   5952917.41847   4647998.07644  22159730.6174                   22159730.4104
  10197563.66846   7946987.93843  24145988.5864                   24145988.8204
 -12095539.37948  -9422252.72446  21028163.6094                   21028162.2734
   1252814.52746    976332.08743  24408241.2974                   24408243.7344
  -2085524.93748  -1606708.92646  20351547.0704                   20351545.8014
  -7520652.61347  -5840682.02846  20913066.3984                   20913063.3594
  -1329014.25446  -1010202.28243  23411355.3914                   23411356.9924
   8557631.56347   6672258.34845  21752861.1644                   21752859.4654
 -11887551.63747  -9243071.57544  22665864.7344                   22665863.4024
  -1661091.74246  -1273123.45543  23349389.8754                   23349390.3754
 11  8 11 17 35  0.0000000  0 10G03G06G07G10G13G19G28G23G08G11
   5951741.43446   4647081.65744  22159506.7034                   22159506.2624
  10203896.73445   7951922.79243  24147192.9924                   24147193.6524
 -12232462.95747  -9528946.41346  21002107.5314                   21002106.1134
   1213714.78146    945864.63243  24400800.8754                   24400802.9734
  -2122707.43748  -1635682.34146  20344471.2114                   20344470.2894
  -7584761.52748  -5890637.03246  20900866.9694                   20900864.2504
  -1472723.52346  -1122183.43743  23384009.4454                   23384010.1644
   8564766.68447   6677818.09445  21754219.1954                   21754217.1054
 -12049322.90647  -9369127.11544  22635080.6024                   22635079.7464
  -1828646.97346  -1403685.83843  23317504.6484                   23317505.4064
 11  8 11 17 35 30.0000000  0 10G03G06G07G10G13G19G28G23G08G11
   7526272.42647   5873988.82944  22459130.2194                   22459129.9884
  11785782.80946   9184561.25643  24448217.0944                   24448216.8714
 -10793886.28547  -8407977.57546  21275859.7814                   21275858.2034
   2750187.32846   2143115.92543  24693182.3594                   24693184.5164
   -583998.33248   -436688.26946  20637278.4924                   20637276.8594
  -6072921.47747  -4712579.85246  21188560.8204                   21188557.8554
    -40871.81646     -6454.80443  23656481.7034                   23656481.6884
  10147567.18847   7911169.03445  22055416.0784                   22055415.0354
 -10635758.40247  -8267648.20544  22904072.7034                   22904072.3984
   -420767.21946   -306636.54343  23585415.2584                   23585416.2034
 11  8 11 17 36  0.0000000  0 10G03G06G07G10G13G19G28G23G08G11
   7525672.23047   5873521.10544  22459016.1414                   22459015.6844
  11792384.88346   9189705.68243  24449473.0784                   24449473.5354
 -10930651.93048  -8514548.19046  21249834.3204                   21249832.6094
   2711391.87546   2112885.53943  24685799.1174                   24685802.3714
   -620236.38348   -464925.75146  20630382.5234                   20630381.2734
  -6135972.84447  -4761710.78146  21176562.3984                   21176559.5904
   -184303.60246   -118219.72443  23629186.7194                   23629187.0234
  10155196.21547   7917113.67445  22056868.0164                   22056866.4614
 -10797703.06247  -8393838.85444  22873255.5704                   22873255.6684
   -588295.43446   -437177.92143  23553535.8134                   23553536.3484
 11  8 11 17 36 30.0000000  0 10G03G06G07G10G13G19G28G23G08G11
   7525360.26647   5873277.96944  22458956.8524                   22458956.7304
  11799122.25846   9194955.53643  24450754.8204                   24450754.7384
 -11067331.30947  -8621051.59646  21223824.9774                   21223823.5394
   2672749.10246   2082774.22143  24678446.2344                   24678449.0514
   -655999.71948   -492793.32446  20623576.7274                   20623575.2734
  -6198492.26247  -4810427.20646  21164665.2274                   21164662.5164
   -327592.55146   -229873.40843  23601920.6254                   23601920.3094
  10163072.91447   7923251.24945  22058366.6724                   22058365.1524
 -10959728.17647  -8520092.12344  22842423.2274                   22842423.3054
   -755801.34446   -567701.87943  23521660.7504                   23521661.3484
 11  8 11 17 37  0.0000000  0 10G03G06G07G10G13G19G28G23G08G11
   7525330.45346   5873254.69544  22458951.4774                   22458950.3954
  11805988.85946   9200306.11643  24452061.7424                   24452062.2344
 -11203926.75048  -8727489.57846  21197831.5784                   21197830.0944
   2634252.95746   2052777.10542  24671120.7814                   24671123.3134
   -691293.20748   -520294.78646  20616860.8674                   20616859.5394
  -6260484.48047  -4858732.82546  21152868.8524                   21152865.8244
   -470742.52346   -341418.74143  23574680.3834                   23574680.2424
  10171191.08247   7929577.00645  22059911.5944                   22059910.6334
 -11121836.40647  -8646410.24044  22811574.9844                   22811574.5004
   -923285.23846   -698208.73243  23489788.9614                   23489789.8524
 11  8 11 17 37 30.0000000  0 10G03G06G07G10G13G19G28G23G08G11
   7525584.26246   5873452.43344  22458999.7974                   22458998.9344
  11812987.07845   9205759.22943  24453393.6884                   24453394.2934
 -11340431.40648  -8833856.82746  21171855.7504                   21171854.2464
   2595905.43446   2022895.84043  24663823.0164                   24663825.2384
   -726113.93448   -547427.84546  20610234.4454                   20610233.5904
  -6321945.72747  -4906624.68746  21141172.9534                   21141169.9384
   -613749.29346   -452852.55544  23547466.6804                   23547466.2194
  10179552.51647   7936092.33345  22061502.7974                   22061501.5554
 -11284021.54747  -8772788.21644  22780712.3204                   22780711.8444
  -1090739.48446   -828692.51643  23457923.0784                   23457924.6994
 11  8 11 17 38  0.0000000  0 10G03G06G07G10G13G19G28G23G08G11
   7526112.05946   5873863.70444  22459099.7274                   22459099.3594
  11820107.69546   9211307.63443  24454748.6484                   24454749.3954
 -11476850.54748  -8940157.44246  21145895.9924                   21145894.1764
   2557697.32846   1993123.16443  24656552.2274                   24656554.8714
   -760470.78548   -574199.46946  20603696.5634                   20603695.5984
  -6382883.94947  -4954109.00246  21129576.6174                   21129573.8874
   -756620.05147   -564180.31444  23520278.9454                   23520278.7504
  10188147.68447   7942789.76545  22063138.6954                   22063137.2704
 -11446289.66847  -8899230.87644  22749833.4774                   22749832.9494
  -1258167.81246   -959156.07843  23426063.0314                   23426063.1414
 11  8 11 17 38 30.0000000  0 10G03G06G07G10G13G19G28G23G08G11
   7526917.18046   5874491.04844  22459252.7344                   22459252.3484
  11827354.07046   9216954.10743  24456127.4774                   24456129.0554
 -11613176.52047  -9046385.47246  21119953.9454                   21119952.4964
   2519631.60246   1963461.45342  24649308.6724                   24649312.0704
   -794359.01648   -600605.91946  20597248.0864                   20597246.9614
  -6443294.10947  -5001181.84546  21118081.0474                   21118078.1914
   -899348.81646   -675397.46844  23493118.5554                   23493118.4774
  10196979.98847   7949671.99745  22064819.5474                   22064817.9414
 -11608633.64547  -9025732.63844  22718940.6644                   22718940.4614
  -1425561.08246  -1089592.27343  23394208.8444                   23394209.3984
 11  8 11 17 39  0.0000000  0 10G03G06G07G10G13G19G28G23G08G11
   7527991.68846   5875328.34244  22459457.4924                   22459456.8794
  11834718.56346   9222692.66843  24457529.2114                   24457530.0234
 -11749413.10547  -9152543.83046  21094029.1024                   21094027.6804
   2481700.43846   1933904.60943  24642091.2194                   24642093.6684
   -827785.22748   -626652.34846  20590887.1024                   20590885.9844
  -6503182.49247  -5047848.10446  21106684.0164                   21106682.1024
  -1041941.25447   -786508.41743  23465984.1644                   23465983.6994
  10206041.56647   7956732.89545  22066543.8754                   22066542.4344
 -11771057.37147  -9152296.52444  22688032.3364                   22688031.8914
  -1592921.48046  -1220002.86643  23362361.6024                   23362362.3554
 11  8 11 17 39 30.0000000  0 10G03G06G07G10G13G19G28G23G08G11
   7529329.18847   5876370.51844  22459711.7424                   22459711.4144
  11842195.19546   9228518.47743  24458952.0864                   24458952.3444
 -11885561.99647  -9258633.86446  21068120.7584                   21068119.4494
   2443897.14546   1904447.37043  24634897.8594                   24634900.2114
   -860754.84448   -652343.00446  20584613.2274                   20584612.0434
  -6562554.16847  -5094111.72946  21095386.6414                   21095383.7704
  -1184401.83647   -897516.58043  23438874.9384                   23438874.5274
  10215325.84047   7963967.28445  22068310.4614                   22068309.0124
 -11933563.73447  -9278924.84644  22657108.3914                   22657108.4804
  -1760249.66046  -1350388.42643  23330519.3834                   23330520.6214
 11  8 11 17 40  0.0000000  0 10G03G06G07G10G13G19G28G23G08G11
   7530926.21546   5877614.99644  22460015.8754                   22460014.6604
  11849780.90246   9234429.38943  24460396.0314                   24460396.0164
 -12021622.11747  -9364654.71646  21042229.7034                   21042227.8284
   2406218.87146   1875087.53142  24627727.7814                   24627730.1914
   -893269.85948   -677679.42846  20578425.7114                   20578424.5274
  -6621410.59847  -5139973.87246  21084186.8204                   21084183.6564
  -1326730.94946  -1008422.30043  23411790.3444                   23411789.5514
  10224829.85547   7971372.91845  22070119.2034                   22070117.6914
 -12096151.59847  -9405616.63044  22626169.1334                   22626168.2384
  -1927543.04346  -1480746.82043  23298685.2664                   23298686.0394
 11  8 11 17 40 30.0000000  0 10G03G06G07G10G13G19G28G23G08G11
   7532778.78147   5879058.52344  22460368.3754                   22460367.7384
  11857472.09046   9240422.49243  24461859.1954                   24461859.6644
 -12157592.72348  -9470605.83746  21016355.3594                   21016353.5704
   2368661.28946   1845821.82042  24620581.2974                   24620583.6174
   -925333.33247   -702663.98946  20572324.4224                   20572323.1884
  -6679754.25047  -5185436.44346  21073084.1724                   21073081.3134
  -1468930.16447  -1119226.81443  23384730.8444                   23384729.7504
  10234549.44547   7978946.55445  22071968.5164                   22071967.2974
 -12258820.81247  -9532371.83844  22595214.0944                   22595213.7234
  -2094799.84046  -1611076.71644  23266856.6724                   23266857.9414
 11  8 11 17 41  0.0000000  0 10G03G06G07G10G13G19G28G23G08G11
   7534884.85246   5880699.64444  22460768.8054                   22460768.4384
  11865266.88346   9246496.31343  24463342.3984                   24463342.9774
 -12293471.54748  -9576485.42446  20990498.1954                   20990496.4924
   2331222.87946   1816648.91743  24613457.4924                   24613459.1954
   -956946.57447   -727297.71646  20566308.6954                   20566307.7544
  -6737585.52747  -5230499.78146  21062079.0784                   21062076.4454
  -1610999.66447  -1229930.23043  23357695.6414                   23357695.9304
  10244482.70747   7986686.66745  22073859.1414                   22073857.6644
 -12421569.86347  -9659189.21744  22564243.3524                   22564243.1374
  -2262016.14846  -1741375.10443  23235037.0314                   23235037.1134
 11  8 11 17 41 30.0000000  0 10G03G06G07G10G13G19G28G23G08G11
   7537230.59447   5882527.48244  22461215.5784                   22461214.9184
  11873152.21545   9252640.60942  24464841.9614                   24464843.9104
 -12429267.55948  -9682300.48946  20964657.1094                   20964655.7114
   2293890.04746   1787558.33642  24606352.6724                   24606354.9534
   -988121.72348   -751590.09446  20560376.1644                   20560375.1844
  -6794916.53947  -5275173.29546  21051169.6024                   21051166.7034
  -1752950.04747  -1340540.86043  23330683.1644                   23330683.2624
  10254615.94547   7994582.59245  22075787.7894                   22075785.4384
 -12584408.15647  -9786076.19744  22533256.7424                   22533256.1844
  -2429199.67247  -1871647.93443  23203223.5314                   23203223.2934
 11  8 11 17 42  0.0000000  0 10G03G06G07G10G13G19G28G23G08G11
   7539830.60547   5884553.41244  22461710.3674                   22461709.7814
  11881143.06346   9258867.23043  24466364.1174                   24466364.9024
 -12564961.81648  -9788036.30546  20938835.2974                   20938833.8164
   2256677.56346   1758561.49043  24599271.1724                   24599274.1374
  -1018843.12148   -775528.88046  20554530.3984                   20554529.0004
  -6851731.01647  -5319444.32246  21040358.0634                   21040355.5164
  -1894764.75846  -1451045.78943  23303697.0474                   23303696.0314
  10264963.96947   8002645.87145  22077756.5704                   22077755.1954
 -12747317.18047  -9913018.25944  22502255.9224                   22502255.8244
  -2596329.76247  -2001879.16143  23171418.9144                   23171419.6684
 11  8 11 17 42 30.0000000  0 10G03G06G07G10G13G19G28G23G08G11
   7542680.82847   5886774.33944  22462253.5944                   22462252.4734
  11889235.65646   9265173.15943  24467903.7114                   24467904.5634
 -12700553.96548  -9893692.51546  20913032.9844                   20913031.5634
   2219581.30946   1729655.23343  24592212.8674                   24592215.2774
  -1049113.96947   -799116.60246  20548769.7194                   20548768.4694
  -6908031.56647  -5363314.87146  21029644.5944                   21029641.7114
  -2036445.33647  -1561446.19343  23276736.0234                   23276734.8954
  10275522.75047   8010873.40545  22079765.9774                   22079764.9804
 -12910297.03147 -10040015.49544  22471241.4384                   22471241.7774
  -2763404.83647  -2132067.52143  23139625.0314                   23139626.3914
 11  8 11 17 43  0.0000000  0 10G03G06G07G10G13G19G28G23G08G11
   7545786.53546   5889194.37044  22462843.7584                   22462843.1954
  11897435.50446   9271562.46643  24469464.6804                   24469465.0394
 -12836033.81647  -9999261.23746  20887252.1724                   20887250.7584
   2182606.46146   1700843.52342  24585176.6804                   24585179.3914
  -1078928.15248   -822348.47346  20543096.4304                   20543095.1804
  -6963811.68447  -5406779.90546  21019029.4454                   21019027.0824
  -2177984.48046  -1671736.35343  23249801.1334                   23249801.4494
  10286297.28947   8019269.04045  22081817.2504                   22081815.1884
 -13073338.44947 -10167060.70844  22440216.5784                   22440216.4614
  -2930413.90246  -2262204.44544  23107845.3054                   23107846.2304
 11  8 11 17 43 30.0000000  0 10G03G06G07G10G13G19G28G23G08G11
   7549144.08646   5891810.61444  22463483.0784                   22463482.3404
  11905739.28946   9278032.91543  24471044.3594                   24471045.4614
 -12971400.70748 -10104741.93646  20861492.5554                   20861491.2464
   2145749.69946   1672123.87942  24578162.7894                   24578165.7934
  -1108288.21948   -845226.49146  20537509.0234                   20537508.3244
  -7019073.30147  -5449840.94046  21008513.8834                   21008510.8094
  -2319383.27346  -1781917.19643  23222894.4384                   23222893.9064
  10297284.25047   8027830.16545  22083907.0864                   22083906.6804
 -13236441.06647 -10294153.65344  22409178.9454                   22409178.1524
  -3097354.51247  -2392288.02044  23076077.5784                   23076077.4454
 11  8 11 17 44  0.0000000  0 10G03G06G07G10G13G19G28G23G08G11
   7552753.32846   5894622.96444  22464169.2734                   22464168.9144
  11914147.48046   9284584.71243  24472644.6414                   24472645.0124
 -13106650.07047 -10210131.03846  20835755.2344                   20835753.5784
   2109011.30546   1643496.47342  24571172.5004                   24571174.4884
  -1137193.23048   -867749.92546  20532008.9064                   20532007.9614
  -7073815.10247  -5492496.89846  20998097.0084                   20998093.9184
  -2460639.28546  -1891986.78343  23196014.0784                   23196013.8594
  10308483.55947   8036556.81245  22086038.4614                   22086037.7624
 -13399601.26647 -10421291.40044  22378130.7894                   22378130.1094
  -3264220.96546  -2522313.77244  23044323.9454                   23044323.1764
 11  8 11 17 44 30.0000000  0 10G03G06G07G10G13G19G28G23G08G11
   9132033.21546   7125230.60144  22764695.8914                   22764696.4064
  13498078.92646  10518816.92943  24774056.2114                   24774056.9574
 -11666354.07847  -9087822.46346  21109834.2194                   21109832.8014
   3647811.10546   2842561.16042  24863994.8594                   24863999.3594
    409777.75847    337681.97646  20826387.6564                   20826386.9924
  -5552614.95747  -4307146.17346  21287571.3984                   21287568.5164
  -1026326.64147   -774340.45543  23468955.0704                   23468954.4654
  11895313.75847   9273047.76145  22388002.5704                   22388001.4104
 -11987390.13347  -9320867.11844  22646864.6174                   22646864.5354
  -1855582.60946  -1424673.49844  23312378.3364                   23312378.4344
 11  8 11 17 45  0.0000000  0 10G03G06G07G10G13G19G28G23G08G11
   9136135.70346   7128427.26444  22765476.9224                   22765477.2274
  13506686.77046  10525524.26043  24775695.2734                   24775695.2934
 -11801365.22347  -9193025.91346  21084142.6484                   21084141.3984
   3611298.23046   2814109.39842  24857048.2974                   24857050.3444
    381775.69548    315862.14946  20821059.0634                   20821058.3094
  -5606323.12947  -4348996.71646  21277351.2424                   21277348.7304
  -1167300.23847   -884190.00044  23442128.7194                   23442128.1684
  11906927.66047   9282097.43845  22390212.6564                   22390210.9734
 -12150662.42647  -9448092.24744  22615795.4064                   22615794.7894
  -2022292.87146  -1554577.59044  23280654.7274                   23280655.3094
 11  8 11 17 45 30.0000000  0 10G03G06G07G10G13G19G28G23G08G11
   9140472.80246   7131806.71344  22766302.8984                   22766302.3054
  13515383.30146  10532300.70143  24777349.2274                   24777350.5314
 -11936261.79747  -9298140.10846  21058472.8594                   21058471.8204
   3574886.68446   2785736.66042  24850119.1954                   24850121.7814
    354214.62548    294385.95046  20815814.7734                   20815813.6484
  -5659524.13347  -4390452.07446  21267227.8674                   21267224.8054
  -1308140.91847   -993935.97843  23415327.3594                   23415327.1254
  11918737.00847   9291299.41244  22392459.7274                   22392458.6994
 -12313996.30547  -9575365.36444  22584713.7814                   22584713.6454
  -2188927.78546  -1684422.95343  23248944.1024                   23248945.5514
 11  8 11 17 46  0.0000000  0 10G03G06G07G10G13G19G28G23G08G11
   9145038.86746   7135364.63744  22767171.3754                   22767171.5274
  13524163.07846  10539142.09442  24779020.1024                   24779020.5234
 -12071045.18447  -9403166.10546  21032824.1094                   21032822.9344
   3538570.80946   2757438.44142  24843208.5314                   24843211.0164
    327089.47748    273249.42046  20810652.8444                   20810651.9774
  -5712222.88747  -4431516.07746  21257198.9534                   21257196.5474
  -1448852.43747  -1103581.20444  23388550.9144                   23388551.0274
  11930736.00847   9300649.14444  22394743.1564                   22394742.1484
 -12477393.87947  -9702688.12244  22553619.9454                   22553620.3524
  -2355487.83246  -1814209.93544  23217249.2194                   23217249.8244
 11  8 11 17 46 30.0000000  0 10G03G06G07G10G13G19G28G23G08G11
   9149839.19546   7139105.04744  22768084.2734                   22768085.5864
  13533031.46946  10546052.49242  24780708.1414                   24780708.4064
 -12205705.99247  -9508096.60046  21007198.6024                   21007197.5664
   3502355.86746   2729218.86643  24836316.9384                   24836319.9184
    300406.44148    252457.39746  20805575.1024                   20805574.5474
  -5764412.25048  -4472183.14746  21247268.1564                   21247265.1524
  -1589426.94146  -1213119.79244  23361800.5164                   23361800.0904
  11942929.80147   9310150.69344  22397063.7424                   22397062.4884
 -12640845.90647  -9830053.32944  22522516.7114                   22522516.4884
  -2521961.72346  -1943929.82843  23185570.5634                   23185570.3284
 11  8 11 17 47  0.0000000  0 10G03G06G07G10G13G19G28G23G08G11
   9154862.09046   7143018.91144  22769040.7274                   22769041.3404
  13541977.50046  10553023.40242  24782410.6024                   24782409.8364
 -12340250.91448  -9612936.77246  20981596.3444                   20981594.9144
   3466230.33646   2701069.02943  24829443.0474                   24829445.3594
    274154.87548    232001.59346  20800580.1724                   20800578.9144
  -5816102.52047  -4512461.28346  21237431.7344                   21237428.9614
  -1729873.57446  -1322558.69044  23335074.3674                   23335074.1844
  11955306.98847   9319795.13844  22399419.0084                   22399417.9144
 -12804359.43747  -9957466.42645  22491401.2034                   22491400.5434
  -2688354.81647  -2073586.77843  23153907.1644                   23153907.0664
 11  8 11 17 47 30.0000000  0 10G03G06G07G10G13G19G28G23G08G11
   9160106.28546   7147105.22044  22770039.1094                   22770039.2814
  13551000.85945  10560054.53142  24784127.1334                   24784126.3834
 -12474676.03947  -9717683.62146  20956015.9694                   20956014.4614
   3430193.26646   2672988.02343  24822584.9224                   24822587.5594
    248334.94148    211882.11346  20795666.4924                   20795665.6414
  -5867293.42647  -4552350.30546  21227690.1954                   21227687.3204
  -1870191.37547  -1431897.17044  23308372.6414                   23308372.3524
  11967866.93847   9329582.00045  22401809.7584                   22401808.2154
 -12967930.84847 -10084924.60744  22460274.2194                   22460273.7464
  -2854662.21947  -2203176.89444  23122260.1334                   23122260.4104
 11  8 11 17 48  0.0000000  0 10G03G06G07G10G13G19G28G23G08G11
   9165568.35546   7151361.33343  22771077.8134                   22771078.5984
  13560097.52745  10567142.81642  24785858.1954                   24785858.9654
 -12608981.06647  -9822336.87646  20930458.7504                   20930457.2704
   3394240.72356   2644973.02352  24815743.2034                   24815746.1374
    222943.04748    192096.19446  20790834.4844                   20790833.6844
  -5917987.60947  -4591852.27246  21218043.5864                   21218040.9224
  -2010381.77047  -1541136.40144  23281695.4844                   23281695.5164
  11980605.23447   9339507.81544  22404233.2424                   22404232.4184
 -13131560.59447 -10212428.29944  22429136.5164                   22429136.3484
  -3020882.01246  -2332698.74444  23090629.2194                   23090629.9454
 11  8 11 17 48 30.0000000  0 10G03G06G07G10G13G19G28G23G08G11
   9171253.48446   7155791.18743  22772160.4304                   22772160.0944
  13569273.61346  10574292.93442  24787604.6484                   24787605.9774
 -12743155.44547  -9926888.32846  20904926.0394                   20904924.2704
   3358378.43846   2617028.21142  24808919.0004                   24808922.5394
    197985.52047    172648.71646  20786085.3524                   20786084.7384
  -5968178.59047  -4630962.11646  21208493.0314                   21208490.1214
  -2150437.20347  -1650270.46644  23255043.4534                   23255043.4104
  11993527.48047   9349576.99644  22406692.9454                   22406690.9694
 -13295238.93747 -10339969.82244  22397989.4924                   22397988.9264
  -3187002.79746  -2462143.39344  23059017.2194                   23059018.0164
 11  8 11 17 49  0.0000000  0 10G03G06G07G10G13G19G28G23G08G11
   9177161.46546   7160394.78143  22773284.8834                   22773284.6174
  13578529.52346  10581505.27042  24789366.3594                   24789368.0904
 -12877195.35948 -10031335.01946  20879418.8444                   20879417.6214
   3322606.24246   2589153.60942  24802111.4064                   24802116.0744
    173463.13348    153540.30846  20781418.8134                   20781417.7894
  -6017865.26647  -4669679.00746  21199036.9304                   21199034.5634
  -2290355.24747  -1759297.52044  23228418.2734                   23228417.7664
  12006633.27347   9359789.17244  22409186.4384                   22409185.6054
 -13458961.97347 -10467546.17944  22366834.1644                   22366833.6484
  -3353018.73847  -2591506.35644  23027425.5234                   23027425.8674
 11  8 11 17 49 30.0000000  0 10G03G06G07G10G13G19G28G23G08G11
   9183289.53946   7165169.85244  22774450.9614                   22774450.8794
  13587862.54346  10588777.68943  24791143.0314                   24791143.7424
 -13011098.67648 -10135675.24046  20853937.9144                   20853936.7854
   3286921.03146   2561346.85242  24795321.2274                   24795325.6094
    149373.71948    134769.28746  20776835.0634                   20776834.3954
  -6067049.18047  -4708004.11546  21189677.9694                   21189675.3954
  -2430136.69947  -1868218.04644  23201818.9774                   23201818.3874
  12019920.16047   9370142.45944  22411715.0474                   22411713.9734
 -13622728.43047 -10595156.40544  22335670.3524                   22335670.2034
  -3518926.99647  -2720785.39044  22995854.5554                   22995854.0824
 11  8 11 17 50  0.0000000  0 10G03G06G07G10G13G19G28G23G08G11
   9189643.02346   7170120.57643  22775658.9064                   22775659.7304
  13597278.99646  10596115.05943  24792934.5634                   24792935.9304
 -13144854.94947 -10239900.90746  20828485.1094                   20828483.9224
   3251329.05546   2533612.60843  24788549.0784                   24788552.3714
    125723.66848    116340.62446  20772334.4924                   20772333.8754
  -6115723.48047  -4745932.12246  21180415.5004                   21180412.6414
  -2569773.27046  -1977025.71144  23175246.0004                   23175246.2384
  12033393.31347   9380640.89344  22414279.4064                   22414277.5124
 -13786528.03947 -10722792.41745  22304500.2894                   22304500.1024
  -3684715.64547  -2849971.21544  22964305.6174                   22964305.4574
 11  8 11 17 50 30.0000000  0 10G03G06G07G10G13G19G28G23G08G11
   9196226.31646   7175250.38043  22776912.8204                   22776912.1094
  13606783.33646  10603521.06643  24794743.4144                   24794743.8524
 -13278455.76247 -10344005.41246  20803061.7974                   20803060.4804
   3215834.27046   2505954.17943  24781794.7194                   24781797.7384
    102517.80948     98258.08846  20767918.4224                   20767918.2034
  -6163882.98847  -4783458.99046  21171251.4694                   21171248.0824
  -2709258.82047  -2085715.69544  23148703.2664                   23148703.3714
  12047057.61747   9391288.30444  22416879.7194                   22416877.9304
 -13950352.95747 -10850448.16644  22273325.6174                   22273324.7584
  -3850375.09047  -2979056.32144  22932781.0944                   22932782.0204
 11  8 11 17 51  0.0000000  0  9G03G07G10G13G19G28G23G08G11
   9203041.00446   7180560.48043  22778209.5704                   22778209.2424
 -13411894.84047 -10447983.89146  20777669.0394                   20777667.4344
   3180438.24246   2478372.72243  24775058.2194                   24775062.2154
     79758.34448     80523.38946  20763587.6414                   20763586.7304
  -6211524.89847  -4820582.54446  21162185.1414                   21162182.1054
  -2848589.42647  -2194284.97544  23122189.4534                   23122189.0904
  12060914.16847   9402085.48444  22419516.8674                   22419515.2384
 -14114196.92247 -10978118.77044  22242147.1804                   22242146.6454
  -4015897.54346  -3108034.69144  22901283.7664                   22901283.2274
 11  8 11 17 51 30.0000000  0  9G03G07G10G13G19G28G23G08G11
   9210092.15246   7186054.90343  22779551.0234                   22779551.2274
 -13545162.03547 -10551828.45146  20752309.0004                   20752307.6804
   3145146.34046   2450872.40843  24768343.0944                   24768346.5824
     57451.57048     63141.44546  20759342.9144                   20759342.2584
  -6258643.01247  -4857297.93246  21153218.9844                   21153216.1334
  -2987757.50047  -2302727.56743  23095706.6564                   23095706.0664
  12074968.31647   9413036.65844  22422190.6644                   22422190.0234
 -14278050.48447 -11105796.83444  22210966.6254                   22210966.4964
  -4181271.85547  -3236897.58944  22869813.7344                   22869813.7384
 11  8 11 17 52  0.0000000  0  9G03G07G10G13G19G28G23G08G11
   9217396.98846   7191746.95843  22780941.3754                   22780941.9964
 -13678235.62147 -10655522.13946  20726986.3364                   20726984.5084
   3109975.78146   2423466.68442  24761650.5704                   24761652.9734
     35614.86348     46125.78846  20755187.7894                   20755187.0274
  -6305218.96147  -4893590.87146  21144355.9454                   21144352.6214
  -3126743.93447  -2411028.67344  23069258.5554                   23069257.8284
  12089236.71947   9424154.77144  22424906.0944                   22424905.2074
 -14441892.42247 -11233465.84045  22179788.6804                   22179787.6724
  -4346475.00447  -3365627.16744  22838375.9844                   22838376.3754
 11  8 11 17 52 30.0000000  0  9G03G07G10G13G19G28G23G08G11
   9224947.43446   7197630.37743  22782378.1724                   22782378.2344
 -13811119.14847 -10759067.73546  20701699.1724                   20701697.6414
   3074918.76246   2396149.34442  24754979.3524                   24754982.2774
     14241.09048     29470.84846  20751120.3444                   20751119.4774
  -6351259.57447  -4929466.65246  21135594.9144                   21135591.8324
  -3265554.37147  -2519192.57044  23042843.4614                   23042843.0704
  12103711.64547   9435433.80144  22427660.4534                   22427660.2544
 -14605726.22747 -11361128.50044  22148612.1484                   22148611.0864
  -4511509.05147  -3494224.93244  22806971.0634                   22806971.5474
 11  8 11 17 53  0.0000000  0  9G03G07G10G13G19G28G23G08G11
  10808162.55146   8431304.44843  23083653.5704                   23083653.4964
 -12368384.37147  -9634858.80946  20976242.1724                   20976241.0514
   4615395.48846   3596520.70742  25048122.6954                   25048125.1334
   1568750.71948   1240776.99846  21046933.3524                   21046932.8874
  -4821343.37547  -3737324.15046  21426728.4774                   21426725.1914
  -1828762.78947  -1399614.70644  23316255.5314                   23316255.3324
  13693811.80147  10674472.74244  22730246.7344                   22730245.9844
 -13194123.37147 -10261178.19445  22417231.4924                   22417230.2734
  -3100943.63347  -2395082.88244  23075392.4614                   23075393.0394
 11  8 11 17 53 30.0000000  0  9G03G07G10G13G19G28G23G08G11
  10816185.94947   8437556.41943  23085180.5084                   23085180.2854
 -12500892.17247  -9738111.63246  20951026.8204                   20951025.6914
   4580547.16446   3569366.01642  25041491.0634                   25041493.4804
   1548286.59448   1224830.88446  21043039.2344                   21043038.5824
  -4866329.03947  -3772377.91446  21418167.4774                   21418164.8094
  -1967232.59446  -1507513.20844  23289905.7424                   23289905.7304
  13708681.39547  10686059.30444  22733076.7114                   22733076.3164
 -13357947.12147 -10388833.04444  22386056.3984                   22386055.8754
  -3265640.36747  -2523417.86244  23044051.7194                   23044052.2774
 11  8 11 17 54  0.0000000  0  8G03G07G13G19G28G23G08G11
  10824432.19146   8443982.05443  23086750.9924                   23086749.7624
 -12633218.54347  -9841223.08346  20925846.0234                   20925844.7074
   1528264.02048   1209228.82446  21039229.2114                   21039228.8524
  -4910799.23047  -3807030.01546  21409704.8204                   21409702.5634
  -2105542.78947  -1615287.37344  23263586.0554                   23263585.9924
  13723734.41847  10697788.78244  22735941.1724                   22735940.0944
 -13521772.75847 -10516489.35445  22354881.6024                   22354880.2384
  -3430173.06647  -2651625.00644  23012741.9224                   23012742.2934
 11  8 11 17 54 30.0000000  0  8G03G07G13G19G28G23G08G11
  10832898.74647   8450579.32344  23088361.4064                   23088361.8484
 -12765361.27347  -9944191.43346  20900700.5704                   20900698.7424
   1508681.52748   1193969.68646  21035502.8524                   21035502.4614
  -4954755.58247  -3841281.72746  21401340.3054                   21401337.6724
  -2243693.11747  -1722936.94243  23237297.0394                   23237296.2774
  13738968.66047  10709659.49244  22738840.0554                   22738839.3054
 -13685598.71147 -10644145.90445  22323706.3754                   22323706.0234
  -3594538.27046  -2779701.61944  22981464.2424                   22981464.2194
 11  8 11 17 55  0.0000000  0  8G03G07G13G19G28G23G08G11
  10841604.37146   8457362.87344  23090018.1094                   23090018.0514
 -12897297.03947 -10046998.51446  20875593.7894                   20875592.4064
   1489558.41448   1179068.52345  21031863.9924                   21031863.3324
  -4998178.13347  -3875117.48646  21393077.6564                   21393074.4494
  -2381662.65647  -1830445.60444  23211042.3444                   23211041.7584
  13754402.79347  10721685.96244  22741777.6024                   22741777.2544
 -13849402.30947 -10771785.05645  22292535.7814                   22292534.8524
  -3758711.06646  -2907628.38844  22950223.2344                   22950223.3164
 11  8 11 17 55 30.0000000  0  8G03G07G13G19G28G23G08G11
  10850548.84046   8464332.54743  23091719.5944                   23091720.6024
 -13029021.33647 -10149640.81146  20850527.6174                   20850526.0864
   1470895.05148   1164525.59845  21028312.6254                   21028312.0124
  -5041066.16047  -3908536.75146  21384916.1954                   21384913.4104
  -2519449.55147  -1937811.99244  23184822.2664                   23184822.6684
  13770036.65647  10733868.03744  22744752.6954                   22744752.1094
 -14013178.86347 -10899403.12744  22261370.2664                   22261369.5514
  -3922685.96146  -3035400.91944  22919020.2814                   22919019.5634
 11  8 11 17 56  0.0000000  0  8G03G07G13G19G28G23G08G11
  10859717.48846   8471476.87743  23093464.7114                   23093465.1844
 -13160544.18047 -10252126.15946  20825499.3524                   20825497.5044
   1452677.04347   1150329.69645  21024845.8364                   21024845.1294
  -5083433.80147  -3941550.52345  21376853.7894                   21376851.1134
  -2657066.39847  -2045045.85944  23158634.6174                   23158634.1764
  13785855.17647  10746194.04044  22747763.0234                   22747762.4734
 -14176938.70747 -11027008.16645  22230207.3284                   22230206.7154
  -4086471.86347  -3163026.18244  22887852.4384                   22887852.4844
 11  8 11 17 56 30.0000000  0  9G03G24G07G13G19G28G23G08G11
  10869096.89546   8478785.42943  23095249.8284                   23095249.8634
  17038190.14156  13304085.71953  24376404.7664                   24376409.8674
 -13291874.61747 -10354461.54446  20800508.3284                   20800506.3404
   1434891.61347   1136470.88545  21021461.1414                   21021461.0044
  -5125293.16847  -3974168.21446  21368888.2664                   21368885.4144
  -2794524.62546  -2152156.09744  23132477.2664                   23132476.2704
  13801845.05547  10758653.56244  22750805.8134                   22750805.2814
 -14340691.15247 -11154607.43045  22199046.5474                   22199045.7664
  -4250076.44547  -3290510.19344  22856719.5784                   22856719.7584
 11  8 11 17 57  0.0000000  0  9G03G24G07G13G19G28G23G08G11
  10878665.12446   8486241.15843  23097069.4844                   23097070.5944
  16872419.44546  13174913.75243  24344860.3364                   24344863.9304
 -13423029.43447 -10456660.11746  20775550.1644                   20775548.9454
   1417517.60248   1122932.62745  21018155.5474                   21018154.6914
  -5166665.15647  -4006406.16846  21361015.4614                   21361012.6454
  -2931843.47347  -2259157.74844  23106346.7584                   23106345.7464
  13817984.58647  10771229.63944  22753877.2734                   22753875.8094
 -14504453.46147 -11282214.38345  22167883.4224                   22167882.6414
  -4413515.19946  -3417864.96444  22825617.8204                   22825618.3484
 11  8 11 17 57 30.0000000  0  9G03G24G07G13G19G28G23G08G11
  10888402.38346   8493828.47143  23098923.0634                   23098924.2504
  16706519.16046  13045640.90843  24313290.0554                   24313294.9774
 -13554024.12148 -10558733.90346  20750622.7814                   20750621.3204
   1400535.30548   1109699.62145  21014923.6644                   21014922.9064
  -5207569.19947  -4038279.48646  21353231.6174                   21353228.8444
  -3069040.56647  -2366064.55344  23080238.5234                   23080238.2624
  13834253.57447  10783906.65244  22756973.0394                   22756971.3524
 -14668241.29747 -11409841.23545  22136715.3054                   22136714.5554
  -4576802.23047  -3545101.54444  22794544.6644                   22794545.0634
 11  8 11 17 58  0.0000000  0  9G03G24G07G13G19G28G23G08G11
  10898307.76246   8501546.86743  23100808.7114                   23100808.9924
  16540493.91846  12916270.64843  24281695.8364                   24281701.2704
 -13684854.77048 -10660679.85546  20725726.6564                   20725725.0354
   1383944.56648   1096771.71845  21011766.6954                   21011765.7154
  -5248005.29347  -4069788.17746  21345537.2274                   21345534.3204
  -3206115.17246  -2472875.87644  23054154.0164                   23054154.0554
  13850650.85947  10796683.63244  22760093.9614                   22760092.2384
 -14832051.26247 -11537485.32345  22105543.2814                   22105542.7934
  -4739932.75447  -3672216.17644  22763503.0944                   22763502.3874
 11  8 11 17 58 30.0000000  0  9G03G24G07G13G19G28G23G08G11
  10908381.71546   8509396.65543  23102725.6804                   23102726.0514
  16374350.14146  12786807.92443  24250079.5944                   24250084.6724
 -13815516.22748 -10762493.97546  20700862.5004                   20700861.1214
   1367745.88747   1084149.33445  21008684.2584                   21008683.4924
  -5287971.93747  -4100931.05246  21337931.7344                   21337929.1844
  -3343064.04347  -2579589.23544  23028093.6094                   23028092.7074
  13867177.20347  10809561.13744  22763238.5084                   22763238.2814
 -14995878.74247 -11665143.08645  22074367.7894                   22074367.4264
  -4902900.34447  -3799203.84444  22732491.2344                   22732491.0744
 11  8 11 17 59  0.0000000  0  9G03G24G07G13G19G28G23G08G11
  10918629.29346   8517381.68943  23104675.3674                   23104676.5784
  16208098.53546  12657261.21443  24218443.3594                   24218448.5744
 -13945998.48447 -10864168.45946  20676032.6564                   20676031.1684
   1351944.94947   1071836.85545  21005677.0394                   21005676.6604
  -5327463.39547  -4131703.67246  21330416.8284                   21330414.0204
  -3479880.24247  -2686199.20844  23002058.6484                   23002057.6764
  13883837.39547  10822542.95044  22766408.8364                   22766408.2584
 -15159713.88747 -11792806.80445  22043191.3524                   22043190.5514
  -5065693.77347  -3926055.80744  22701512.3444                   22701512.3634
 11  8 11 17 59 30.0000000  0  9G03G24G07G13G19G28G23G08G11
  10929044.93046   8525497.65943  23106657.8594                   23106658.3364
  16041738.75046  12527630.36443  24186786.1804                   24186791.0124
 -14076303.07047 -10965704.50946  20651236.5634                   20651234.9344
   1336536.27747   1059830.03846  21002745.4304                   21002744.8794
  -5366484.84047  -4162110.04446  21322991.6174                   21322988.6884
  -3616567.64147  -2792708.83744  22976047.2344                   22976046.5824
  13900625.49647  10835624.45044  22769603.4694                   22769603.1254
 -15323558.36347 -11920477.79345  22012012.8284                   22012012.1684
  -5228313.41047  -4052772.35344  22670567.1334                   22670566.9184
 11  8 11 18  0  0.0000000  0  9G03G24G07G13G19G28G23G08G11
  10939624.52347   8533741.43043  23108671.2504                   23108671.6214
  15875272.42646  12397916.34143  24155108.4614                   24155113.0904
 -14206429.21147 -11067101.50046  20626474.2274                   20626472.6604
   1321516.64147   1048126.39745  20999887.3594                   20999886.9454
  -5405039.03547  -4192152.32146  21315654.7344                   21315651.8244
  -3753128.05947  -2899119.47944  22950060.9844                   22950060.2154
  13917537.76247  10848802.66344  22772822.4304                   22772821.4694
 -15487411.33247 -12048155.40945  21980832.6884                   21980831.3984
  -5390756.97347  -4179351.73244  22639654.8444                   22639654.6564
 11  8 11 18  0 30.0000000  0  9G03G24G07G13G19G28G23G08G11
  10950371.00446   8542115.24943  23110716.5554                   23110716.9344
  15708708.18846  12268126.12743  24123412.2194                   24123417.0514
 -14336369.36347 -11168353.58546  20601747.6724                   20601745.9534
   1306889.07447   1036728.23545  20997103.4774                   20997103.1884
  -5443122.68747  -4221827.93446  21308407.5474                   21308404.6764
  -3889556.34047  -3005427.19244  22924099.2034                   22924098.8444
  13934577.03546  10862079.86944  22776064.8134                   22776064.7344
 -15651265.94947 -12175834.30545  21949651.8834                   21949651.3984
  -5553015.84046  -4305787.19544  22608777.9614                   22608777.3714
 11  8 11 18  1  0.0000000  0  9G03G24G07G13G19G28G23G08G11
  10961276.14547   8550612.69143  23112791.7194                   23112791.7704
  15542043.91446  12138257.94343  24091696.3984                   24091702.8594
 -14466126.27047 -11269462.86846  20577055.6414                   20577054.5744
   1292645.97748   1025629.66245  20994393.4144                   20994392.8594
  -5480742.66447  -4251142.24046  21301248.9064                   21301246.1174
  -4025858.12947  -3111636.35544  22898162.0394                   22898161.1214
  13951735.25046  10875449.73144  22779329.2974                   22779329.1374
 -15815125.39547 -12303516.94345  21918470.6024                   21918470.2384
  -5715091.97346  -4432080.25644  22577936.1174                   22577935.3794
 11  8 11 18  1 30.0000000  0  9G03G24G07G13G19G28G23G08G11
  12547756.47346   9786831.09943  23414688.4774                   23414689.0904
  16950707.27046  13235917.87243  24359756.5394                   24359762.0274
 -13020274.60947 -10142825.20546  20852192.0314                   20852190.7504
   2854204.97347   2242428.85045  21291548.2274                   21291547.1884
  -3942480.82847  -3052496.66546  21593970.2424                   21593967.6294
  -2586610.28947  -1990144.47444  23172041.6334                   23172041.5904
  15544428.18846  12116508.98844  23082409.2034                   23082409.1724
 -14403563.25047 -11203598.38045  22187081.9694                   22187081.7464
  -4301557.52347  -3330624.83344  22846922.6564                   22846922.2814
 11  8 11 18  2  0.0000000  0  9G03G24G07G13G19G28G23G08G11
  12558959.34446   9795560.51543  23416820.9694                   23416821.0554
  16783839.37146  13105891.05343  24328002.7114                   24328007.8554
 -13149671.44148 -10243653.90546  20827568.8134                   20827567.2464
   2840711.84847   2231914.67445  21288980.6334                   21288980.2034
  -3979191.87147  -3081102.66645  21586984.2814                   21586982.0744
  -2722672.97747  -2096167.31644  23146149.9224                   23146149.2154
  15561803.44947  12130048.00444  23085715.9064                   23085715.7464
 -14567439.35547 -11331294.00645  22155897.5004                   22155896.8364
  -4463270.43747  -3456634.85344  22816149.4774                   22816149.8954
 11  8 11 18  2 30.0000000  0  9G03G24G07G13G19G28G23G08G11
  12570304.70346   9804401.06843  23418979.4224                   23418979.6684
  16616871.69546  12975786.47443  24296229.4144                   24296234.4804
 -13278888.30148 -10344342.38246  20802979.4304                   20802977.9534
   2827587.54347   2221687.88645  21286483.1254                   21286482.3554
  -4015454.20747  -3109359.02946  21580084.0554                   21580081.7704
  -2858619.64147  -2202099.72444  23120280.2424                   23120279.6724
  15579280.87147  12143666.59844  23089041.7814                   23089041.1564
 -14731323.60547 -11458996.00045  22124711.1884                   22124710.4024
  -4624799.53947  -3582501.65444  22785412.1644                   22785411.3554
 11  8 11 18  3  0.0000000  0  9G03G24G07G13G19G28G23G08G11
  12581789.34046   9813350.11443  23421164.0784                   23421164.9574
  16449806.80546  12845606.20843  24264437.8204                   24264443.4654
 -13407922.98848 -10444888.88846  20778424.8284                   20778423.7814
   2814829.37947   2211746.41745  21284054.9454                   21284054.6844
  -4051270.12947  -3137267.53145  21573268.4144                   21573265.5594
  -2994451.05547  -2307942.37344  23094432.2664                   23094432.3714
  15596857.08247  12157362.18344  23092386.5784                   23092386.6024
 -14895214.64547 -11586703.27845  22093523.6094                   22093523.2734
  -4786142.16047  -3708223.14844  22754708.6954                   22754708.6174
 11  8 11 18  3 30.0000000  0  9G03G24G07G13G19G28G23G08G11
  12593409.55946   9822404.76543  23423375.8444                   23423376.4144
  16282646.67246  12715351.79943  24232628.3914                   24232633.5984
 -13536774.84448 -10545292.92346  20753905.2274                   20753903.8134
   2802433.85947   2202087.52645  21281696.5474                   21281696.0864
  -4086642.83647  -3164830.65946  21566537.2974                   21566534.5274
  -3130169.07846  -2413696.65744  23068605.8134                   23068605.1024
  15614528.18047  12171131.70944  23095749.2114                   23095748.4774
 -15059111.94147 -11714415.43645  22062335.0084                   22062334.0904
  -4947296.09047  -3833797.60344  22724042.6254                   22724042.3914
 11  8 11 18  4  0.0000000  0  9G03G24G07G13G19G28G23G08G11
  12605155.69546   9831557.55843  23425612.0004                   23425611.4804
  16115387.09846  12585019.78443  24200799.9694                   24200805.2894
 -13665448.50048 -10645558.09946  20729419.1334                   20729418.0784
   2790391.44947   2192703.76245  21279404.9454                   21279404.1604
  -4121581.16447  -3192055.32046  21559888.8834                   21559886.1484
  -3265781.41447  -2519368.54144  23042800.1024                   23042799.1414
  15632284.53547  12184967.65144  23099128.7664                   23099128.0314
 -15223020.55547 -11842136.41145  22031144.2424                   22031143.9184
  -5108265.11747  -3959227.97444  22693411.0004                   22693411.0664
 11  8 11 18  4 30.0000000  0  9G03G24G07G13G19G28G23G08G11
  12617019.81346   9840802.24343  23427868.3284                   23427869.6644
  15948026.06646  12454608.73743  24168952.2734                   24168956.5204
 -13793947.34448 -10745687.06246  20704966.7274                   20704965.3714
   2778694.39547   2183589.13445  21277178.9064                   21277178.9064
  -4156092.66847  -3218947.36646  21553321.3364                   21553318.3674
  -3401293.43047  -2624962.26444  23017012.9454                   23017012.2854
  15650118.08246  12198863.76544  23102522.1644                   23102522.0124
 -15386943.94947 -11969868.93045  21999950.3524                   21999950.1994
  -5269051.42647  -4084515.89544  22662814.5634                   22662814.0594
 11  8 11 18  5  0.0000000  0  9G03G24G07G13G19G28G23G08G11
  12628999.75846   9850137.17243  23430148.7034                   23430149.1484
  15780566.69146  12324121.07243  24137085.5944                   24137090.1764
 -13922269.21148 -10845678.12646  20680547.8984                   20680546.5514
   2767341.06347   2174742.30245  21275018.5704                   21275018.0354
  -4190178.96947  -3245508.10046  21546834.8984                   21546832.1214
  -3536705.91447  -2730478.46544  22991244.2894                   22991244.3674
  15668026.57046  12212818.24644  23105930.0474                   23105929.6254
 -15550879.99647 -12097611.27945  21968754.5004                   21968753.9614
  -5429651.34447  -4209658.64044  22632252.7664                   22632252.7664
 11  8 11 18  5 30.0000000  0  9G03G24G07G13G19G28G23G08G11
  12641096.43046   9859563.12043  23432450.2814                   23432451.3404
  15613015.53546  12193561.92043  24105201.3754                   24105205.9574
 -14050408.46947 -10945526.90946  20656163.7034                   20656162.5164
   2756331.73847   2166163.55745  21272923.6804                   21272923.6054
  -4223838.76647  -3271736.49246  21540429.4224                   21540426.8834
  -3672015.46547  -2835914.41344  22965495.6954                   22965495.4654
  15686010.43046  12226831.43544  23109352.6414                   23109352.5864
 -15714823.21947 -12225359.21145  21937557.6094                   21937556.2424
  -5590058.14147  -4334650.85144  22601728.8914                   22601728.6024
 11  8 11 18  6  0.0000000  0  9G03G24G07G13G19G28G23G08G11
  12653300.21546   9869072.49743  23434773.3674                   23434773.0634
  15445369.12146  12062928.55143  24073299.1564                   24073303.8984
 -14178369.60547 -11045236.88646  20631813.3054                   20631812.4694
   2745657.85947   2157846.18545  21270892.6884                   21270892.0044
  -4257080.89147  -3297639.42545  21534103.4304                   21534100.7854
  -3807229.60947  -2941276.03044  22939765.1884                   22939764.8984
  15704060.61346  12240896.33844  23112787.3204                   23112787.4304
 -15878778.43747 -12353116.50345  21906357.6094                   21906357.2384
  -5750275.60547  -4459495.55744  22571240.2894                   22571240.0164
 11  8 11 18  6 30.0000000  0  9G03G24G07G13G19G28G23G08G11
  12665609.48046   9878663.99943  23437115.7974                   23437115.3324
  15277631.50446  11932224.18143  24041379.9534                   24041384.4614
 -14306149.82847 -11144805.87446  20607498.0084                   20607497.1684
   2735317.95747   2149789.06945  21268925.0784                   21268924.4614
  -4289906.46947  -3323217.79345  21527857.3594                   21527854.6374
  -3942348.07047  -3046563.11144  22914052.8284                   22914053.0274
  15722175.10246  12255011.37043  23116234.2814                   23116234.8524
 -16042743.00447 -12480881.08745  21875156.2664                   21875155.8674
  -5910299.47747  -4584189.39644  22540788.1724                   22540787.9064
 11  8 11 18  7  0.0000000  0  9G03G24G07G13G19G28G23G08G11
  12678016.25046   9888331.50343  23439477.1024                   23439476.5944
  15109800.21546  11801446.71143  24009442.6094                   24009446.9844
 -14433752.62947 -11244236.63746  20583215.8204                   20583214.7854
   2725304.14847   2141986.02145  21267019.3444                   21267019.3204
  -4322323.07447  -3348477.47545  21521688.4694                   21521685.9574
  -4077376.94547  -3151780.35644  22888358.4694                   22888357.9534
  15740345.54747  12269169.93744  23119693.0164                   23119693.0434
 -16206720.24247 -12608655.54745  21843952.3754                   21843951.9304
  -6070131.93747  -4708734.08444  22510373.3364                   22510372.8284
 11  8 11 18  7 30.0000000  0  9G03G24G07G13G19G28G23G08G11
  12690516.90246   9898072.31443  23441855.9384                   23441854.8594
  14941876.74646  11670597.45043  23977487.4454                   23977492.6804
 -14561177.15647 -11343528.46346  20558967.4694                   20558966.5044
   2715612.25047   2134433.85845  21265174.9454                   21265175.1914
  -4354334.34047  -3373421.31645  21515596.9224                   21515594.2934
  -4212318.11747  -3256929.27844  22862679.1644                   22862679.2074
  15758567.96147  12283369.04544  23123160.1804                   23123160.8524
 -16370709.48447 -12736439.35845  21812746.0944                   21812745.5634
  -6229771.36747  -4833128.34344  22479994.8754                   22479994.8484
 11  8 11 18  8  0.0000000  0  9G03G24G07G13G19G28G23G08G11
  12703108.34846   9907883.75643  23444251.9064                   23444250.3834
  14773863.98046  11539678.63243  23945515.6094                   23945520.9064
 -14688421.27747 -11442679.72546  20534754.1414                   20534752.4924
   2706239.33247   2127130.22245  21263391.7974                   21263391.4104
  -4385942.57447  -3398051.13246  21509582.4844                   21509579.8444
  -4347172.52046  -3362010.57544  22837017.0864                   22837016.6884
  15776839.69547  12297606.60744  23126637.5864                   23126638.0314
 -16534709.43447 -12864231.49245  21781538.1644                   21781537.4844
  -6389214.87547  -4957369.94544  22449653.9144                   22449653.7814
 11  8 11 18  8 30.0000000  0  9G03G24G07G13G19G28G23G08G11
  12715785.83246   9917762.22743  23446664.1954                   23446663.7504
  14605762.80146  11408690.89043  23913526.0314                   23913531.5944
 -14815485.45347 -11541690.77346  20510574.6254                   20510573.2734
   2697181.32847   2120071.97745  21261667.7274                   21261668.0514
  -4417152.03547  -3422370.20845  21503643.0234                   21503640.5394
  -4481942.69147  -3467026.24944  22811371.5004                   22811371.3444
  15795155.64547  12311878.58543  23130123.1954                   23130122.8054
 -16698720.19547 -12992032.08645  21750328.1254                   21750327.0204
  -6548461.10247  -5081457.84444  22419350.1884                   22419349.1994
 11  8 11 18  9  0.0000000  0  9G03G24G07G13G19G28G23G08G11
  12728548.42246   9927707.07343  23449092.8834                   23449092.7194
  14437578.14146  11277638.14943  23881522.2974                   23881526.7584
 -14942366.00047 -11640558.71046  20486429.9064                   20486428.4534
   2688436.82847   2113258.03045  21260004.2344                   21260003.8554
  -4447963.33647  -3446379.02445  21497780.6094                   21497777.3484
  -4616627.65247  -3571975.50244  22785741.0944                   22785741.0634
  15813514.24247  12326183.79343  23133616.6024                   23133616.2974
 -16862738.38747 -13119838.43645  21719116.5784                   21719115.8284
  -6707505.58247  -5205388.53444  22389085.5634                   22389084.4694
 11  8 11 18  9 30.0000000  0  9G03G24G07G13G19G28G23G08G11
  12741393.55146   9937716.23543  23451537.4454                   23451537.2584
  14269312.58246  11146522.35743  23849502.1094                   23849506.0204
 -15069061.18447 -11739282.21446  20462320.9224                   20462319.1724
   2680002.99647   2106686.14145  21258399.1254                   21258398.9454
  -4478379.09447  -3470079.65045  21491992.4694                   21491989.6334
  -4751228.39547  -3676859.16544  22760127.5394                   22760126.9494
  15831912.74647  12340520.11943  23137118.1334                   23137117.7034
 -17026762.20347 -13247649.17145  21687903.4224                   21687902.2114
  -6866345.47747  -5329159.78744  22358858.2734                   22358857.9304
 11  8 11 18 10  0.0000000  0  9G03G24G07G13G19G28G23G08G11
  14329734.59846  11175384.51043  23753788.1954                   23753788.5314
  15676391.23846  12242947.46843  24117259.9064                   24117263.3834
 -13620148.41447 -10610259.27246  20738039.5784                   20738038.5354
   4247294.41847   3327952.10445  21556644.8754                   21556644.4804
  -2932984.12947  -2265875.80045  21786071.1024                   21786068.2734
  -3310324.84847  -2554077.13344  23034322.7424                   23034322.3014
  17425764.38347  13582482.25743  23440417.3754                   23440418.6214
 -15615367.78147 -12147861.28445  21956483.1484                   21956482.2154
  -5449555.75847  -4225167.74644  22628465.0474                   22628464.7194
 11  8 11 18 10 30.0000000  0  9G03G24G07G13G19G28G23G08G11
  14342728.43046  11185509.49343  23756260.8284                   23756261.6844
  15507965.17246  12111706.56342  24085209.6414                   24085212.8014
 -13746474.80547 -10708695.41946  20714000.7734                   20713998.7734
   4239466.99647   3321852.74645  21555155.2974                   21555155.0044
  -2962623.53547  -2288971.49545  21780430.9694                   21780427.8284
  -3444767.16847  -2658837.35244  23008739.3594                   23008738.5704
  17444226.64147  13596868.17844  23443931.4384                   23443932.7504
 -15779405.13347 -12275682.57845  21925267.4774                   21925266.8484
  -5607984.90247  -4348618.94544  22598316.4774                   22598316.5554
 11  8 11 18 11  0.0000000  0  9G03G24G07G13G19G28G23G08G11
  14355794.12946  11195690.49943  23758747.2504                   23758748.6484
  15339465.21547  11980408.07843  24053145.5004                   24053148.5004
 -13872612.06247 -10806984.19846  20689997.2894                   20689995.7894
   4231940.14147   3315987.59845  21553723.2344                   21553723.2774
  -2991876.58647  -2311766.10345  21774864.0634                   21774861.5634
  -3579130.00847  -2763535.58844  22983170.1564                   22983169.9224
  17462718.35547  13611277.10344  23447450.6484                   23447451.4064
 -15943444.38747 -12403505.35045  21894051.6804                   21894051.2774
  -5766202.41847  -4471905.26744  22568209.0474                   22568208.4304
 11  8 11 18 11 30.0000000  0  9G03G24G07G13G19G28G23G08G11
  14368929.41046  11205925.73543  23761247.1254                   23761248.1724
  15170893.76246  11849053.95043  24021066.5864                   24021071.1334
 -13998558.65247 -10905124.39146  20666030.5474                   20666029.0044
   4224711.04347   3310354.46845  21552347.3914                   21552347.1524
  -3020746.04347  -2334261.82145  21769370.7584                   21769367.7384
  -3713413.89147  -2868172.37444  22957617.4384                   22957616.4224
  17481236.07047  13625706.30844  23450974.6564                   23450975.0944
 -16107484.58647 -12531328.86145  21862836.1484                   21862835.3954
  -5924205.64847  -4595024.61844  22538141.5314                   22538141.0124
 11  8 11 18 12  0.0000000  0  9G03G24G07G13G19G28G23G08G11
  14382130.41046  11216212.09843  23763759.4304                   23763760.5664
  15002253.17246  11717645.85443  23988974.8054                   23988979.6764
 -14124313.45747 -11003115.13946  20642099.9614                   20642098.7154
   4217776.04347   3304950.50945  21551027.5704                   21551027.9024
  -3049234.96147  -2356461.01245  21763949.4454                   21763946.5474
  -3847620.57447  -2972748.95244  22932078.2424                   22932077.5164
  17499776.33646  13640153.04743  23454502.2504                   23454503.0474
 -16271524.51647 -12659152.16045  21831619.7974                   21831619.8094
  -6081992.26247  -4717975.18844  22508115.6724                   22508115.4344
 11  8 11 18 12 30.0000000  0  9G03G24G07G13G19G28G23G08G11
  14395406.03146  11226556.64243  23766285.6094                   23766286.0084
  14833558.24246  11586195.38643  23956873.3444                   23956878.0124
 -14249862.84047 -11100945.79446  20618208.9224                   20618207.6684
   4211144.03947   3299782.65245  21549765.5944                   21549765.7734
  -3077334.10547  -2378356.48745  21758602.3674                   21758599.3674
  -3981739.18047  -3077256.90844  22906556.4844                   22906555.5864
  17518348.17247  13654624.37543  23458036.3914                   23458038.0124
 -16435550.57047 -12786964.66445  21800407.4384                   21800406.7504
  -6239547.67647  -4840745.61944  22478133.9694                   22478133.9304
 11  8 11 18 13  0.0000000  0  9G03G24G07G13G19G28G23G08G11
  14408748.92246  11236953.71143  23768824.9774                   23768825.3834
  14664807.20346  11454701.21543  23924760.5084                   23924765.2814
 -14375209.42647 -11198618.44946  20594356.2974                   20594354.6764
   4204807.97747   3294845.38245  21548560.5634                   21548560.5744
  -3105050.43747  -2399953.67845  21753327.9694                   21753325.1334
  -4115775.00447  -3181700.41944  22881051.0084                   22881049.1884
  17536943.57446  13669114.07243  23461575.0554                   23461576.3834
 -16599565.39547 -12914768.42045  21769196.2734                   21769195.4024
  -6396873.81646  -4963337.37244  22448195.6804                   22448195.2584
 11  8 11 18 13 30.0000000  0  9G03G24G07G13G19G28G23G08G11
  14422158.75446  11247402.84043  23771376.1884                   23771377.0594
  14496005.32846  11323167.42843  23892639.0084                   23892642.8244
 -14500349.24247 -11296130.00546  20570543.0554                   20570541.7544
   4198767.10247   3290138.13645  21547410.6484                   21547410.8834
  -3132384.64547  -2421253.10745  21748126.3284                   21748123.7194
  -4249726.88747  -3286078.42844  22855560.1024                   22855559.4614
  17555562.22346  13683621.98043  23465118.5864                   23465119.1804
 -16763565.03147 -13042560.31545  21737988.0314                   21737987.4384
  -6553965.32447  -5085746.33144  22418302.6094                   22418301.7464
 11  8 11 18 14  0.0000000  0  9G03G24G07G13G19G28G23G08G11
  14435627.44946  11257897.88843  23773939.7734                   23773940.4804
  14327150.12547  11191592.08143  23860506.5084                   23860511.0864
 -14625285.85248 -11393483.20646  20546768.3754                   20546766.4964
   4193013.35947   3285654.62645  21546315.8444                   21546315.5164
  -3159344.43047  -2442260.76945  21742996.1414                   21742993.5594
  -4383601.16447  -3390396.01444  22830084.9144                   22830083.9104
  17574195.52347  13698141.15843  23468664.8524                   23468665.5474
 -16927553.04347 -13170343.15345  21706782.4534                   21706780.7814
  -6710824.42247  -5207974.20044  22388453.0084                   22388452.2154
 11  8 11 18 14 30.0000000  0  9G03G24G07G13G19G28G23G08G11
  14449154.27346  11268438.27243  23776514.2274                   23776515.0164
  14158246.74646  11059979.16643  23828365.3524                   23828370.0594
 -14750015.14847 -11490674.86646  20523033.0234                   20523031.7974
   4187545.70747   3281394.06745  21545275.5234                   21545275.6644
  -3185930.00048  -2462976.81845  21737937.3284                   21737934.8484
  -4517396.12947  -3494651.78244  22804624.7114                   22804623.9024
  17592842.86347  13712671.32243  23472213.6254                   23472214.0164
 -17091525.08247 -13298113.57145  21675579.3524                   21675578.4844
  -6867446.33647  -5330017.22344  22358648.5864                   22358648.5164
 11  8 11 18 15  0.0000000  0  9G03G24G07G13G19G28G23G08G11
  14462736.41846  11279021.62143  23779098.3444                   23779098.6374
  13989297.63346  10928330.65243  23796215.7974                   23796219.5634
 -14874535.91047 -11587704.02546  20499337.3134                   20499335.9494
   4182361.09847   3277354.03245  21544289.2114                   21544288.7934
  -3212144.36347  -2483403.61745  21732949.0784                   21732946.3284
  -4651112.66447  -3598846.43244  22779178.8364                   22779177.9144
  17611501.18446  13727210.09343  23475764.1414                   23475764.8874
 -17255480.05147 -13425870.70045  21644379.6804                   21644378.3834
  -7023828.51247  -5451873.44244  22328890.3444                   22328889.8284
 11  8 11 18 15 30.0000000  0  9G03G24G07G13G19G28G23G08G11
  14476380.41046  11289653.25842  23781694.1254                   23781695.3364
  13820315.20747  10796656.17443  23764059.6254                   23764063.2114
 -14998836.72347 -11684561.79746  20475683.7504                   20475682.6684
   4177465.98847   3273539.60245  21543357.3364                   21543357.3284
  -3237980.64147  -2503535.78645  21728032.3674                   21728030.0164
  -4784743.30947  -3702974.15244  22753750.3674                   22753749.2464
  17630176.45347  13741762.02643  23479318.1884                   23479318.5784
 -17419406.84447 -13553605.85245  21613185.8054                   21613184.7734
  -7179958.71947  -5573533.34644  22299179.8284                   22299179.3594
 11  8 11 18 16  0.0000000  0  9G03G24G07G13G19G28G23G08G11
  14490081.93846  11300329.71942  23784302.4534                   23784302.4774
  13651300.70346  10664956.69443  23731896.6254                   23731899.8674
 -15122917.34047 -11781247.99446  20452072.3284                   20452070.8014
   4172855.47747   3269946.91545  21542480.3204                   21542480.0044
  -3263443.32847  -2523376.85945  21723187.4384                   21723184.6294
  -4918290.58647  -3807036.90344  22728336.3834                   22728335.8914
  17648864.28546  13756323.73643  23482874.1954                   23482875.0164
 -17583304.96147 -13681318.66145  21581997.0634                   21581995.3754
  -7335836.05947  -5694996.21444  22269517.5084                   22269516.7504
 11  8 11 18 16 30.0000000  0  9G03G24G07G13G19G28G23G08G11
  14503848.06646  11311056.54743  23786921.7814                   23786922.2034
  13482266.69146  10533242.08843  23699730.0234                   23699733.7074
 -15246766.19547 -11877753.59246  20428504.9384                   20428503.0744
   4168537.07447   3266581.85345  21541658.2504                   21541658.6374
  -3288525.25447  -2542921.24545  21718414.2344                   21718411.3404
  -5051744.93047  -3911027.26044  22702941.3674                   22702940.7384
  17667571.57846  13770900.68043  23486434.9774                   23486435.0944
 -17747163.00047 -13809000.24245  21550815.5634                   21550814.7664
  -7491447.60247  -5816251.96144  22239905.3364                   22239905.1914
 11  8 11 18 17  0.0000000  0  9G03G24G07G13G19G28G23G08G11
  14517677.28146  11321832.45643  23789553.0864                   23789553.8594
  13313217.87946  10401515.83643  23667560.8914                   23667565.0664
 -15370380.37547 -11974076.34046  20404981.5784                   20404980.0554
   4164509.07847   3263443.06945  21540892.2974                   21540892.2974
  -3313227.80547  -2562170.00245  21713713.7664                   21713710.6374
  -5185105.77347  -4014944.74844  22677563.4384                   22677563.0664
  17686296.68846  13785491.41443  23489997.5234                   23489999.2114
 -17910977.27747 -13936647.71545  21519642.7814                   21519642.0084
  -7646788.96547  -5937297.15144  22210344.8754                   22210345.1174
 11  8 11 18 17 30.0000000  0  9G03G24G07G13G19G28G23G08G11
  14531564.05846  11332653.27843  23792196.2894                   23792196.7234
  13144154.28946  10269778.14543  23635389.0944                   23635393.5784
 -15493760.37547 -12070216.60546  20381503.1724                   20381501.5164
   4160765.77747   3260526.13145  21540179.8364                   21540179.6804
  -3337556.02047  -2581127.05845  21709084.0314                   21709081.3984
  -5318377.31647  -4118792.66744  22652202.5554                   22652202.3054
  17705034.12146  13800091.77144  23493564.0164                   23493564.8874
 -18074749.14547 -14064262.16145  21488477.9384                   21488477.3984
  -7801860.32447  -6058131.95445  22180835.8914                   22180835.3594
 11  8 11 18 18  0.0000000  0  9G03G24G07G13G19G28G23G08G11
  16120930.88346  12571120.78843  24094642.3444                   24094643.6374
  14550509.74646  11365639.76143  23903009.9454                   23903014.4264
 -14041475.09847 -10938565.73546  20657863.6334                   20657862.1804
   5732729.48447   4485432.83945  21839314.3524                   21839314.5354
  -1786086.35247  -1372189.65545  22004318.3754                   22004316.1804
  -3876130.30547  -2994963.76244  22926653.2814                   22926652.2464
  19299205.62546  15042303.09843  23796924.7894                   23796926.0164
 -16663045.95747 -12964233.69745  21757116.4304                   21757115.5744
  -6381228.45747  -4951146.07744  22451173.3524                   22451172.4534
 11  8 11 18 18 30.0000000  0  9G03G24G07G13G19G28G23G08G11
  16134937.78146  12582035.19243  24097307.7894                   24097308.7734
  14381437.85946  11233895.63643  23870836.3594                   23870840.0394
 -14164369.34847 -11034327.48946  20634477.8364                   20634476.3364
   5729558.98047   4482962.25245  21838711.1254                   21838711.2114
  -1809661.37547  -1390559.80845  21999832.6644                   21999830.2114
  -4009212.88347  -3098664.41044  22901327.8834   22901327.3954   19317971.14846
  15056925.30943                  23800495.2114                   23800497.3484
 -16826714.31647 -13091767.46245  21725971.1954                   21725970.8054
  -6535739.00047  -5071543.88344  22421770.3754                   22421770.1764
 11  8 11 18 19  0.0000000  0  9G03G24G07G13G19G28G23G08G11
  16148996.24246  12592989.80142  24099983.5084                   24099984.2544
  14212361.90246  11102148.31343  23838662.0084                   23838666.4494
 -14287022.19947 -11129901.11346  20611137.6564                   20611136.4414
   5726666.07447   4480707.92845  21838160.9614                   21838161.2344
  -1832868.53947  -1408643.32045  21995416.3674                   21995413.8834
  -4142206.85247  -3202296.00344  22876019.9384   22876019.9064   19336741.74646
  15071551.48543                  23804067.6564                   23804069.3634
 -16990332.92247 -13219262.46845  21694835.3834                   21694835.0864
  -6689969.06647  -5191723.13544  22392421.5784                   22392421.0554
 11  8 11 18 19 30.0000000  0  9G03G24G07G13G19G28G23G08G11
  16163102.33246  12603981.48042  24102668.0394                   24102668.2114
  14043283.66046  10970399.22643  23806486.8754                   23806491.7934
 -14409433.02347 -11225286.17346  20587843.5314                   20587842.2854
   5724046.83647   4478666.90145  21837662.3054                   21837662.6724
  -1855711.53947  -1426443.06845  21991069.8834                   21991066.2664
  -4275114.39847  -3305860.27544  22850728.9924   22850728.3524   19355513.51646
  15086178.57043                  23807639.7274                   23807641.6094
 -17153900.66047 -13346717.80845  21663709.4844                   21663709.0434
  -6843917.20747  -5311682.70944  22363126.2344                   22363125.2584
 11  8 11 18 20  0.0000000  0  9G03G24G07G13G19G28G23G08G11
  16177252.51646  12615007.52342  24105360.4144                   24105360.2544
  13874204.50846  10838649.47543  23774312.4224                   23774316.1884
 -14531601.71947 -11320482.56746  20564595.8984                   20564594.6134
   5721696.79747   4476835.60545  21837215.7274                   21837215.5984
  -1878194.50047  -1443962.25945  21986791.0864                   21986788.4264
  -4407937.80947  -3409358.97744  22825453.0394   22825452.4924   19374282.31346
  15100803.38443                  23811212.8524                   23811213.0664
 -17317417.00847 -13474133.13145  21632593.5474                   21632593.0864
  -6997582.27347  -5431421.67644  22333885.1024                   22333884.5864
 11  8 11 18 20 30.0000000  0  9G03G24G07G13G19G28G23G08G11
  16191437.62946  12626060.85242  24108059.4224                   24108060.0554
  13705121.62146  10706896.76543  23742136.2584                   23742140.4924
 -14653532.77048 -11415493.78146  20541393.2504                   20541391.7154
   5719606.69547   4475206.85745  21836817.7504                   21836817.5634
  -1900325.96547  -1461207.58645  21982579.8444                   21982576.7074
  -4540684.02047  -3512797.56344  22800192.5474   22800191.8754   19393039.19546
  15115418.84043                  23814781.4144                   23814782.0474
 -17480886.21147 -13601511.69445  21601486.5394                   21601485.6374
  -7150967.30147  -5550942.42444  22304696.9064                   22304695.8134
 11  8 11 18 21  0.0000000  0  9G03G24G07G13G19G28G23G08G11
  16205653.90246  12637138.39142  24110765.5084                   24110765.0274
  13536036.73846  10575142.55343  23709961.3444                   23709964.6094
 -14775224.90647 -11510318.81046  20518236.0004                   20518234.0704
   5717772.44547   4473777.49745  21836469.0164                   21836469.0164
  -1922109.81647  -1478182.02545  21978434.6024                   21978431.2544
  -4673354.90647  -3616177.42244  22774946.6334   22774945.3244   19411779.80546
  15130021.67143                  23818348.3754                   23818349.0434
 -17644307.33247 -13728852.83445  21570388.1334                   21570387.3834
  -7304070.82047  -5670243.79644  22275561.5784                   22275561.4574
 11  8 11 18 21 30.0000000  0  9G03G24G07G13G19G28G23G08G11
  16219910.79346  12648247.66042  24113478.4844                   24113477.9694
  13366964.87546  10443398.38443  23677787.9924                   23677791.1914
 -14896664.64847 -11604947.19046  20495126.8134                   20495125.4024
   5716203.37947   4472554.76545  21836170.9454                   21836170.3054
  -1943536.83647  -1494878.42645  21974357.4614                   21974354.7114
  -4805939.42247  -3719489.97144  22749715.6174   22749715.3094   19430513.27746
  15144618.94843                  23821913.3284                   23821914.5474
 -17807666.52347 -13856145.69245  21539301.9144                   21539301.1844
  -7456878.02747  -5789314.29644  22246483.7274                   22246482.9804
 11  8 11 18 22  0.0000000  0  9G03G24G07G13G19G28G23G08G11
  16234209.32046  12659389.31642  24116198.6254                   24116200.1524
  13197912.68446  10311669.55743  23645618.0164                   23645621.3834
 -15017846.41447 -11699374.54446  20472066.4534                   20472065.1214
   5714899.82047   4471538.90545  21835922.3204                   21835922.4304
  -1964606.12547  -1511296.08945  21970347.6414                   21970345.1564
  -4938434.96147  -3822733.24144  22724502.9924   22724502.1954   19449240.32446
  15159211.20943                  23825477.2194                   23825478.4694
 -17970958.05147 -13983385.83045  21508228.8834                   21508228.0314
  -7609382.34447  -5908148.73944  22217463.0474                   22217462.3284
 11  8 11 18 22 30.0000000  0  9G03G24G07G13G19G28G23G08G11
  16248537.72346  12670554.18043  24118925.5864                   24118927.3014
  13028873.59047  10179950.92543  23613450.6804                   23613454.2624
 -15138777.78147 -11793606.79046  20449054.0394                   20449052.5044
   5713849.75047   4470720.58145  21835722.7424                   21835722.8984
  -1985329.80547  -1527444.44545  21966404.0004                   21966401.4774
  -5070851.97347  -3925915.27044  22699304.1724   22699303.7384   19467949.09446
  15173789.20443                  23829037.5004                   23829039.1684
 -18134189.43447 -14110579.10445  21477167.0554                   21477166.0664
  -7761590.59047  -6026752.47844  22188498.3754                   22188498.3094
 11  8 11 18 23  0.0000000  0  9G03G24G07G13G19G28G23G08G11
  16262900.54346  12681746.01943  24121658.8914                   24121660.1254
  12859858.28146  10048250.90943  23581288.2344                   23581291.1604
 -15259449.62148 -11887636.80146  20426091.0474                   20426089.3754
   5713057.65247   4470103.27745  21835572.1414                   21835571.7344
  -2005702.99247  -1543319.67645  21962527.6954                   21962524.7274
  -5203183.59447  -4029030.80844  22674122.9454   22674122.3954   19486643.79746
  15188356.28543                  23832595.1414                   23832597.0784
 -18297351.39547 -14237718.28045  21446118.3444                   21446117.1334
  -7913492.58247  -6145117.58044  22159592.5084                   22159591.5234
 11  8 11 18 23 30.0000000  0  9G03G24G07G13G19G28G23G08G11
  16277295.63746  12692962.92243  24124397.9144                   24124399.3444
  12690869.99646   9916571.84943  23549130.4844                   23549133.7114
 -15379859.38747 -11981462.59046  20403177.8444                   20403176.3874
   5712520.70747   4469684.78345  21835469.5164                   21835470.0784
  -2025728.16047  -1558923.75345  21958716.5554                   21958713.9384
  -5335430.46147  -4132080.27844  22648957.1644   22648956.2854   19505322.19546
  15202910.56543                  23836149.0394                   23836151.6454
 -18460441.20747 -14364801.23145  21415083.6254                   21415082.3204
  -8065085.16047  -6263241.57144  22130745.7274                   22130744.9454
 11  8 11 18 24  0.0000000  0  8G24G07G13G19G28G23G08G11
  12521925.24246   9784926.71643  23516980.8984                   23516984.4024
 -15499992.18448 -12075072.56146  20380317.2424                   20380315.8594
   5712249.42647   4469473.28945  21835418.4844                   21835418.3284
  -2045394.46147  -1574248.17845  21954974.2664                   21954971.6804
  -5467580.02747  -4235053.93644  22623810.1644   22623808.8444   19523994.60946
  15217460.23343                  23839703.1024                   23839705.3164
 -18623443.27347 -14491815.80545  21384064.7504                   21384063.9104
  -8216351.75847  -6381111.52744  22101959.4924                   22101959.7234
 11  8 11 18 24 30.0000000  0  8G24G07G13G19G28G23G08G11
  12353033.66446   9653323.00943  23484842.0164                   23484846.0274
 -15619839.43048 -12168460.02546  20357511.1484                   20357509.5514
   5712247.09847   4469471.39345  21835417.8754                   21835418.3054
  -2064698.32447  -1589290.18445  21951300.6564                   21951298.2154
  -5599626.64147  -4337947.35744  22598681.4534   22598680.9454   19542664.98846
  15232008.26143                  23843255.9064                   23843257.5434
 -18786349.24647 -14618755.50745  21353065.1334                   21353063.5984
  -8367283.76647  -6498720.80345  22073238.1644                   22073238.0864
 11  8 11 18 25  0.0000000  0  8G24G07G13G19G28G23G08G11
  12184219.63746   9521779.75043  23452718.2664                   23452721.1214
 -15739378.37547 -12261607.26746  20334763.3984                   20334762.1524
   5712532.26247   4469693.49945  21835471.9454                   21835472.1374
  -2083621.19547  -1604035.33245  21947700.1724                   21947697.1954
  -5731550.01247  -4440744.76944  22573578.2034   22573576.7584   19561351.42246
  15246568.80443                  23846812.0394                   23846813.9884
 -18949135.74247 -14745602.10145  21322087.2274                   21322086.5124
  -8517857.19947  -6616050.66945  22044585.7424                   22044585.2704
 11  8 11 18 25 30.0000000  0  8G24G07G13G19G28G23G08G11
  12015495.97746   9390306.89343  23420611.3284                   23420614.1764
 -15858597.28547 -12354505.13346  20312076.9694                   20312075.7544
   5713111.59047   4470144.82745  21835582.3754                   21835582.4964
  -2102155.84047  -1618477.92145  21944172.7814                   21944170.4844
  -5863341.46147  -4543439.34944  22548498.7504   22548498.3134   19580061.02746
  15261147.37043                  23850372.2584                   23850374.7734
 -19111791.18747 -14872346.60145  21291135.4144                   21291134.1844
  -8668059.25847  -6733091.12744  22016002.2274                   22016002.3364
 11  8 11 18 26  0.0000000  0  8G24G07G13G19G28G23G08G11
  11846862.29346   9258904.09043  23388520.8134                   23388524.6684
 -15977497.52747 -12447154.66646  20289451.1484                   20289449.5314
   5713978.94147   4470820.59645  21835747.5314                   21835747.3204
  -2120307.94947  -1632622.46245  21940718.9454                   21940715.9384
  -5995004.83247  -4646034.11244  22523444.1334   22523443.5164   19598787.66846
  15275739.27443                  23853936.7894                   23853938.9804
 -19274316.59847 -14998989.78345  21260207.8204                   21260206.5394
  -8817890.63747  -6849842.75045  21987490.6414                   21987490.3404
 11  8 11 18 26 30.0000000  0  8G24G07G13G19G28G23G08G11
  13253749.60246  10355180.08143  23656242.4924                   23656246.0084
 -14520651.26248 -11311949.79046  20566679.6024                   20566678.1524
   7290553.54347   5699320.18744  22135760.3984                   22135759.7934
   -562657.94547   -418869.23145  22237129.8834                   22237127.1994
  -4551114.50447  -3520924.68744  22798207.2424   22798205.8014   21192950.22346
  16517943.60243                  24157296.0004                   24157297.5594
 -17861282.28547 -13897924.07145  21529099.2504                   21529098.3244
  -7391921.46947  -5738697.83645  22258843.9924                   22258842.7774
 11  8 11 18 27  0.0000000  0  8G24G07G13G19G28G23G08G11
  13085297.66446  10223918.99243  23624186.6564                   23624190.1524
 -14638916.30147 -11404104.35546  20544174.3594                   20544172.9964
   7291980.12947   5700431.71744  22136031.6334                   22136031.9774
   -580062.00447   -432430.86745  22233818.2974                   22233815.0704
  -4682532.21947  -3623328.05744  22773199.3444                   22773197.7114
  21211695.09446  16532549.69343  24160862.5864                   24160865.7344
 -18023548.83247 -14024365.51545  21498220.8284                   21498219.7544
  -7541011.25847  -5854871.63344  22230472.8524                   22230471.8284
 11  8 11 18 27 30.0000000  0  8G24G07G13G19G28G23G08G11
  12916933.55446  10092726.30943  23592148.2194                   23592151.4884
 -14756868.97347 -11496015.52946  20521728.7504                   20521727.0944
   7293674.30147   5701751.76444  22136353.8674                   22136353.6994
   -597103.63747   -445710.08545  22230574.6884                   22230572.3594
  -4813836.18747  -3725642.77644  22748213.5164                   22748211.7854
  21230437.11746  16547153.56143  24164429.4384                   24164432.9924
 -18185690.36347 -14150709.55045  21467366.0474                   21467365.8404
  -7689733.78147  -5970759.22144  22202171.7274                   22202171.0164
 11  8 11 18 28  0.0000000  0  8G24G07G13G19G28G23G08G11
  12748657.26246   9961602.02343  23560126.6564                   23560129.5554
 -14874510.48447 -11587684.22346  20499342.6564                   20499340.8244
   7295629.66447   5703275.32144  22136726.1024                   22136726.0394
   -613788.88747   -458711.58445  22227399.8364                   22227397.1334
  -4945030.47347  -3827872.00244  22723247.0704                   22723246.5434
  21249170.34046  16561750.57443  24167994.6414                   24167997.8134
 -18347708.26647 -14276957.27745  21436535.3834                   21436534.6484
  -7838089.76247  -6086361.22345  22173940.4534                   22173939.4264
 11  8 11 18 28 30.0000000  0  8G24G07G13G19G28G23G08G11
  12580467.59446   9830545.28643  23528120.8284                   23528123.6644
 -14991843.15247 -11679112.29646  20477015.0164                   20477013.6914
   7297839.04347   5704996.80444  22137146.7424                   22137146.6804
   -630124.30947   -471440.53145  22224291.6254                   22224288.9304
  -5076119.86747  -3930019.52744  22698302.0234                   22698300.7624
  21267887.97346  16576335.36043  24171556.3594                   24171559.9184
 -18509604.25847 -14403109.99145  21405727.5784                   21405727.0904
  -7986080.09447  -6201678.29645  22145778.8444                   22145778.1174
 11  8 11 18 29  0.0000000  0  8G24G07G13G19G28G23G08G11
  12412366.96946   9699557.91743  23496132.0554                   23496135.2034
 -15108865.85548 -11770298.80846  20454746.3134                   20454744.3794
   7300298.59447   5706913.26445  22137614.8754                   22137615.5944
   -646113.47347   -483899.63845  22221248.6644                   22221245.9884
  -5207106.12147  -4032086.69744  22673375.9304                   22673374.9414
  21286586.06646  16590905.01943  24175115.1414                   24175118.2814
 -18671377.13347 -14529166.74945  21374942.9144                   21374942.2934
  -8133702.81247  -6316708.95045  22117687.2814                   22117686.3324
 11  8 11 18 29 30.0000000  0  8G24G07G13G19G28G23G08G11
  12244350.53146   9568636.15843  23464159.9384                   23464162.6294
 -15225584.37947 -11861248.31146  20432535.3444                   20432533.4494
   7302997.66047   5709016.32344  22138128.2894                   22138128.7814
   -661767.17647   -496097.38445  22218270.1564                   22218267.9144
  -5337998.00047  -4134080.32044  22648468.0864                   22648466.2344
  21305254.53146  16605451.56143  24178667.6254                   24178671.6214
 -18833032.38347 -14655131.87045  21344181.1094                   21344180.5474
  -8280964.00847  -6431457.87044  22089664.0554                   22089663.2504
 11  8 11 18 30  0.0000000  0  8G24G07G13G19G28G23G08G11
  12076406.02346   9437770.49243  23432200.8524                   23432203.6454
 -15342012.72348 -11951971.67146  20410380.1024                   20410378.1954
   7305917.84047   5711291.67244  22138684.2664                   22138684.2504
   -677103.67647   -508047.92845  22215351.7344                   22215349.2304
  -5468811.85247  -4236013.15244  22623575.2974                   22623573.6604
  21323874.96546  16619960.62743  24182210.7114                   24182214.2704
 -18994583.59447 -14781015.91345  21313439.0234                   21313438.0314
  -8427876.37547  -6545935.00244  22061707.5784                   22061706.5554
 11  8 11 18 30 30.0000000  0  8G24G07G13G19G28G23G08G11
  11908534.60246   9306961.73843  23400255.5084                   23400258.9534
 -15458150.97347 -12042469.04446  20388279.6954                   20388277.9964
   7309054.06647   5713735.37144  22139281.1414                   22139281.0124
   -692127.60247   -519754.92845  22212492.6564                   22212490.3874
  -5599550.56647  -4337887.43944  22598696.0784                   22598695.3364
  21342442.33246  16634428.34543  24185744.3524                   24185747.2814
 -19156030.48447 -14906818.67345  21282717.1334                   21282716.0124
  -8574438.78947  -6660139.44344  22033817.7814                   22033816.6414
 11  8 11 18 31  0.0000000  0  8G24G07G13G19G28G23G08G11
  11740724.29347   9176200.58843  23368322.7664                   23368325.3054
 -15574012.82847 -12132751.00846  20366231.7894                   20366230.0514
   7312387.89547   5716333.05044  22139915.5474                   22139916.1804
   -706856.87547   -531232.31445  22209690.2424                   22209687.5664
  -5730230.04347  -4439715.55445  22573828.9304                   22573827.8954
  21360939.06346  16648841.12942  24189265.5944                   24189268.0204
 -19317385.91447 -15032550.16045  21252011.9144                   21252011.0634
  -8720664.34847  -6774081.39045  22005991.6024                   22005991.3444
 11  8 11 18 31 30.0000000  0  8G24G07G13G19G28G23G08G11
  11572982.93447   9045493.18844  23336402.1254                   23336405.1564
 -15689591.29348 -12222812.14846  20344238.0314                   20344236.0744
   7315921.47747   5719086.38644  22140588.2974                   22140588.1174
   -721289.83247   -542478.81945  22206943.6174                   22206940.8244
  -5860846.34447  -4541494.48745  22548973.4534                   22548971.9734
  21379367.41045  16663200.50042  24192771.7584                   24192775.3324
 -19478642.59847 -15158204.71645  21221325.5394                   21221324.8164
  -8866545.01247  -6887754.61945  21978231.2194                   21978230.9304
 11  8 11 18 32  0.0000000  0  8G24G07G13G19G28G23G08G11
  11405316.26647   8914844.04844  23304495.7504                   23304499.0354
 -15804881.66447 -12312648.79146  20322298.6414                   20322297.1484
   7319654.29347   5721994.95244  22141298.4224                   22141299.0634
   -735425.71947   -553493.82445  22204253.7114                   22204250.5704
  -5991397.61747  -4643222.68344  22524130.4614                   22524128.9924
  21397727.17646  16677506.56343  24196266.4694                   24196269.1214
 -19639795.59847 -15283778.45445  21190658.9144                   21190658.6054
  -9012075.57447  -7001155.04445  21950538.1884                   21950537.4064
 11  8 11 18 32 30.0000000  0  8G24G07G13G19G28G23G08G11
  11237733.75846   8784260.40143  23272606.1254                   23272609.0944
 -15919876.01647 -12402254.77546  20300415.7814                   20300414.5274
   7323589.92247   5725061.57844  22142047.2424                   22142048.1844
   -749261.24247   -564274.78745  22201620.8834                   22201618.0704
  -6121878.57447  -4744896.15544  22499300.4144                   22499299.4804
  21416021.87946  16691761.67443  24199747.8444                   24199751.5594
 -19800836.51247 -15409264.87645  21160013.9454                   21160013.3794
  -9157247.33247  -7114275.86645  21922912.9534                   21922912.2544
 11  8 11 18 33  0.0000000  0  8G24G07G13G19G28G23G08G11
  11070237.20747   8653743.72443  23240732.1334                   23240735.1764
 -16034573.97347 -12491629.80646  20278589.7114                   20278588.1094
   7327723.89147   5728282.72544  22142834.3914                   22142835.4344
   -762800.66047   -574825.04645  22199043.9924                   22199041.5354
  -6252291.17247  -4846516.31545  22474483.6484                   22474482.5084
  21434247.67646  16705963.22143  24203216.0704                   24203220.3634
 -19961764.47147 -15534663.23245  21129390.6644                   21129389.8014
  -9302058.74647  -7227115.90945  21895356.3834                   21895355.5514
 11  8 11 18 33 30.0000000  0  8G24G07G13G19G28G23G08G11
  10902836.02747   8523301.38144  23208877.4064                   23208879.5084
 -16148967.64847 -12580767.73446  20256820.8984                   20256819.8204
   7332059.14847   5731660.74144  22143658.9534                   22143660.3594
   -776040.84847   -585142.11045  22196524.8674                   22196522.4104
  -6382630.18747  -4948079.14944  22449681.0704                   22449679.8984
  21452407.78946  16720113.60443  24206673.2194                   24206676.5434
 -20122570.96947 -15659967.02146  21098789.7894                   21098789.3524
  -9446501.38347  -7339668.61445  21867868.7974                   21867868.9964
 11  8 11 18 34  0.0000000  0  8G24G07G13G19G28G23G08G11
  10735536.53147   8392938.26743  23177040.8054                   23177043.3014
 -16263051.95347 -12669664.58846  20235111.5474                   20235110.3954
   7336596.07847   5735195.88144  22144522.7814                   22144523.6724
   -788980.98047   -595225.35445  22194061.8754                   22194059.9494
  -6512893.32447  -5049582.84345  22424892.7194                   22424891.6844
  21470502.86746  16734213.37343  24210116.2504                   24210119.5004
 -20283250.60947 -15785171.90045  21068213.6884                   21068212.8134
  -9590569.55947  -7451929.49545  21840454.2814                   21840453.8444
 11  8 11 18 34 30.0000000  0  8G24G07G13G19G28G23G08G11
  12143769.88746   9490263.03443  23445018.0004                   23445020.9064
 -14801398.67647 -11530713.98046  20513254.9144                   20513253.3284
   8916753.98847   6966487.63444  22445216.6414                   22445217.4414
    773799.21547    622525.40045  22491449.6804                   22491447.2384
  -5067654.64847  -3923422.80544  22699912.2974                   22699910.5354
  23063952.06346  17975861.70043  24513339.9614                   24513343.4494
 -18868373.46947 -14682670.24245  21337455.9224                   21337454.8094
  -8158833.36347  -6336290.87245  22112904.4384                   22112904.4494
 11  8 11 18 35  0.0000000  0  8G24G07G13G19G28G23G08G11
  11976683.10547   9360065.69843  23413223.4454                   23413226.1374
 -14914858.91048 -11619124.54746  20491664.2664                   20491662.9344
   8921685.11747   6970329.97244  22446154.9534                   22446156.1454
    761450.69547    612903.14145  22489099.3594                   22489097.2344
  -5197768.52747  -4024810.19145  22675152.0784   22675151.6914   23081909.21546
  17989853.91543                  24516757.8754                   24516760.5944
 -19028792.94947 -14807672.43245  21306929.2974                   21306928.0514
  -8302144.65247  -6447962.01445  22085633.4304                   22085632.7234
 11  8 11 18 35 30.0000000  0  8G24G07G13G19G28G23G08G11
  11809704.25047   9229952.35243  23381448.2424                   23381450.3134
 -15028007.33647 -11707292.15746  20470133.1254                   20470131.4574
   8926806.20747   6974320.29644  22447129.6414                   22447130.8284
    749390.89847    603505.86945  22486804.4384                   22486802.3794
  -5327812.00847  -4126142.77044  22650405.6884   22650404.7774   23099790.35946
  18003786.96143                  24520159.3364                   24520164.0204
 -19189081.82447 -14932572.84445  21276427.0634                   21276426.2664
  -8445076.86747  -6559337.74145  22058434.6484                   22058434.1134
 11  8 11 18 36  0.0000000  0  8G24G07G13G19G28G23G08G11
  11642835.96947   9099925.20543  23349693.9064                   23349696.3714
 -15140842.74247 -11795215.84646  20448661.2584                   20448659.8244
   8932113.32047   6978455.60644  22448139.6254                   22448140.6094
    737616.34047    594330.84645  22484563.9454                   22484561.7304
  -5457786.29747  -4227421.37945  22625672.4614   22625671.4694   23117592.13346
  18017658.00343                  24523547.8284                   24523552.2734
 -19349238.26647 -15057370.04746  21245950.3594                   21245949.3204
  -8587627.91447  -6670416.46745  22031307.7034                   22031306.6024
 11  8 11 18 36 30.0000000  0  8G24G07G13G19G28G23G08G11
  11476082.89847   8969987.88243  23317961.6954                   23317964.1334
 -15253362.35947 -11882893.47546  20427249.4694                   20427247.8134
   8937604.70347   6982734.48544  22449185.1254                   22449185.9614
    726125.36347    585376.82145  22482377.4534                   22482375.2234
  -5587691.40647  -4328646.10145  22600952.4924   22600951.0434   23135313.29346
  18031466.29843                  24526919.7894                   24526924.2424
 -19509258.91447 -15182061.45845  21215499.4534                   21215498.7854
  -8729794.25047  -6781195.38745  22004254.3594                   22004253.6914
 11  8 11 18 37  0.0000000  0  7G24G07G13G19G28G08G11
  11309446.30146   8840141.22143  23286251.4384                   23286253.7734
 -15365566.32847 -11970325.12946  20405897.4384                   20405896.3204
   8943275.45347   6987153.13644  22450264.4924                   22450264.8134
    714913.57047    576640.33845  22480243.8754                   22480241.2544
  -5717529.70347  -4429818.76945  22576244.6954   22576244.2114
 -19669142.99647 -15306646.42746  21185074.4844                   21185073.7154
  -8871574.96547  -6891673.84445  21977274.4614                   21977273.4774
 11  8 11 18 37 30.0000000  0  7G24G07G13G19G28G08G11
  11142930.92246   8710389.04643  23254564.2504                   23254567.0004
 -15477450.69547 -12057507.77246  20384606.6414                   20384605.1604
   8949124.05947   6991710.38644  22451377.4534                   22451377.9884
    703979.75047    568120.43545  22478163.2194                   22478160.9454
  -5847300.32847  -4530938.71545  22551550.8984   22551549.1334
 -19828886.35247 -15431121.76145  21154676.2504                   21154675.2704
  -9012965.91047  -7001848.57945  21950368.6334                   21950367.3324
 11  8 11 18 38  0.0000000  0  7G24G07G13G19G28G08G11
  10976547.50046   8580739.73543  23222902.4614                   23222905.6254
 -15589006.38347 -12144434.28746  20363378.2274                   20363376.7894
   8955155.47347   6996410.05544  22452525.7584                   22452526.1054
    693329.36747    559821.39945  22476136.8594                   22476134.2704
  -5976996.74247  -4632000.82944  22526870.1094   22526868.8444
 -19988479.26647 -15555479.87145  21124307.0944                   21124305.5234
  -9153957.25847  -7111711.93645  21923538.4774                   21923538.1214
 11  8 11 18 38 30.0000000  0  7G24G07G13G19G28G08G11
  10810305.55547   8451200.56543  23191268.2344                   23191270.3444
 -15700225.63748 -12231098.65946  20342214.2034                   20342212.6294
   8961372.59047   7001254.42544  22453708.3204                   22453709.1764
    682965.31347    551745.48145  22474164.6804                   22474162.1604
  -6106613.43047  -4733000.80844  22502204.6804   22502203.4844
 -20147913.22747 -15679714.11646  21093967.4844                   21093966.5204
  -9294540.28547  -7221257.10845  21896786.3054                   21896786.0634
 11  8 11 18 39  0.0000000  0  7G24G07G13G19G28G08G11
  10644200.99646   8321768.48044  23159658.8674                   23159662.1134
 -15811113.60548 -12317504.87346  20321112.9144                   20321111.5164
   8967765.43047   7006235.76344  22454925.0234                   22454925.8594
    672877.87147    543885.11245  22472245.2034                   22472242.5164
  -6236157.98047  -4833944.59745  22477553.0784   22477552.5904
 -20307193.04347 -15803828.25945  21063657.8914                   21063657.0394
  -9434719.44547  -7330487.55945  21870111.5234                   21870110.6564
 11  8 11 18 39 30.0000000  0  7G24G07G13G19G28G08G11
  10478231.79347   8192441.87243  23128077.2424                   23128079.7114
 -15921673.68447 -12403655.59446  20300074.2274                   20300072.6914
   8974326.08247   7011347.83044  22456173.3754                   22456174.1564
    663059.09447    536234.06845  22470376.6954                   22470374.0824
  -6365636.84447  -4934837.18845  22452914.3594   22452913.0314
 -20466321.55547 -15927824.48345  21033376.2664                   21033375.6914
  -9574497.65647  -7439405.63245  21843512.3284                   21843512.0434
 11  8 11 18 40  0.0000000  0  7G24G07G13G19G28G08G11
  10312405.05947   8063226.29744  23096520.3914                   23096523.1174
 -16031900.29348 -12489546.48346  20279098.4224                   20279096.9734
   8981055.29347   7016591.24244  22457453.9454                   22457454.7464
    653509.84047    528793.08245  22468559.7504                   22468557.0664
  -6495046.78147  -5035676.08744  22428288.3674   22428287.2234
 -20625292.36347 -16051697.80345  21003125.2424                   21003124.5474
  -9713869.01647  -7548006.63945  21816990.8754                   21816990.3054
 11  8 11 18 40 30.0000000  0  8G24G07G26G13G19G28G08G11
  10146703.88346   7934108.50443  23064988.6334                   23064991.2664
 -16141811.84848 -12575191.85546  20258183.3134                   20258181.7154
  24880047.36356  19414958.51652  24144035.3914                   24144035.6294
   8987929.57047   7021947.70144  22458761.9774                   22458762.8324
    644207.48047    521544.47445  22466789.5704                   22466786.7624
  -6624408.83247  -5136477.64345  22403672.1724   22403670.6994
 -20784123.13347 -16175462.05745  20972900.9064                   20972899.9454
  -9852850.74647  -7656304.01945  21790543.3134                   21790542.1844
 11  8 11 18 41  0.0000000  0  8G24G07G26G13G19G28G08G11
   9981116.02347   7805079.04444  23033478.9534                   23033481.5984
 -16251422.03547 -12660602.39846  20237324.7504                   20237323.7974
  24694274.82845  19270200.73442  24108683.1644                   24108684.6134
   8994930.71947   7027403.04944  22460094.6884                   22460095.1054
    635133.77747    514474.04645  22465062.6174                   22465060.3754
  -6753739.24247  -5237254.54145  22379061.2344   22379060.1374
 -20942826.97347 -16299127.36645  20942700.2034                   20942699.4144
  -9991455.96947  -7764308.04245  21764167.5234                   21764166.9344
 11  8 11 18 41 30.0000000  0  8G24G07G26G13G19G28G08G11
   9815642.13346   7676138.35744  23001989.9774                   23001992.6644
 -16360731.87548 -12745778.91846  20216523.9454                   20216522.8554
  24508796.98045  19125672.61043  24073387.3134                   24073388.5824
   9002053.25447   7032952.91744  22461450.4144                   22461450.4494
    626283.13347    507577.41345  22463378.6564                   22463376.2424
  -6883041.07847  -5338009.17945  22354455.6484   22354454.4344
 -21101403.93447 -16422693.81545  20912524.1804                   20912523.4494
 -10129684.77747  -7872018.75145  21737863.6334                   21737863.5784
 11  8 11 18 42  0.0000000  0  8G24G07G26G13G19G28G08G11
   9650286.83247   7547290.11944  22970524.0944                   22970526.8714
 -16469738.10947 -12830718.84246  20195780.5864                   20195779.6564
  24323618.11746  18981377.49242  24038149.5314                   24038150.1724
   9009295.46147   7038596.07444  22462828.4144                   22462829.7854
    617654.68046    500853.92945  22461736.2194                   22461734.2344
  -7012313.70347  -5438741.06245  22329856.2894   22329854.2894
 -21259850.27347 -16546158.50146  20882373.1644                   20882372.3524
 -10267533.77047  -7979433.48845  21711631.8834                   21711631.1884
 11  8 11 18 42 30.0000000  0  8G24G07G26G13G19G28G08G11
  11060478.17646   8646140.54944  23238874.1254                   23238877.0354
 -15003015.83247 -11687818.39746  20474889.0394                   20474887.3634
  25714166.87146  20064922.04643  24302761.9774                   24302763.2624
  10592073.39847   8271929.40444  22764020.8594                   22764021.7074
   2184665.46947   1721901.23345  22759928.6884                   22759926.2154
  -5566134.41447  -4311848.07745  22605054.5784   22605052.9494
 -19842738.50047 -15441915.53346  21152040.3054                   21152039.3984
  -8829576.40647  -6858947.19345  21985266.1724                   21985264.6994
 11  8 11 18 43  0.0000000  0  8G24G07G26G13G19G28G08G11
  10895373.84447   8517487.89844  23207456.1334                   23207458.3794
 -15111404.94947 -11772277.44046  20454262.9224                   20454261.7544
  25529599.06646  19921103.07143  24267641.1804                   24267641.7854
  10599550.70747   8277755.73044  22765443.5474                   22765445.3284
   2176477.46147   1715520.95345  22758370.4774                   22758368.1644
  -5695347.23847  -4412533.35444  22580466.0784   22580465.0354
 -20000911.35547 -15565167.09046  21121941.2274                   21121940.0044
  -8966653.74647  -6965760.62745  21959181.1334                   21959179.7234
 11  8 11 18 43 30.0000000  0  8G24G07G26G13G19G28G08G11
  10730411.87547   8388946.14844  23176064.7664                   23176067.1764
 -15219471.11347 -11856484.85646  20433698.5864                   20433697.4804
  25345352.72346  19777534.52443  24232579.0164                   24232581.3954
  10607152.69147   8283679.23844  22766890.5944                   22766891.7734
   2168517.19547   1709318.14344  22756856.5944                   22756852.8484
  -5824519.11347  -4513186.72545  22555885.1414   22555884.3244
 -20158932.51647 -15688300.46846  21091870.5634                   21091869.8324
  -9103329.94147  -7072261.52745  21933172.6024                   21933170.9344
 11  8 11 18 44  0.0000000  0  8G24G07G26G13G19G28G08G11
  10565591.02047   8260514.43244  23144699.8444                   23144703.3164
 -15327216.94547 -11940442.66246  20413195.0314                   20413194.2664
  25161426.74646  19634215.70343  24197579.6254                   24197580.2624
  10614872.63747   8289694.63344  22768359.8284                   22768360.7624
   2160777.94547   1703287.50644  22755382.9224                   22755380.7774
  -5953655.30947  -4613812.28045  22531311.5784   22531310.3834
 -20316803.43448 -15811316.74646  21061828.8134                   21061827.8834
  -9239606.99647  -7178451.39745  21907239.4064                   21907238.9454
 11  8 11 18 44 30.0000000  0  8G24G07G26G13G19G28G08G11
  10400920.05547   8132199.46844  23113364.2584                   23113367.5984
 -15434635.28147 -12024145.26346  20392754.1884                   20392753.0434
  24977829.42646  19491152.92343  24162642.0394                   24162642.8594
  10622712.64547   8295803.63044  22769851.2814                   22769853.0664
   2153262.05147   1697430.91345  22753953.5234                   22753950.5084
  -6082750.45747  -4714405.87445  22506745.5314   22506744.1994
 -20474516.00847 -15934209.64946  21031816.7974                   21031815.8914
  -9375477.02347  -7284324.10345  21881384.4304                   21881383.3834
 11  8 11 18 45  0.0000000  0  8G24G07G26G13G19G28G08G11
  10236404.60546   8004005.75844  23082058.1644                   23082060.5634
 -15541721.98047 -12107589.44146  20372376.3054                   20372375.4734
  24794565.81346  19348350.15543  24127767.5164                   24127768.3754
  10630671.98047   8302005.55744  22771366.7034                   22771368.3014
   2145969.77047   1691748.59344  22752565.8674                   22752563.2664
  -6211803.98447  -4814967.05345  22482187.8594   22482186.0514
 -20632065.21147 -16056975.26846  21001836.6884                   21001835.5784
  -9510935.69147  -7389876.28145  21855607.5314                   21855606.3094
 11  8 11 18 45 30.0000000  0  8G24G07G26G13G19G28G08G11
  10072049.85246   7875937.24544  23050782.4454                   23050784.8244
 -15648473.73848 -12190772.62946  20352062.1884                   20352061.0084
  24611640.79746  19205811.26143  24092958.0944                   24092958.6914
  10638750.12947   8308300.09644  22772903.6804                   22772905.0594
   2138899.89847   1686239.53045  22751220.9224                   22751217.9344
  -6340814.05147  -4915494.35145  22457637.9144   22457636.3134
 -20789446.84047 -16179610.31246  20971887.6484                   20971886.9494
  -9645978.67647  -7495104.54545  21829909.5314                   21829908.6524
 11  8 11 18 46  0.0000000  0  8G24G07G26G13G19G28G08G11
   9907860.14146   7747997.37843  23019537.4224                   23019540.5634
 -15754887.17647 -12273692.20446  20331812.1334                   20331810.7854
  24429058.39846  19063539.15243  24058214.4694                   24058215.0234
  10646945.10247   8314685.64444  22774463.0944                   22774464.6214
   2132051.11747   1680902.77945  22749916.8054                   22749914.9694
  -6469780.35247  -5015987.54645  22433096.0784   22433095.1334
 -20946657.22747 -16302111.88746  20941971.5634                   20941970.8794
  -9780602.25847  -7600005.98745  21804292.0314                   21804290.4454
 11  8 11 18 46 30.0000000  0  8G24G07G26G13G19G28G08G11
   9743835.71146   7620186.24743  22988325.0944                   22988327.0234
 -15860963.62947 -12356349.17546  20311627.0554                   20311625.3164
  24246818.78946  18921534.35542  24023535.1804                   24023534.7274
  10655250.82447   8321157.48644  22776043.5784                   22776045.7814
   2125417.91847   1675734.00245  22748654.8364                   22748651.9104
  -6598706.31647  -5116449.28745  22408562.4534   22408561.4494
 -21103697.07047 -16424480.60646  20912087.5474                   20912086.8014
  -9914807.35547  -7704581.35645  21778753.1564                   21778752.4064
 11  8 11 18 47  0.0000000  0  8G24G07G26G13G19G28G08G11
   9579976.13346   7492503.64843  22957143.5704                   22957145.4264
 -15966705.39148 -12438745.35646  20291504.6414                   20291503.0984
  24064921.07046  18779795.89542  23988922.4304                   23988920.2344
  10663661.03547   8327710.75044  22777644.8054                   22777646.3244
   2118993.62547   1670727.99345  22747432.6484                   22747429.9344
  -6727596.60547  -5216883.28045  22384035.2584   22384033.7504
 -21260567.46147 -16546717.25046  20882236.2274                   20882235.5634
 -10048595.43047  -7808831.78245  21753293.7894                   21753293.6294
 11  8 11 18 47 30.0000000  0  8G24G07G26G13G19G28G08G11
   9416289.62946   7364955.90243  22925993.7424                   22925996.4574
 -16072105.37547 -12520875.20346  20271447.8364                   20271446.3874
  23883373.00446  18638329.90242  23954373.3284                   23954374.1724
  10672177.71947   8334346.97844  22779265.1804                   22779266.9184
   2112780.84047   1665886.80645  22746250.0554                   22746247.7274
  -6856446.87947  -5317286.04745  22359515.7344   22359514.8014
 -21417260.27747 -16668815.56246  20852418.5314                   20852418.0594
 -10181958.84847  -7912751.29745  21727916.0474                   21727915.3164
 11  8 11 18 48  0.0000000  0  8G24G07G26G13G19G28G08G11
   9252775.19946   7237542.24743  22894878.4144                   22894881.0124
 -16177166.50847 -12602741.02446  20251455.2344                   20251454.0904
  23702173.13346  18497135.25442  23919892.2424                   23919892.4774
  10680793.57447   8341060.50444  22780904.9384                   22780906.5984
   2106772.66047   1661205.07145  22745106.7194                   22745104.5704
  -6985261.86347  -5417661.35445  22335003.5164   22335001.8014
 -21573777.23847 -16790776.82646  20822634.4384                   20822633.6604
 -10314900.05547  -8016341.82745  21702618.0704                   21702617.2194
 11  8 11 18 48 30.0000000  0  8G24G07G26G13G19G28G08G11
   9089428.98846   7110259.66243  22863795.2814                   22863796.8364
 -16281893.56247 -12684346.51546  20231526.2974                   20231524.7704
  23521317.51246  18356208.85942  23885476.2664                   23885476.6094
  10689498.93447   8347843.75944  22782561.2504                   22782562.7584
   2100959.02747   1656674.93644  22744000.5164                   22743998.1524
  -7114049.21947  -5518015.10245  22310496.1884   22310494.7704
 -21730122.99648 -16912604.66746  20792882.6094                   20792882.4184
 -10447423.64847  -8119606.94645  21677399.8444                   21677398.6684
 11  8 11 18 49  0.0000000  0  8G24G07G26G13G19G28G08G11
   8926257.50846   6983113.20143  22832743.9384                   22832746.0044
 -16386282.13348 -12765688.24846  20211662.2034                   20211660.8204
  23340812.15246  18215555.39542  23851128.2344                   23851127.4304
  10698294.05547   8354696.95544  22784235.6094                   22784236.9654
   2095340.80547   1652297.06444  22742931.3204                   22742929.2504
  -7242806.82447  -5618345.68845  22285993.7814   22285992.5124
 -21886291.91448 -17034294.73246  20763165.1804                   20763163.9534
 -10579524.35947  -8222542.51445  21652261.3754                   21652260.6024
 11  8 11 18 49 30.0000000  0  8G24G07G26G13G19G28G08G11
   8763271.70746   6856111.45543  22801728.8364                   22801730.9574
 -16490322.50047 -12846758.66146  20191863.7344                   20191862.1604
  23160667.71146  18075183.16343  23816847.5784                   23816847.1174
  10707183.71947   8361623.82544  22785927.5234                   22785928.8794
   2089923.48847   1648075.74444  22741900.5164                   22741898.3594
  -7371527.09047  -5718647.18045  22261499.1954   22261498.0744
 -22042273.42647 -17155838.76546  20733482.5864                   20733481.8594
 -10711191.90247  -8325140.57845  21627206.1174                   21627205.1254
 11  8 11 18 50  0.0000000  0  8G24G07G26G13G19G28G08G11
   8600478.58646   6729259.79243  22770750.6884                   22770752.0704
 -16594009.60247 -12927553.79546  20172132.6174                   20172131.4144
  22980890.69546  17935097.26043  23782637.6724                   23782636.8204
  10716168.43047   8368624.74244  22787637.2034                   22787638.7274
   2084707.73847   1644011.50244  22740908.3984                   22740905.6134
  -7500207.19947  -5818917.37045  22237012.1414   22237010.3634
 -22198061.38347 -17277231.95846  20703837.0554                   20703836.4384
 -10842420.82847  -8427396.86045  21602233.9844                   21602233.3444
 11  8 11 18 50 30.0000000  0  8G24G07G26G13G19G28G08G11
  10013303.60246   7830162.57443  23039601.5554                   23039603.5984
 -15121921.34047 -11780472.03446  20452261.7344                   20452260.0864
  24376906.60546  19022901.85542  24048289.1334                   24048289.1764
  12300662.27747   9603295.09644  23089156.4924                   23089158.3554
   3655108.09847   2867700.06344  23039745.5234                   23039742.5124
  -6053426.68747  -4691555.91345  22512325.9224   22512324.4184
 -20778230.82447 -16170870.45646  20974021.8444                   20974021.4064
  -9397787.73847  -7301708.70545  21877138.2664                   21877137.4534
 11  8 11 18 51  0.0000000  0  8G24G07G26G13G19G28G08G11
   9850892.83646   7703608.85344  23008696.3054                   23008698.2274
 -15224909.29348 -11860722.38746  20432663.7344                   20432662.4654
  24197859.94546  18883385.01843  24014218.1334                   24014218.5234
  12309816.61747   9610428.19144  23090898.8204                   23090899.6954
   3650275.05547   2863934.03544  23038825.3914                   23038822.8714
  -6182041.32047  -4791775.07545  22487850.6024   22487849.1604
 -20933636.19547 -16291965.56246  20944449.4064                   20944448.3594
  -9528145.51647  -7403286.17845  21852332.4304                   21852331.6564
 11  8 11 18 51 30.0000000  0  8G24G07G26G13G19G28G08G11
   9688674.98847   7577205.46044  22977826.8984                   22977828.9104
 -15327548.48847 -11940700.97646  20413132.1564                   20413130.8404
  24019179.63346  18744153.69843  23980215.5164                   23980217.1024
  12319048.12147   9617621.40943  23092655.7664                   23092656.8554
   3645626.19547   2860311.52944  23037940.8284                   23037938.5594
  -6310627.03647  -4891971.68245  22463382.2114   22463380.5124
 -21088849.68048 -16412911.11146  20914913.0234                   20914912.2734
  -9658067.44947  -7504524.02445  21827609.3284                   21827607.7584
 11  8 11 18 52  0.0000000  0  8G24G07G26G13G19G28G08G11
   9526658.85546   7450959.19644  22946996.3054                   22946998.1024
 -15429831.59448 -12020402.07546  20393668.3204                   20393667.0474
  23840874.12146  18605214.38843  23946285.9534                   23946286.6334
  12328359.58247   9624876.92944  23094427.3914                   23094429.6564
   3641164.25847   2856834.66745  23037092.1564                   23037089.8674
  -6439178.92247  -4992141.99245  22438919.0784   22438917.8244
 -21243862.97748 -16533700.68146  20885415.0164                   20885414.0594
  -9787545.94947  -7605416.33845  21802970.1254                   21802968.9304
 11  8 11 18 52 30.0000000  0  8G24G07G26G13G19G28G08G11
   9364841.59846   7324867.93544  22916203.6724                   22916205.0124
 -15531763.08648 -12099829.21446  20374271.0704                   20374270.1884
  23662939.87946  18466564.39743  23912426.5314                   23912427.0394
  12337742.12947   9632187.83844  23096212.9224                   23096214.3054
   3636881.01647   2853497.05244  23036276.7344                   23036274.8164
  -6567703.64847  -5092291.10245  22414461.3674   22414460.9694
 -21398679.23047 -16654336.71046  20855954.7894                   20855953.4924
  -9916584.90647  -7705966.14745  21778414.7424                   21778413.4414
 11  8 11 18 53  0.0000000  0  8G24G07G26G13G19G28G08G11
   9203227.59447   7198935.03044  22885449.3364                   22885451.6524
 -15633340.13347 -12178980.16446  20354942.1644                   20354940.7624
  23485381.15246  18328207.03244  23878637.8674                   23878639.1094
  12347194.06347   9639552.82244  23098011.9384                   23098013.7034
   3632774.60247   2850297.20544  23035495.5864                   23035493.1564
  -6696200.94947  -5192418.82945  22390009.4844   22390007.8794
 -21553294.89848 -16774816.44046  20826532.2974                   20826531.1094
 -10045181.67247  -7806171.37545  21753943.4144                   21753942.1374
 11  8 11 18 53 30.0000000  0  8G24G07G26G13G19G28G08G11
   9041815.43846   7073159.38344  22854733.6254                   22854735.5204
 -15734565.90247 -12257857.39346  20335679.1954                   20335677.9024
  23308195.60246  18190140.37243  23844920.5314                   23844921.2974
  12356707.75847   9646965.95644  23099821.9144                   23099824.4264
   3628838.01647   2847229.70744  23034746.3674                   23034743.6524
  -6824676.20347  -5292529.37945  22365561.1094   22365560.3054
 -21707712.22748 -16895141.62146  20797147.1804                   20797145.9224
 -10173338.70747  -7906033.95545  21729555.9144                   21729555.1334
 11  8 11 18 54  0.0000000  0  8G24G07G26G13G19G28G08G11
   8880616.89846   6947550.17144  22824058.2274                   22824060.6174
 -15835430.03147 -12336452.83546  20316485.6884                   20316484.1604
  23131394.93446  18052373.70443  23811276.2504                   23811276.7814
  12366288.77747   9654431.45644  23101645.4614                   23101647.5394
   3625077.48046   2844299.38544  23034030.7894                   23034028.6254
  -6953121.14147  -5392616.31545  22341119.2584   22341118.3634
 -21861919.65248 -17015303.24546  20767802.8054                   20767801.4924
 -10301044.96147  -8005545.28845  21705254.5314                   21705253.2344
 11  8 11 18 54 30.0000000  0  8G24G07G26G13G19G28G08G11
   8719632.46547   6822107.79044  22793423.9144                   22793426.3014
 -15935933.80547 -12414767.47746  20297360.1954                   20297358.9414
  22954979.12546  17914906.88643  23777705.1644                   23777705.7974
  12375931.82047   9661945.43144  23103480.6724                   23103482.3244
   3621487.43046   2841501.91544  23033347.8524                   23033345.5984
  -7081539.19947  -5492682.28645  22316682.0864   22316680.7274
 -22015917.27048 -17135301.37246  20738497.8204                   20738496.8404
 -10428301.39547  -8104706.08045  21681038.3364                   21681037.0594
 11  8 11 18 55  0.0000000  0  8G24G07G26G13G19G28G08G11
   8558863.52047   6696833.32544  22762830.6484                   22762832.5434
 -16036077.57847 -12492801.60046  20278303.2114                   20278302.3134
  22778949.02746  17777740.61243  23744208.2664                   23744208.1914
  12385632.14547   9669503.89343  23105326.7504                   23105328.5234
   3618063.27746   2838833.67644  23032696.3914                   23032694.5314
  -7209932.90247  -5592729.29645  22292249.7274   22292248.1454
 -22169704.42248 -17255135.51046  20709233.0004                   20709232.2344
 -10555107.87947  -8203516.29545  21656907.5234                   21656906.2274
 11  8 11 18 55 30.0000000  0  8G24G07G26G13G19G28G08G11
   8398311.82446   6571728.15244  22732278.5784                   22732280.3134
 -16135861.26247 -12570555.13946  20259315.2974                   20259314.5084
  22603305.83646  17640875.83343  23710783.4454                   23710784.9884
  12395385.52047   9677103.74443  23107183.3444                   23107184.3634
   3614800.99246   2836291.59844  23032075.1484                   23032073.3484
  -7338304.37547  -5692758.98945  22267821.1724   22267819.7704
 -22323279.78548 -17374804.63046  20680008.6254                   20680007.7274
 -10681463.96547  -8301975.54745  21632862.6954                   21632861.7544
 11  8 11 18 56  0.0000000  0  8G24G07G26G13G19G28G08G11
   8237979.99246   6446794.27644  22701768.2664                   22701771.1884
 -16235283.83247 -12648027.28246  20240396.1254                   20240394.6094
  22428051.58646  17504314.07943  23677434.0554                   23677435.0704
  12405188.14846   9684742.00143  23109048.6254                   23109049.6954
   3611697.73046   2833873.44844  23031484.9534                   23031483.5164
  -7466654.68747  -5792772.17245  22243396.8364   22243395.9924
 -22476641.04747 -17494306.92246  20650824.6724                   20650824.2154
 -10807368.39847  -8400082.85345  21608903.7424                   21608902.6024
 11  8 11 18 56 30.0000000  0  8G24G07G26G13G19G28G08G11
   8077872.11746   6322034.93244  22671301.2814                   22671302.9844
 -16334342.79347 -12725216.08646  20221545.7114                   20221544.3364
  22253189.97346  17368058.33543  23644159.8984                   23644160.4654
  12415038.46147   9692417.38243  23110922.7584                   23110925.4264
   3608751.44146   2831577.59244  23030923.7664                   23030922.2114
  -7594983.60947  -5892768.70445  22218976.8364   22218975.6884
 -22629785.12548 -17613639.97046  20621682.8204                   20621681.8014
 -10932818.25047  -8497835.95545  21585032.0004                   21585030.3444
 11  8 11 18 57  0.0000000  0  8G24G07G26G13G19G28G08G11
   7917997.07446   6197457.02244  22640877.7424                   22640879.2344
 -16433031.14147 -12802116.12146  20202766.0474                   20202764.8404
  22078729.48846  17232115.21643  23610961.1094                   23610961.2814
  12424938.88747   9700131.80543  23112807.3204                   23112809.1054
   3605965.04747   2829406.31244  23030393.8674                   23030392.0164
  -7723286.25847  -5992744.76545  22194561.6024   22194559.7304
 -22782703.72348 -17732797.28546  20592583.4694                   20592582.3164
 -11057806.05547  -8595229.01945  21561247.3284                   21561246.2074
 11  8 11 18 57 30.0000000  0  8G24G07G26G13G19G28G08G11
   7758350.55546   6073057.17644  22610498.1174                   22610499.8834
 -16531354.72748 -12878731.92746  20184055.6644                   20184054.2624
  21904665.05146  17096480.62643  23577837.3444                   23577837.1604
  12434879.41847   9707877.45243  23114699.1024                   23114700.3524
   3603328.98446   2827352.19744  23029892.6804                   23029890.7154
  -7851570.13347  -6092706.20145  22170149.5554   22170148.4224
 -22935401.59048 -17851782.63546  20563526.1884                   20563525.0164
 -11182337.24647  -8692266.27345  21537549.9694                   21537548.4454
 11  8 11 18 58  0.0000000  0  8G24G07G26G13G19G28G08G11
   7598940.39847   5948841.51744  22580163.6024                   22580165.2894
 -16629307.32848 -12955058.63546  20165415.8134                   20165414.3284
  21731003.96546  16961160.30542  23544790.4534                   23544789.3834
  12444862.07847   9715655.96343  23116598.4614                   23116600.5514
   3600845.11746   2825416.69144  23029420.0004                   23029417.4534
  -7979831.57847  -6192650.16045  22145742.5314   22145741.2894
 -23087871.25448 -17970590.15746  20534511.9924                   20534511.2974
 -11306405.23847  -8788942.61245  21513940.4144                   21513939.1564
 11  8 11 18 58 30.0000000  0  8G24G07G26G13G19G28G08G11
   9015188.80546   7052411.73744  22849665.8284                   22849667.6374
 -15151470.27047 -11803497.31146  20446638.7894                   20446637.2934
  23133168.52746  18053756.08242  23811613.3984                   23811612.7424
  14030297.24647  10951059.81743  23418296.3134                   23418299.1214
   5173925.02046   4051193.18544  23328767.0084                   23328764.9104
  -6532653.04747  -5064978.56245  22421131.2504   22421129.8324
 -21664690.98447 -16861618.51946  20805334.3364                   20805332.9414
  -9854590.67647  -7657658.52445  21790211.6564                   21790209.8444
 11  8 11 18 59  0.0000000  0  8G24G07G26G13G19G28G08G11
   8856244.35246   6928558.99044  22819420.4304                   22819421.9654
 -15248693.09447 -11879255.39546  20428138.2664                   20428136.6844
  22960305.84046  17919057.95643  23778718.0554                   23778719.1604
  14040338.53147  10958883.96043  23420207.9454                   23420209.4384
   5171721.40646   4049476.04744  23328347.7894                   23328345.1094
  -6660887.59047  -5164901.56145  22396729.2424   22396727.8594
 -21816712.61347 -16980076.92946  20776405.2734                   20776404.3984
  -9977743.93747  -7753622.07445  21766775.9384                   21766774.8834
 11  8 11 18 59 30.0000000  0  8G24G07G26G13G19G28G08G11
   8697548.08246   6804899.64844  22789220.4844                   22789223.4454
 -15345538.39847 -11954719.27346  20409708.5394                   20409707.3754
  22787856.80546  17784682.08143  23745902.5554                   23745902.8054
  14050415.57047  10966736.03343  23422125.7114                   23422127.7274
   5169664.87146   4047873.49844  23327956.1724                   23327954.0044
  -6789098.97347  -5264806.51145  22372331.0554   22372329.9774
 -21968495.67648 -17098349.44946  20747521.9534                   20747521.3134
 -10100426.49247  -7849218.86245  21743430.0554                   21743429.2624
 11  8 11 19  0  0.0000000  0  8G24G07G26G13G19G28G08G11
   8539097.21147   6681431.50944  22759068.9844                   22759071.2234
 -15442010.10247 -12029892.04546  20391351.1254                   20391349.3984
  22615817.93446  17650625.84543  23713165.0864                   23713164.9924
  14060519.44547  10974608.98443  23424048.7114                   23424051.3054
   5167746.93846   4046378.95144  23327591.2424                   23327589.4384
  -6917293.68747  -5364698.49545  22347937.1254   22347935.2854
 -22120043.53547 -17216438.69146  20718683.1094                   20718682.1294
 -10222642.34047  -7944451.95645  21720173.5084                   21720172.4534
 11  8 11 19  0 30.0000000  0  8G24G07G26G13G19G28G08G11
   8380891.61347   6558154.52044  22728963.1884                   22728965.3754
 -15538110.73447 -12104775.66946  20373063.8054                   20373062.1134
  22444188.83646  17516888.89043  23680505.3834                   23680506.1604
  14070644.02347  10982498.06343  23425975.6414                   23425978.1844
   5165961.78946   4044987.85444  23327251.2974                   23327249.3324
  -7045475.67247  -5464580.53945  22323544.3284   22323542.9534
 -22271356.58248 -17334344.94846  20689889.7344                   20689888.2114
 -10344392.58647  -8039322.28445  21697005.5164                   21697004.2814
 11  8 11 19  1  0.0000000  0  8G24G07G26G13G19G28G08G11
   8222933.15646   6435070.08044  22698904.3984                   22698906.7934
 -15633839.97347 -12179369.90246  20354847.3444                   20354845.5164
  22272970.59446  17383472.20543  23647923.6644                   23647923.5124
  14080785.77046  10990400.53943  23427905.3914                   23427908.1524
   5164304.92646   4043696.75044  23326937.0314                   23326934.2544
  -7173646.78947  -5564454.11745  22299154.5004   22299153.2274
 -22422433.59048 -17452067.30246  20661140.7194                   20661139.5634
 -10465677.64147  -8133830.07545  21673925.6724                   21673923.9144
 11  8 11 19  1 30.0000000  0  8G24G07G26G13G19G28G08G11
   8065221.19147   6312177.74744  22668893.0704                   22668894.1524
 -15729200.16048 -12253676.54746  20336700.6804                   20336698.9844
  22102162.08646  17250374.67143  23615419.6334                   23615419.5434
  14090938.03946  10998311.12443  23429836.9614                   23429840.6414
   5162770.77346   4042501.26044  23326645.0864                   23326642.3134
  -7301811.23447  -5664322.50545  22274765.2814   22274764.4224
 -22573275.50448 -17569606.44946  20632436.1094                   20632435.4104
 -10586499.41847  -8227976.90045  21650933.9144                   21650932.5944
 11  8 11 19  2  0.0000000  0  8G24G07G26G13G19G28G08G11
   7907759.04747   6189480.09544  22638929.2114                   22638930.7344
 -15824189.59048 -12327694.30046  20318624.8444                   20318623.3674
  21931765.97346  17117598.51443  23582994.4454                   23582994.3714
  14101097.91446  11006227.74943  23431771.2114                   23431773.8594
   5161356.98446   4041399.55044  23326374.9304                   23326373.4304
  -7429969.54347  -5764186.08045  22250377.7274   22250375.9454
 -22723879.31248 -17686960.06846  20603776.8204                   20603776.1524
 -10706855.92647  -8321761.18245  21628030.5554                   21628029.5904
 11  8 11 19  2 30.0000000  0  8G24G07G26G13G19G28G08G11
   7750546.75847   6066977.10644  22609012.5634                   22609014.1644
 -15918809.94148 -12401424.45546  20300619.0474                   20300617.2464
  21761781.89147  16985143.42043  23550647.5084                   23550648.1254
  14111259.54346  11014145.65943  23433704.7894                   23433708.0434
   5160057.63746   4040387.01944  23326128.6024                   23326125.8484
  -7558125.05147  -5864047.50645  22225990.7194   22225989.2304
 -22874245.57448 -17804128.57746  20575163.4224                   20575162.7464
 -10826748.32847  -8415183.81045  21605216.4224                   21605215.5514
 11  8 11 19  3  0.0000000  0  8G24G07G26G13G19G28G08G11
   7593589.27047   5944672.67644  22579144.4384                   22579146.0044
 -16013058.21548 -12474864.69046  20282684.2504                   20282682.5514
  21592213.82447  16853012.46143  23518379.9454                   23518379.5044
  14121421.74246  11022064.02943  23435638.7734                   23435642.0744
   5158872.24646   4039463.31144  23325903.5164                   23325900.6054
  -7686276.68747  -5963905.92345  22201603.7114   22201602.7894
 -23024369.75047 -17921108.44446  20546595.2274                   20546594.6254
 -10946173.26247  -8508242.17345  21582489.8284                   21582488.3674
 11  8 11 19  3 30.0000000  0  8G24G07G26G13G19G28G08G11
   7436887.97347   5822567.86744  22549325.0474                   22549326.1254
 -16106934.75048 -12548015.24246  20264819.9774                   20264818.6214
  21423062.96946  16721206.66443  23486191.2894                   23486191.4614
  14131580.42646  11029979.65043  23437572.4144                   23437575.7194
   5157796.43847   4038624.97244  23325698.0474                   23325695.9454
  -7814426.51647  -6063762.92245  22177218.0084   22177216.3364
 -23174250.66447 -18037898.78346  20518074.3134                   20518073.6994
 -11065130.99647  -8600936.45945  21559853.1804                   21559852.4064
 11  8 11 19  4  0.0000000  0  8G24G07G26G13G19G28G08G11
   7280437.55947   5700658.52744  22519553.6254                   22519554.4264
 -16200446.33648 -12620881.43946  20247025.1334                   20247024.0904
  21254322.94146  16589720.96543  23454080.9534                   23454082.0394
  14141724.36346  11037883.75043  23439502.3204                   23439505.6564
   5156819.22746   4037863.43944  23325512.1174                   23325509.4494
  -7942583.52347  -6163625.51545  22152830.2584   22152828.8554
 -23323894.33647 -18154504.23646  20489597.9064                   20489597.4454
 -11183628.31647  -8693272.04445  21537303.7734                   21537303.0354
 11  8 11 19  4 30.0000000  0  8G24G07G26G13G19G28G08G11
   7124241.25847   5578947.21644  22489830.2814                   22489831.5594
 -16293591.65248 -12693462.20646  20229300.4144                   20229299.3634
  21085996.80946  16458557.82043  23422048.9534                   23422050.7344
  14151851.11746  11045774.56943  23441430.2584                   23441432.3754
   5155938.84446   4037177.39944  23325344.4144                   23325342.9884
  -8070748.14547  -6263494.02945  22128441.1884   22128440.6134
 -23473297.70748 -18270922.45146  20461167.2194                   20461166.7664
 -11301663.46947  -8785247.43345  21514842.1174                   21514841.3094
 11  8 11 19  5  0.0000000  0  8G24G07G26G13G19G28G08G11
   6968299.74247   5457434.39144  22460155.5394                   22460156.5164
 -16386371.84048 -12765758.47446  20211644.9304                   20211643.5864
  20918084.20346  16327716.86843  23390096.6484                   23390097.1454
  14161955.34847  11053647.73543  23443352.9144                   23443356.1564
   5155149.84446   4036562.58144  23325194.6884                   23325192.5554
  -8198923.11747  -6363370.60345  22104050.6954   22104049.0084
 -23622460.62948 -18387153.28846  20432782.6094                   20432782.2274
 -11419237.24247  -8876863.32445  21492468.3204                   21492467.5904
 11  8 11 19  5 30.0000000  0  8G24G07G26G13G19G28G08G11
   6812609.14847   5336117.09944  22430528.1884                   22430530.1254
 -16478792.25048 -12837774.39246  20194058.0554                   20194056.4534
  20750581.17246  16197195.09743  23358221.8914                   23358222.5044
  14172027.35247  11061495.78443  23445269.5864                   23445273.2934
   5154443.39146   4036012.04744  23325060.6334                   23325057.8714
  -8327115.78147  -6463260.97545  22079655.9924   22079654.7194
 -23771387.41848 -18503200.13546  20404443.1884                   20404442.4304
 -11536354.91047  -8968123.80645  21470181.7814                   21470180.6764
